[[{"header":{"parameterUnit":"m.s-1","parameterCategory":1,"la1":31.0,"la2":29.5877,"lo1":-88.7671,"lo2":-86.6584,"dy":0.0162,"dx":0.0185,"nx":115,"ny":88,"refTime":"2023-10-25T06:00:00:Z","depth":0,"parameterNumber":2,"parameterNumberName":"U-component_of_WINDS"},"data":[0.0,0.0,0.0,0.0,0.0,0.0,0.0,0.0,0.0,0.0,0.0,0.0,0.0,0.0,0.0,0.0,0.0,0.0,0.0,0.0,0.0,0.0,0.0,0.0,0.0,0.0,0.0,0.0,0.0,0.0,0.0,0.0,0.0,0.0,0.0,0.0,0.0,0.0,0.0,0.0,0.0,0.0,0.0,0.0,0.0,0.0,0.0,0.0,0.0,0.0,0.0,0.0,0.0,0.0,0.0,0.0,0.0,0.0,0.0,0.0,0.0,0.0,0.0,0.0,0.0,0.0,0.0,0.0,0.0,0.0,0.0,0.0,0.0,0.0,0.0,0.0,0.0,0.0,0.0,0.0,0.0,0.0,0.0,0.0,0.0,0.0,0.0,0.0,0.0,0.0,0.0,0.0,0.0,0.0,0.0,0.0,0.0,0.0,0.0,0.0,0.0,0.0,0.0,0.0,0.0,0.0,0.0,0.0,0.0,0.0,0.0,0.0,0.0,0.0,0.0,0.0,0.0,0.0,0.0,0.0,0.0,0.0,0.0,0.0,0.0,0.0,0.0,0.0,0.0,0.0,0.0,0.0,0.0,0.0,0.0,0.0,0.0,0.0,0.0,0.0,0.0,0.0,0.0,0.0,0.0,0.0,0.0,0.0,0.0,0.0,0.0,0.0,0.0,0.0,0.0,0.0,0.0,0.0,0.0,0.0,0.0,0.0,0.0,0.0,0.0,0.0,0.0,0.0,0.0,0.0,0.0,0.0,0.0,0.0,0.0,0.0,0.0,0.0,0.0,0.0,0.0,0.0,0.0,0.0,0.0,0.0,0.0,0.0,0.0,0.0,0.0,0.0,0.0,0.0,0.0,0.0,0.0,0.0,0.0,0.0,0.0,0.0,0.0,0.0,0.0,0.0,0.0,0.0,0.0,0.0,0.0,0.0,0.0,0.0,0.0,0.0,0.0,0.0,0.0,0.0,0.0,0.0,0.0,0.0,0.0,0.0,0.0,0.0,0.0,0.0,0.0,0.0,0.0,0.0,0.0,0.0,0.0,0.0,0.0,0.0,0.0,0.0,0.0,0.0,0.0,0.0,0.0,0.0,0.0,0.0,0.0,0.0,0.0,0.0,0.0,0.0,0.0,0.0,0.0,0.0,0.0,0.0,0.0,0.0,0.0,0.0,0.0,0.0,0.0,0.0,0.0,0.0,0.0,0.0,0.0,0.0,0.0,0.0,0.0,0.0,0.0,0.0,0.0,0.0,0.0,0.0,0.0,0.0,0.0,0.0,0.0,0.0,0.0,0.0,0.0,0.0,0.0,0.0,0.0,0.0,0.0,0.0,0.0,0.0,0.0,0.0,0.0,0.0,0.0,0.0,0.0,0.0,0.0,0.0,0.0,0.0,0.0,0.0,0.0,0.0,0.0,0.0,0.0,0.0,0.0,0.0,0.0,0.0,0.0,0.0,0.0,0.0,0.0,0.0,0.0,0.0,0.0,0.0,0.0,0.0,0.0,0.0,0.0,0.0,0.0,0.0,0.0,0.0,0.0,0.0,0.0,0.0,0.0,0.0,0.0,0.0,0.0,0.0,0.0,0.0,0.0,0.0,0.0,0.0,0.0,0.0,0.0,0.0,0.0,0.0,0.0,0.0,0.0,0.0,0.0,0.0,0.0,0.0,0.0,0.0,0.0,0.0,0.0,0.0,0.0,0.0,0.0,0.0,0.0,0.0,0.0,0.0,0.0,0.0,0.0,0.0,0.0,0.0,0.0,0.0,0.0,0.0,0.0,0.0,0.0,0.0,0.0,0.0,0.0,0.0,0.0,0.0,0.0,0.0,0.0,0.0,0.0,0.0,0.0,0.0,0.0,0.0,0.0,0.0,0.0,0.0,0.0,0.0,0.0,0.0,0.0,0.0,0.0,0.0,0.0,0.0,0.0,0.0,0.0,0.0,0.0,0.0,0.0,0.0,0.0,0.0,0.0,0.0,0.0,0.0,0.0,0.0,0.0,0.0,0.0,0.0,0.0,0.0,0.0,0.0,0.0,0.0,0.0,0.0,0.0,0.0,0.0,0.0,0.0,0.0,0.0,0.0,0.0,0.0,0.0,0.0,0.0,0.0,0.0,0.0,0.0,0.0,0.0,0.0,0.0,0.0,0.0,0.0,0.0,0.0,0.0,0.0,0.0,0.0,0.0,0.0,0.0,0.0,0.0,0.0,0.0,0.0,0.0,0.0,0.0,0.0,0.0,0.0,0.0,0.0,0.0,0.0,0.0,0.0,0.0,0.0,0.0,0.0,0.0,0.0,0.0,0.0,0.0,0.0,0.0,0.0,0.0,0.0,0.0,0.0,0.0,0.0,0.0,0.0,0.0,0.0,0.0,0.0,0.0,0.0,0.0,0.0,0.0,0.0,0.0,0.0,0.0,0.0,0.0,0.0,0.0,0.0,0.0,0.0,0.0,0.0,0.0,0.0,0.0,0.0,0.0,0.0,0.0,0.0,0.0,0.0,0.0,0.0,0.0,0.0,0.0,0.0,0.0,0.0,0.0,0.0,0.0,0.0,0.0,0.0,0.0,0.0,0.0,0.0,0.0,0.0,0.0,0.0,0.0,0.0,0.0,0.0,0.0,0.0,0.0,0.0,0.0,0.0,0.0,0.0,0.0,0.0,0.0,0.0,0.0,0.0,0.0,0.0,0.0,0.0,0.0,0.0,0.0,0.0,0.0,0.0,0.0,0.0,0.0,0.0,0.0,0.0,0.0,0.0,0.0,0.0,0.0,0.0,0.0,0.0,0.0,0.0,0.0,0.0,0.0,0.0,0.0,0.0,0.0,0.0,0.0,0.0,0.0,0.0,0.0,0.0,0.0,0.0,0.0,0.0,0.0,0.0,0.0,0.0,0.0,0.0,0.0,0.0,0.0,0.0,0.0,0.0,0.0,0.0,0.0,0.0,0.0,0.0,0.0,0.0,0.0,0.0,0.0,0.0,0.0,0.0,0.0,0.0,0.0,0.0,0.0,0.0,0.0,0.0,0.0,0.0,0.0,0.0,0.0,0.0,0.0,0.0,0.0,0.0,0.0,0.0,0.0,0.0,0.0,0.0,0.0,0.0,0.0,0.0,0.0,0.0,0.0,0.0,0.0,0.0,0.0,0.0,0.0,0.0,0.0,0.0,0.0,0.0,0.0,0.0,0.0,0.0,0.0,0.0,0.0,0.0,0.0,0.0,0.0,0.0,0.0,0.0,0.0,0.0,0.0,0.0,0.0,0.0,0.0,0.0,0.0,0.0,0.0,0.0,0.0,0.0,0.0,0.0,0.0,0.0,0.0,0.0,0.0,0.0,0.0,0.0,0.0,0.0,0.0,0.0,0.0,0.0,0.0,0.0,0.0,0.0,0.0,0.0,0.0,0.0,0.0,0.0,0.0,0.0,0.0,0.0,0.0,0.0,0.0,0.0,0.0,0.0,0.0,0.0,0.0,0.0,0.0,0.0,0.0,0.0,0.0,0.0,0.0,0.0,0.0,0.0,0.0,0.0,0.0,0.0,0.0,0.0,0.0,0.0,0.0,0.0,0.0,0.0,0.0,0.0,0.0,0.0,0.0,0.0,0.0,0.0,0.0,0.0,0.0,0.0,0.0,0.0,0.0,0.0,0.0,0.0,0.0,0.0,0.0,0.0,0.0,0.0,0.0,0.0,0.0,0.0,0.0,0.0,0.0,0.0,0.0,0.0,0.0,0.0,0.0,0.0,0.0,0.0,0.0,0.0,0.0,0.0,0.0,0.0,0.0,0.0,0.0,0.0,0.0,0.0,0.0,0.0,0.0,0.0,0.0,0.0,0.0,0.0,0.0,0.0,0.0,0.0,0.0,0.0,0.0,0.0,0.0,0.0,0.0,0.0,0.0,0.0,0.0,0.0,0.0,0.0,0.0,0.0,0.0,0.0,0.0,0.0,0.0,0.0,0.0,0.0,0.0,0.0,0.0,0.0,0.0,0.0,0.0,0.0,0.0,0.0,0.0,0.0,0.0,0.0,0.0,0.0,0.0,0.0,0.0,0.0,0.0,0.0,0.0,0.0,0.0,0.0,0.0,0.0,0.0,0.0,0.0,0.0,0.0,0.0,0.0,0.0,0.0,0.0,0.0,0.0,0.0,0.0,0.0,0.0,0.0,0.0,0.0,0.0,0.0,0.0,0.0,0.0,0.0,0.0,0.0,0.0,0.0,0.0,0.0,0.0,0.0,0.0,0.0,0.0,0.0,0.0,0.0,0.0,0.0,0.0,-0.8898,0.0,0.0,0.0,0.0,0.0,0.0,0.0,0.0,0.0,0.0,0.0,0.0,0.0,0.0,0.0,0.0,0.0,0.0,0.0,0.0,0.0,0.0,0.0,0.0,0.0,0.0,0.0,0.0,0.0,0.0,0.0,0.0,0.0,0.0,0.0,0.0,0.0,0.0,0.0,0.0,0.0,0.0,0.0,0.0,0.0,0.0,0.0,0.0,0.0,0.0,0.0,0.0,0.0,0.0,0.0,0.0,0.0,0.0,0.0,0.0,0.0,0.0,0.0,0.0,0.0,0.0,0.0,0.0,0.0,0.0,0.0,0.0,0.0,0.0,0.0,0.0,0.0,0.0,0.0,0.0,0.0,0.0,0.0,0.0,0.0,0.0,0.0,0.0,0.0,0.0,0.0,0.0,0.0,0.0,0.0,0.0,0.0,0.0,0.0,0.0,0.0,0.0,0.0,0.0,0.0,0.0,0.0,0.0,0.0,0.0,-1.0209,-0.9927,-0.9766,-0.9479,-0.9038,0.0,0.0,0.0,0.0,0.0,0.0,0.0,0.0,0.0,0.0,0.0,0.0,0.0,0.0,0.0,0.0,0.0,0.0,0.0,0.0,0.0,0.0,0.0,0.0,0.0,0.0,0.0,0.0,0.0,0.0,0.0,0.0,0.0,0.0,0.0,0.0,0.0,0.0,0.0,0.0,0.0,0.0,0.0,0.0,0.0,0.0,0.0,0.0,0.0,0.0,0.0,0.0,0.0,0.0,0.0,0.0,0.0,0.0,0.0,0.0,0.0,0.0,0.0,0.0,0.0,0.0,0.0,0.0,0.0,0.0,0.0,0.0,0.0,0.0,0.0,0.0,0.0,0.0,0.0,0.0,0.0,0.0,0.0,0.0,0.0,0.0,0.0,0.0,0.0,0.0,0.0,0.0,0.0,0.0,0.0,0.0,0.0,0.0,0.0,0.0,0.0,0.0,0.0,0.0,0.0,0.0,0.0,0.0,0.0,0.0,0.0,0.0,-0.9971,-0.9713,-0.9324,0.0,0.0,0.0,0.0,0.0,0.0,0.0,0.0,0.0,0.0,0.0,0.0,0.0,0.0,0.0,0.0,0.0,0.0,0.0,0.0,0.0,0.0,0.0,0.0,0.0,0.0,0.0,0.0,0.0,0.0,0.0,0.0,0.0,0.0,0.0,0.0,0.0,0.0,0.0,0.0,0.0,0.0,0.0,0.0,0.0,0.0,0.0,0.0,0.0,0.0,0.0,0.0,0.0,0.0,0.0,0.0,0.0,0.0,0.0,0.0,0.0,0.0,0.0,0.0,0.0,0.0,0.0,0.0,0.0,0.0,0.0,0.0,0.0,0.0,0.0,0.0,0.0,0.0,0.0,0.0,0.0,0.0,0.0,0.0,0.0,0.0,0.0,0.0,0.0,0.0,0.0,0.0,0.0,0.0,0.0,0.0,0.0,0.0,0.0,0.0,0.0,0.0,0.0,0.0,0.0,0.0,0.0,0.0,0.0,0.0,-1.0106,-1.0104,-1.0353,0.0,-0.9674,0.0,0.0,0.0,0.0,0.0,0.0,0.0,0.0,0.0,0.0,0.0,0.0,0.0,0.0,0.0,0.0,0.0,0.0,0.0,0.0,0.0,0.0,0.0,0.0,0.0,0.0,0.0,0.0,0.0,0.0,0.0,0.0,0.0,0.0,0.0,0.0,0.0,0.0,0.0,0.0,0.0,0.0,0.0,0.0,0.0,0.0,0.0,0.0,0.0,0.0,0.0,0.0,0.0,0.0,0.0,0.0,0.0,0.0,0.0,0.0,0.0,0.0,0.0,0.0,0.0,0.0,0.0,0.0,0.0,0.0,0.0,0.0,0.0,0.0,0.0,0.0,0.0,0.0,0.0,0.0,0.0,0.0,0.0,0.0,0.0,0.0,0.0,0.0,0.0,0.0,0.0,0.0,0.0,0.0,0.0,0.0,0.0,0.0,0.0,0.0,0.0,0.0,0.0,0.0,0.0,0.0,0.0,0.0,0.0,0.0,-1.0116,-1.0386,-1.0306,-0.9942,0.0,0.0,0.0,0.0,0.0,0.0,0.0,0.0,0.0,0.0,0.0,0.0,0.0,0.0,0.0,0.0,0.0,0.0,0.0,0.0,0.0,0.0,0.0,0.0,0.0,0.0,0.0,0.0,0.0,0.0,0.0,0.0,0.0,0.0,0.0,0.0,0.0,0.0,0.0,0.0,0.0,0.0,0.0,0.0,0.0,0.0,0.0,0.0,0.0,0.0,0.0,0.0,0.0,0.0,0.0,0.0,0.0,0.0,0.0,0.0,0.0,0.0,0.0,0.0,0.0,0.0,0.0,0.0,0.0,0.0,0.0,0.0,0.0,0.0,0.0,0.0,0.0,0.0,0.0,0.0,0.0,0.0,0.0,0.0,0.0,0.0,0.0,0.0,0.0,0.0,0.0,0.0,0.0,0.0,0.0,0.0,0.0,0.0,0.0,0.0,0.0,0.0,0.0,0.0,0.0,0.0,0.0,0.0,0.0,0.0,-1.0244,-1.029,-1.0659,-1.0105,-0.9604,-0.9261,0.0,0.0,0.0,0.0,0.0,0.0,0.0,0.0,0.0,0.0,0.0,0.0,0.0,0.0,0.0,0.0,0.0,0.0,0.0,0.0,0.0,0.0,0.0,0.0,0.0,0.0,0.0,0.0,0.0,0.0,0.0,0.0,0.0,0.0,0.0,0.0,0.0,0.0,0.0,0.0,0.0,0.0,0.0,0.0,0.0,0.0,0.0,0.0,0.0,0.0,0.0,0.0,0.0,0.0,0.0,0.0,0.0,0.0,0.0,0.0,0.0,0.0,0.0,0.0,0.0,0.0,0.0,0.0,0.0,0.0,0.0,0.0,0.0,0.0,0.0,0.0,0.0,0.0,0.0,0.0,0.0,0.0,0.0,0.0,0.0,0.0,0.0,0.0,0.0,0.0,0.0,0.0,0.0,0.0,0.0,0.0,0.0,0.0,0.0,0.0,0.0,0.0,0.0,0.0,0.0,0.0,0.0,0.0,-1.1026,-1.0745,-1.0701,-1.0952,-0.9848,-0.9438,0.0,0.0,0.0,0.0,0.0,0.0,0.0,0.0,0.0,0.0,0.0,0.0,0.0,0.0,0.0,0.0,0.0,0.0,0.0,0.0,0.0,0.0,0.0,0.0,0.0,0.0,0.0,0.0,0.0,0.0,0.0,0.0,0.0,0.0,0.0,0.0,0.0,0.0,0.0,0.0,0.0,0.0,0.0,0.0,0.0,0.0,0.0,0.0,0.0,0.0,0.0,0.0,0.0,0.0,0.0,0.0,0.0,0.0,0.0,0.0,0.0,0.0,0.0,0.0,0.0,0.0,0.0,0.0,0.0,0.0,0.0,0.0,0.0,0.0,0.0,0.0,0.0,0.0,0.0,0.0,0.0,0.0,0.0,0.0,0.0,0.0,0.0,0.0,0.0,0.0,0.0,0.0,0.0,0.0,0.0,0.0,0.0,0.0,0.0,0.0,0.0,0.0,0.0,0.0,0.0,0.0,0.0,0.0,0.0,-1.0773,-1.108,-1.1071,-1.0753,-1.0451,-1.018,0.0,0.0,0.0,0.0,0.0,0.0,0.0,0.0,0.0,0.0,0.0,0.0,0.0,0.0,0.0,0.0,0.0,0.0,0.0,0.0,0.0,0.0,0.0,0.0,0.0,0.0,0.0,0.0,0.0,0.0,0.0,0.0,0.0,0.0,0.0,0.0,0.0,0.0,0.0,0.0,0.0,0.0,0.0,0.0,0.0,0.0,0.0,0.0,0.0,0.0,0.0,0.0,0.0,0.0,0.0,0.0,0.0,0.0,0.0,0.0,0.0,0.0,0.0,0.0,0.0,0.0,0.0,0.0,0.0,0.0,0.0,0.0,0.0,0.0,0.0,0.0,0.0,0.0,0.0,0.0,0.0,0.0,0.0,0.0,0.0,0.0,0.0,0.0,0.0,0.0,0.0,0.0,0.0,0.0,0.0,0.0,0.0,0.0,0.0,0.0,0.0,0.0,0.0,0.0,0.0,0.0,0.0,0.0,0.0,-1.0762,0.0,-1.0996,-1.0609,-1.0465,-1.0193,0.0,0.0,0.0,0.0,0.0,0.0,0.0,0.0,0.0,0.0,0.0,0.0,0.0,0.0,0.0,0.0,0.0,0.0,0.0,0.0,0.0,0.0,0.0,0.0,0.0,0.0,0.0,0.0,0.0,0.0,0.0,0.0,0.0,0.0,0.0,0.0,0.0,0.0,0.0,0.0,0.0,0.0,0.0,0.0,0.0,0.0,0.0,0.0,0.0,0.0,0.0,0.0,0.0,0.0,0.0,0.0,0.0,0.0,0.0,0.0,0.0,0.0,0.0,0.0,0.0,0.0,0.0,0.0,0.0,0.0,0.0,0.0,0.0,0.0,0.0,0.0,0.0,0.0,0.0,0.0,0.0,0.0,0.0,0.0,0.0,0.0,0.0,0.0,0.0,0.0,0.0,0.0,0.0,0.0,0.0,0.0,0.0,0.0,0.0,0.0,0.0,0.0,0.0,0.0,0.0,0.0,0.0,0.0,-1.0762,-1.1048,-1.061,-1.048,-1.0594,-0.9875,-0.9456,0.0,0.0,0.0,0.0,0.0,0.0,0.0,0.0,0.0,0.0,0.0,0.0,0.0,0.0,0.0,0.0,0.0,0.0,0.0,0.0,0.0,0.0,0.0,0.0,0.0,0.0,0.0,0.0,0.0,0.0,0.0,0.0,0.0,0.0,0.0,0.0,0.0,0.0,0.0,0.0,0.0,0.0,0.0,0.0,0.0,0.0,0.0,0.0,0.0,0.0,0.0,0.0,0.0,0.0,0.0,0.0,0.0,0.0,0.0,0.0,0.0,0.0,0.0,0.0,0.0,0.0,0.0,0.0,0.0,0.0,0.0,0.0,0.0,0.0,0.0,0.0,0.0,0.0,0.0,0.0,0.0,0.0,0.0,0.0,0.0,0.0,0.0,0.0,0.0,0.0,0.0,0.0,0.0,0.0,0.0,0.0,0.0,0.0,0.0,0.0,0.0,0.0,0.0,0.0,0.0,0.0,0.0,0.0,0.0,-1.0419,-1.0931,-1.112,-1.0931,-1.0485,-1.0231,0.0,0.0,0.0,0.0,0.0,0.0,0.0,0.0,0.0,0.0,0.0,0.0,0.0,0.0,0.0,0.0,0.0,0.0,0.0,0.0,0.0,0.0,0.0,0.0,0.0,0.0,0.0,0.0,0.0,0.0,0.0,0.0,0.0,0.0,0.0,0.0,0.0,0.0,0.0,0.0,0.0,0.0,0.0,0.0,0.0,0.0,0.0,0.0,0.0,0.0,0.0,0.0,0.0,0.0,0.0,0.0,0.0,0.0,0.0,0.0,0.0,0.0,0.0,0.0,0.0,0.0,0.0,0.0,0.0,0.0,0.0,0.0,0.0,0.0,0.0,0.0,0.0,0.0,0.0,0.0,0.0,0.0,0.0,0.0,0.0,0.0,0.0,0.0,0.0,0.0,0.0,0.0,0.0,0.0,0.0,0.0,0.0,0.0,0.0,0.0,0.0,0.0,0.0,0.0,0.0,0.0,0.0,0.0,0.0,-1.0248,-1.0922,-1.1163,-1.0931,-1.058,-1.0411,-1.0411,0.0,0.0,0.0,0.0,0.0,0.0,0.0,0.0,0.0,0.0,0.0,0.0,0.0,0.0,0.0,0.0,0.0,0.0,0.0,0.0,0.0,0.0,0.0,0.0,0.0,0.0,0.0,0.0,0.0,0.0,0.0,0.0,0.0,0.0,0.0,0.0,0.0,0.0,0.0,0.0,0.0,0.0,0.0,0.0,0.0,0.0,0.0,0.0,0.0,0.0,0.0,0.0,0.0,0.0,0.0,0.0,0.0,0.0,0.0,0.0,0.0,0.0,0.0,0.0,0.0,0.0,0.0,0.0,0.0,0.0,0.0,0.0,0.0,0.0,0.0,0.0,0.0,0.0,0.0,0.0,0.0,0.0,0.0,0.0,0.0,0.0,0.0,0.0,0.0,0.0,0.0,0.0,0.0,0.0,0.0,0.0,0.0,0.0,0.0,0.0,0.0,0.0,0.0,0.0,0.0,0.0,0.0,0.0,-1.0343,-1.0694,-1.0797,-1.0602,-1.0294,-1.0119,0.0,0.0,0.0,0.0,0.0,0.0,0.0,0.0,0.0,0.0,0.0,0.0,0.0,0.0,0.0,0.0,0.0,0.0,0.0,0.0,0.0,0.0,0.0,0.0,0.0,0.0,0.0,0.0,0.0,0.0,0.0,0.0,0.0,0.0,0.0,0.0,0.0,0.0,0.0,0.0,0.0,0.0,0.0,0.0,0.0,0.0,0.0,0.0,0.0,0.0,0.0,0.0,0.0,0.0,0.0,0.0,0.0,0.0,0.0,0.0,0.0,0.0,0.0,0.0,0.0,0.0,0.0,0.0,0.0,0.0,0.0,0.0,0.0,0.0,0.0,0.0,0.0,0.0,0.0,0.0,0.0,0.0,0.0,0.0,0.0,0.0,0.0,0.0,0.0,0.0,0.0,0.0,0.0,0.0,0.0,0.0,0.0,0.0,0.0,0.0,0.0,0.0,0.0,0.0,0.0,0.0,0.0,0.0,0.0,-1.0952,-1.1417,-1.1322,-1.0638,-1.0507,-1.036,0.0,0.0,0.0,0.0,0.0,0.0,0.0,0.0,0.0,0.0,0.0,0.0,0.0,0.0,0.0,0.0,0.0,0.0,0.0,0.0,0.0,0.0,0.0,0.0,0.0,0.0,0.0,0.0,0.0,0.0,0.0,0.0,0.0,0.0,0.0,0.0,0.0,0.0,0.0,0.0,0.0,0.0,0.0,0.0,0.0,0.0,0.0,0.0,0.0,0.0,0.0,0.0,0.0,0.0,0.0,0.0,0.0,0.0,0.0,0.0,0.0,0.0,0.0,0.0,0.0,0.0,0.0,0.0,0.0,0.0,0.0,0.0,0.0,0.0,0.0,0.0,0.0,0.0,0.0,0.0,0.0,0.0,0.0,0.0,0.0,0.0,0.0,0.0,0.0,0.0,0.0,0.0,0.0,0.0,0.0,0.0,0.0,0.0,0.0,0.0,0.0,0.0,0.0,0.0,0.0,0.0,0.0,0.0,-1.1757,-1.1285,-1.1742,-1.1683,-1.1041,-1.0872,-1.0587,0.0,0.0,0.0,0.0,0.0,0.0,0.0,0.0,0.0,0.0,0.0,0.0,0.0,0.0,0.0,0.0,0.0,0.0,0.0,0.0,0.0,0.0,0.0,0.0,0.0,0.0,0.0,0.0,0.0,0.0,0.0,0.0,0.0,0.0,0.0,0.0,0.0,0.0,0.0,0.0,0.0,0.0,0.0,0.0,0.0,0.0,0.0,0.0,0.0,0.0,0.0,0.0,0.0,0.0,0.0,0.0,0.0,0.0,0.0,0.0,0.0,0.0,0.0,0.0,0.0,0.0,0.0,0.0,0.0,0.0,0.0,0.0,0.0,0.0,0.0,0.0,0.0,0.0,0.0,0.0,0.0,0.0,0.0,0.0,0.0,0.0,0.0,0.0,0.0,0.0,0.0,0.0,0.0,0.0,0.0,0.0,0.0,0.0,0.0,0.0,0.0,0.0,0.0,0.0,0.0,0.0,0.0,0.0,-1.1922,-1.1671,-1.1958,-1.1954,-1.1643,-1.1261,-1.0777,0.0,0.0,0.0,0.0,0.0,0.0,0.0,0.0,0.0,0.0,0.0,0.0,0.0,0.0,0.0,0.0,0.0,0.0,0.0,0.0,0.0,0.0,0.0,0.0,0.0,0.0,0.0,0.0,0.0,0.0,0.0,0.0,0.0,0.0,0.0,0.0,0.0,0.0,0.0,0.0,0.0,0.0,0.0,0.0,0.0,0.0,0.0,0.0,0.0,0.0,0.0,0.0,0.0,0.0,0.0,0.0,0.0,0.0,0.0,0.0,0.0,0.0,0.0,0.0,0.0,0.0,0.0,0.0,0.0,0.0,0.0,0.0,0.0,0.0,0.0,0.0,0.0,0.0,0.0,0.0,0.0,0.0,0.0,0.0,0.0,0.0,0.0,0.0,0.0,0.0,0.0,0.0,0.0,0.0,0.0,0.0,0.0,0.0,0.0,0.0,0.0,0.0,0.0,0.0,0.0,0.0,0.0,0.0,-1.2395,-1.2668,-1.2745,-1.2509,-1.1932,-1.1143,-1.0638,0.0,0.0,0.0,0.0,0.0,0.0,0.0,0.0,0.0,0.0,0.0,0.0,0.0,0.0,0.0,0.0,0.0,0.0,0.0,0.0,0.0,0.0,0.0,0.0,0.0,0.0,0.0,0.0,0.0,0.0,0.0,0.0,0.0,0.0,0.0,0.0,0.0,0.0,0.0,0.0,0.0,0.0,0.0,0.0,0.0,0.0,0.0,0.0,-0.6427,0.0,0.0,0.0,0.0,0.0,0.0,0.0,0.0,0.0,0.0,0.0,0.0,0.0,0.0,0.0,0.0,0.0,0.0,0.0,0.0,0.0,0.0,0.0,0.0,0.0,0.0,0.0,0.0,0.0,0.0,0.0,0.0,0.0,0.0,0.0,0.0,0.0,0.0,0.0,0.0,0.0,0.0,0.0,0.0,0.0,0.0,0.0,0.0,0.0,0.0,0.0,0.0,0.0,0.0,0.0,0.0,0.0,0.0,0.0,-1.2464,-1.2766,-1.2921,-1.275,-1.2246,-1.1488,-1.0843,0.0,0.0,0.0,0.0,0.0,0.0,0.0,0.0,0.0,0.0,0.0,0.0,0.0,0.0,0.0,0.0,0.0,0.0,0.0,0.0,0.0,0.0,0.0,0.0,0.0,0.0,0.0,0.0,0.0,0.0,0.0,0.0,0.0,0.0,0.0,0.0,0.0,0.0,0.0,0.0,0.0,0.0,0.0,0.0,0.0,0.0,0.0,0.0,0.0,0.0,0.0,0.0,0.0,0.0,0.0,0.0,0.0,0.0,0.0,0.0,0.0,0.0,0.0,0.0,0.0,0.0,0.0,0.0,0.0,0.0,0.0,0.0,0.0,0.0,0.0,0.0,0.0,0.0,0.0,0.0,0.0,0.0,0.0,0.0,0.0,0.0,0.0,0.0,0.0,0.0,0.0,0.0,0.0,0.0,0.0,0.0,0.0,0.0,0.0,0.0,0.0,0.0,0.0,0.0,0.0,0.0,0.0,-1.1972,-1.2399,-1.2607,-1.2905,-1.2906,-1.2509,-1.2027,-1.1274,-1.0309,0.0,0.0,0.0,0.0,0.0,0.0,0.0,0.0,0.0,0.0,0.0,0.0,0.0,0.0,0.0,0.0,0.0,0.0,0.0,0.0,0.0,0.0,0.0,0.0,0.0,0.0,0.0,0.0,0.0,0.0,0.0,0.0,0.0,0.0,0.0,0.0,0.0,0.0,-0.5842,-0.6302,0.0,0.0,0.0,0.0,0.0,0.0,0.0,0.0,-0.6523,0.0,0.0,0.0,0.0,0.0,0.0,0.0,0.0,0.0,0.0,0.0,0.0,0.0,0.0,0.0,0.0,0.0,0.0,0.0,0.0,0.0,0.0,0.0,0.0,0.0,0.0,0.0,0.0,0.0,0.0,0.0,0.0,0.0,0.0,0.0,0.0,0.0,0.0,0.0,0.0,0.0,0.0,0.0,0.0,0.0,0.0,0.0,0.0,0.0,0.0,0.0,0.0,0.0,0.0,0.0,0.0,-1.2032,-1.2208,-1.2551,-1.3063,-1.3302,-1.3133,-1.2538,-1.2508,-1.2017,-1.1004,0.0,0.0,0.0,0.0,0.0,0.0,0.0,0.0,0.0,0.0,0.0,0.0,0.0,0.0,0.0,0.0,0.0,0.0,0.0,0.0,0.0,0.0,0.0,0.0,0.0,0.0,0.0,0.0,0.0,0.0,0.0,0.0,0.0,0.0,0.0,0.0,0.0,0.0,0.0,-0.6286,-0.669,0.0,0.0,0.0,0.0,0.0,0.0,0.0,0.0,-0.6519,0.0,0.0,0.0,0.0,0.0,0.0,0.0,0.0,0.0,0.0,0.0,0.0,0.0,0.0,0.0,0.0,0.0,0.0,0.0,0.0,0.0,0.0,0.0,0.0,0.0,0.0,0.0,0.0,0.0,0.0,0.0,0.0,0.0,0.0,0.0,0.0,0.0,0.0,0.0,0.0,0.0,0.0,0.0,0.0,0.0,0.0,0.0,0.0,0.0,0.0,0.0,0.0,0.0,0.0,0.0,-1.1864,-1.172,-1.2048,-1.2861,-1.309,-1.2892,-1.2283,-1.2295,-1.1895,0.0,0.0,0.0,0.0,0.0,0.0,0.0,0.0,0.0,0.0,0.0,0.0,0.0,0.0,0.0,0.0,0.0,0.0,0.0,0.0,0.0,0.0,0.0,0.0,0.0,0.0,0.0,0.0,0.0,0.0,0.0,0.0,0.0,0.0,0.0,0.0,0.0,0.0,0.0,0.0,-0.6182,-0.6524,-0.6719,0.0,0.0,0.0,0.0,0.0,0.0,-0.6775,-0.6727,0.0,0.0,0.0,0.0,0.0,0.0,0.0,0.0,0.0,0.0,0.0,0.0,0.0,0.0,0.0,0.0,0.0,0.0,0.0,0.0,0.0,0.0,0.0,0.0,0.0,0.0,0.0,0.0,0.0,0.0,0.0,0.0,0.0,0.0,0.0,0.0,0.0,0.0,0.0,0.0,0.0,0.0,0.0,0.0,0.0,0.0,0.0,0.0,0.0,0.0,0.0,0.0,0.0,0.0,0.0,-1.1149,-1.0952,-1.1318,-1.2321,-1.2544,-1.2384,-1.1792,-1.1953,-1.16,0.0,0.0,0.0,0.0,0.0,0.0,0.0,0.0,0.0,0.0,0.0,0.0,0.0,0.0,0.0,0.0,0.0,0.0,0.0,0.0,0.0,0.0,0.0,0.0,0.0,0.0,0.0,0.0,0.0,0.0,0.0,0.0,0.0,0.0,0.0,0.0,0.0,0.0,0.0,0.0,0.0,-0.6477,-0.6602,-0.69,0.0,0.0,0.0,0.0,-0.6927,-0.6855,0.0,0.0,0.0,0.0,0.0,0.0,0.0,0.0,0.0,0.0,0.0,0.0,0.0,0.0,0.0,0.0,0.0,0.0,0.0,0.0,0.0,0.0,0.0,0.0,0.0,0.0,0.0,0.0,0.0,0.0,0.0,0.0,0.0,0.0,0.0,0.0,0.0,0.0,0.0,0.0,0.0,0.0,0.0,0.0,0.0,0.0,0.0,0.0,0.0,0.0,0.0,0.0,0.0,0.0,0.0,0.0,-0.9498,-0.9904,-1.0567,-1.1484,-1.1719,-1.1584,-1.1069,-1.1775,-1.1533,0.0,0.0,0.0,0.0,0.0,0.0,0.0,0.0,0.0,0.0,0.0,0.0,0.0,0.0,0.0,0.0,0.0,0.0,0.0,0.0,0.0,0.0,0.0,0.0,0.0,0.0,0.0,0.0,0.0,0.0,0.0,0.0,0.0,0.0,0.0,0.0,0.0,0.0,0.0,0.0,0.0,-0.6819,-0.6789,-0.6925,-0.7069,0.0,0.0,-0.6754,-0.6946,-0.6746,0.0,0.0,0.0,0.0,0.0,0.0,0.0,0.0,0.0,0.0,0.0,0.0,0.0,0.0,0.0,0.0,0.0,0.0,0.0,0.0,0.0,0.0,0.0,0.0,0.0,0.0,0.0,0.0,0.0,0.0,0.0,0.0,0.0,0.0,0.0,0.0,0.0,0.0,0.0,0.0,0.0,0.0,0.0,0.0,0.0,0.0,0.0,0.0,0.0,0.0,0.0,0.0,0.0,0.0,0.0,-0.8506,-0.9328,-0.9309,-0.9731,-1.068,-1.0795,-1.0577,-0.9945,-1.0301,-1.0301,0.0,0.0,0.0,0.0,0.0,0.0,0.0,0.0,0.0,0.0,0.0,0.0,0.0,0.0,0.0,0.0,0.0,0.0,0.0,0.0,0.0,0.0,0.0,0.0,0.0,0.0,0.0,0.0,0.0,0.0,0.0,0.0,0.0,0.0,0.0,0.0,0.0,0.0,0.0,0.0,0.0,0.0,-0.6753,-0.6958,0.0,0.0,0.0,-0.6893,-0.7132,0.0,0.0,0.0,0.0,0.0,0.0,0.0,0.0,0.0,0.0,0.0,0.0,0.0,0.0,0.0,0.0,0.0,0.0,0.0,0.0,0.0,0.0,0.0,0.0,0.0,0.0,0.0,0.0,0.0,0.0,0.0,0.0,0.0,0.0,0.0,0.0,0.0,0.0,0.0,0.0,0.0,0.0,0.0,0.0,0.0,0.0,0.0,0.0,0.0,0.0,0.0,0.0,0.0,0.0,0.0,0.0,0.0,-0.8725,-0.8435,-0.8734,-0.9664,-0.9696,-0.9388,-0.8823,-0.8973,0.0,0.0,0.0,0.0,0.0,0.0,0.0,0.0,0.0,0.0,0.0,0.0,0.0,0.0,0.0,0.0,0.0,0.0,0.0,0.0,0.0,0.0,0.0,0.0,0.0,0.0,0.0,-0.5086,0.0,0.0,0.0,0.0,0.0,0.0,0.0,0.0,0.0,0.0,0.0,0.0,0.0,0.0,-0.6599,-0.6713,-0.6961,-0.7137,0.0,0.0,-0.7052,-0.7306,-0.7168,-0.6951,0.0,0.0,0.0,0.0,0.0,0.0,0.0,0.0,0.0,0.0,0.0,0.0,0.0,0.0,0.0,0.0,0.0,0.0,0.0,0.0,0.0,0.0,0.0,0.0,0.0,0.0,0.0,0.0,0.0,0.0,0.0,0.0,0.0,0.0,0.0,0.0,0.0,0.0,0.0,0.0,0.0,0.0,0.0,0.0,0.0,0.0,0.0,0.0,0.0,0.0,0.0,0.0,0.0,0.0,0.0,-0.679,-0.6942,-0.7504,-0.8385,-0.831,-0.8058,-0.7735,-0.8312,-0.8245,0.0,0.0,0.0,0.0,0.0,0.0,0.0,0.0,0.0,0.0,0.0,0.0,0.0,0.0,0.0,0.0,0.0,0.0,0.0,0.0,0.0,0.0,0.0,0.0,0.0,0.0,0.0,0.0,0.0,0.0,0.0,0.0,0.0,0.0,0.0,0.0,0.0,0.0,0.0,0.0,0.0,-0.6706,-0.6785,-0.6911,-0.7139,0.0,0.0,-0.7007,-0.7327,-0.7223,-0.7014,-0.6753,0.0,0.0,0.0,0.0,0.0,0.0,0.0,0.0,0.0,0.0,0.0,0.0,0.0,0.0,0.0,0.0,0.0,0.0,0.0,0.0,0.0,0.0,0.0,0.0,0.0,0.0,0.0,0.0,0.0,0.0,0.0,0.0,0.0,0.0,0.0,0.0,0.0,0.0,0.0,0.0,0.0,0.0,0.0,0.0,0.0,0.0,0.0,0.0,0.0,0.0,0.0,0.0,0.0,-0.6316,-0.6885,-0.6989,-0.7261,-0.7707,-0.7688,-0.7453,-0.6995,-0.7158,-0.722,0.0,0.0,0.0,0.0,0.0,0.0,0.0,0.0,0.0,0.0,0.0,0.0,0.0,0.0,0.0,0.0,0.0,0.0,0.0,0.0,0.0,0.0,0.0,0.0,0.0,0.0,0.0,0.0,-0.5056,-0.5052,-0.5147,0.0,0.0,0.0,0.0,0.0,0.0,0.0,0.0,0.0,0.0,-0.6492,-0.6766,-0.685,0.0,0.0,-0.6967,-0.6843,-0.6887,-0.686,-0.6812,-0.6655,-0.6679,0.0,0.0,0.0,0.0,0.0,0.0,0.0,0.0,0.0,0.0,0.0,0.0,0.0,0.0,0.0,0.0,0.0,0.0,0.0,0.0,0.0,0.0,0.0,0.0,0.0,0.0,0.0,0.0,0.0,0.0,0.0,0.0,0.0,0.0,0.0,0.0,0.0,0.0,0.0,0.0,0.0,0.0,0.0,0.0,0.0,0.0,0.0,0.0,0.0,0.0,0.0,0.0,-0.6285,-0.6911,-0.6948,-0.7054,-0.723,-0.7177,-0.6944,-0.6527,-0.6324,-0.6387,0.0,0.0,0.0,0.0,0.0,0.0,0.0,0.0,0.0,0.0,0.0,0.0,0.0,0.0,0.0,0.0,0.0,0.0,0.0,0.0,0.0,0.0,0.0,0.0,0.0,0.0,0.0,0.0,-0.492,-0.4904,-0.499,0.0,0.0,0.0,0.0,0.0,0.0,0.0,0.0,0.0,0.0,-0.6378,-0.6735,-0.6759,-0.6771,-0.6903,-0.6845,-0.6757,-0.6666,-0.6709,-0.6687,-0.6507,0.0,0.0,0.0,0.0,0.0,0.0,0.0,0.0,0.0,0.0,0.0,0.0,0.0,0.0,0.0,0.0,0.0,0.0,0.0,0.0,0.0,0.0,0.0,0.0,0.0,0.0,0.0,0.0,0.0,0.0,-0.8208,0.0,0.0,0.0,0.0,0.0,0.0,0.0,0.0,0.0,0.0,0.0,0.0,0.0,0.0,0.0,0.0,0.0,0.0,0.0,0.0,0.0,0.0,-0.6361,-0.6515,-0.6651,-0.6773,-0.6887,-0.6654,-0.6453,-0.6296,-0.5981,-0.582,-0.5831,0.0,0.0,0.0,0.0,0.0,0.0,0.0,0.0,0.0,0.0,0.0,0.0,0.0,0.0,0.0,0.0,0.0,0.0,0.0,0.0,0.0,0.0,0.0,0.0,0.0,0.0,-0.5001,-0.4996,-0.4996,0.0,0.0,0.0,0.0,0.0,0.0,0.0,0.0,0.0,0.0,-0.6227,-0.643,-0.6628,-0.6624,-0.664,-0.7077,-0.6937,-0.6797,-0.6773,-0.6785,-0.6677,0.0,0.0,0.0,0.0,0.0,0.0,0.0,0.0,0.0,0.0,0.0,0.0,0.0,0.0,0.0,0.0,0.0,0.0,0.0,0.0,0.0,0.0,0.0,0.0,0.0,0.0,0.0,-0.8646,-0.8326,0.0,0.0,0.0,0.0,0.0,0.0,0.0,0.0,0.0,0.0,0.0,-0.5232,-0.5091,0.0,0.0,0.0,0.0,0.0,0.0,0.0,0.0,0.0,0.0,0.0,0.0,-0.603,-0.6169,-0.6308,-0.6388,-0.6426,-0.6246,-0.6106,-0.5984,-0.5695,-0.5502,-0.5395,0.0,0.0,0.0,0.0,0.0,0.0,0.0,0.0,0.0,0.0,0.0,0.0,0.0,0.0,0.0,0.0,0.0,0.0,0.0,0.0,0.0,0.0,0.0,0.0,0.0,-0.5028,0.0,0.0,0.0,0.0,0.0,0.0,0.0,0.0,0.0,0.0,0.0,-0.5325,-0.5514,-0.5164,-0.4934,-0.5138,-0.4709,-0.4621,0.0,0.0,0.0,0.0,0.0,0.0,0.0,0.0,0.0,0.0,0.0,0.0,0.0,0.0,-0.529,-0.6197,-0.5714,-0.5069,-0.4919,0.0,0.0,0.0,0.0,0.0,0.0,0.0,0.0,0.0,0.0,0.0,0.0,0.0,0.0,-0.7471,0.0,-0.6903,0.0,0.0,0.0,0.0,0.0,0.0,0.0,0.0,-0.5109,-0.51,-0.5006,-0.4922,-0.4924,0.0,-0.4872,-0.4909,0.0,0.0,0.0,0.0,0.0,0.0,0.0,0.0,-0.6017,-0.6151,-0.6285,-0.6333,-0.6323,-0.6178,-0.5996,-0.588,-0.5556,-0.5331,-0.5195,-0.5176,-0.5155,0.0,0.0,0.0,0.0,0.0,0.0,0.0,0.0,0.0,0.0,0.0,0.0,0.0,0.0,0.0,0.0,0.0,0.0,0.0,0.0,0.0,0.0,0.0,-0.4843,0.0,0.0,0.0,0.0,0.0,0.0,0.0,0.0,0.0,-0.4476,-0.4202,-0.3977,-0.4181,-0.3794,-0.3575,-0.3687,0.0,0.0,0.0,0.0,0.0,0.0,0.0,-0.5282,-0.5065,-0.5396,-0.5543,-0.5113,-0.5322,-0.5417,-0.4972,0.0,0.0,-0.5372,-0.4545,-0.3688,-0.3667,-0.2544,-0.1772,-0.2226,-0.166,-0.1248,0.0,0.0,0.0,0.0,0.0,0.0,0.0,0.0,-0.6359,-0.5782,0.0,-0.4889,0.0,0.0,0.0,0.0,0.0,-0.5291,0.0,0.0,-0.496,-0.4998,-0.4978,-0.4978,-0.4978,-0.4995,-0.4975,-0.4926,-0.482,-0.4869,0.0,0.0,0.0,0.0,0.0,0.0,-0.6247,-0.6365,-0.6501,-0.6568,-0.6556,-0.6314,-0.6114,-0.5966,-0.5588,-0.5328,-0.5222,-0.5291,-0.5316,-0.5195,-0.5313,0.0,0.0,0.0,0.0,0.0,0.0,0.0,0.0,0.0,0.0,0.0,0.0,0.0,0.0,0.0,0.0,0.0,0.0,0.0,0.0,-0.4531,0.0,0.0,0.0,0.0,0.0,0.0,0.0,0.0,0.0,0.0,-0.3461,-0.2806,-0.2177,-0.2202,0.0,0.0,0.0,0.0,-0.2293,-0.2343,-0.2234,-0.2185,-0.2262,-0.3136,-0.3455,-0.2349,0.0,0.0,-0.2359,-0.3315,-0.3788,-0.2395,-0.3133,-0.4036,-0.4255,-0.3138,-0.2251,-0.2307,-0.2086,-0.195,-0.1854,-0.1082,-0.052,-0.6531,0.0,0.0,0.0,0.0,-0.6229,-0.6074,-0.594,-0.5728,-0.5465,-0.5201,-0.4993,0.0,0.0,0.0,0.0,0.0,0.0,-0.503,-0.4866,-0.4918,-0.4862,-0.4724,-0.4727,-0.4703,-0.4727,-0.4727,-0.4758,-0.4859,-0.4731,-0.4855,-0.5189,0.0,0.0,0.0,0.0,-0.5845,-0.6037,-0.618,-0.62,-0.6084,-0.5914,-0.5757,-0.5562,-0.5286,-0.514,-0.5185,-0.5059,-0.4989,-0.5042,-0.5101,0.0,0.0,0.0,0.0,0.0,0.0,0.0,0.0,0.0,0.0,0.0,0.0,0.0,0.0,0.0,0.0,0.0,0.0,0.0,-0.4688,-0.4488,-0.4424,0.0,0.0,0.0,0.0,0.0,0.0,0.0,0.0,0.0,-0.2194,-0.1962,-0.1723,0.0,0.0,-0.0982,-0.0982,-0.0434,-0.0334,-0.1131,-0.1163,0.0,0.0,-0.3174,-0.3482,-0.2531,-0.2684,-0.2831,-0.2594,-0.2691,-0.2668,-0.2189,-0.1605,-0.1194,-0.1278,-0.125,-0.1145,-0.1124,-0.055,0.0026,0.0104,0.0315,0.0476,-0.5375,-0.5223,-0.5367,-0.5419,-0.5389,-0.5316,-0.5303,-0.5295,-0.5138,-0.5076,-0.5049,-0.4909,-0.4906,-0.503,-0.5025,0.0,0.0,0.0,-0.4941,-0.4804,-0.478,-0.4711,-0.4619,-0.4619,-0.4619,-0.4619,-0.4619,-0.4666,-0.478,-0.4646,-0.4716,-0.4951,0.0,0.0,-0.5427,-0.5471,-0.5561,-0.5717,-0.5812,-0.586,-0.5881,-0.5773,-0.5618,-0.5445,-0.5257,-0.5189,-0.5272,-0.5075,-0.4988,-0.508,-0.4961,-0.4879,0.0,0.0,0.0,0.0,0.0,0.0,0.0,0.0,0.0,0.0,0.0,-0.4681,0.0,0.0,0.0,0.0,-0.4382,-0.4385,-0.442,-0.4262,0.0,0.0,0.0,0.0,0.0,0.0,0.0,-0.3334,-0.1849,-0.1029,-0.1664,-0.1265,-0.1079,-0.1537,-0.1217,-0.0891,-0.0917,0.0,-0.0445,-0.1152,-0.1214,-0.144,-0.2154,-0.3049,-0.3494,-0.2951,-0.2086,-0.158,-0.1615,-0.1447,-0.1166,-0.0697,-0.025,0.0166,0.0635,0.0492,0.027,0.0267,0.0751,0.1188,0.1239,0.1276,0.1253,-0.5204,-0.5169,-0.5469,-0.5507,-0.5355,-0.5179,-0.503,-0.4895,-0.4703,-0.4671,-0.471,-0.4646,-0.4792,-0.5081,-0.5329,0.0,-0.489,-0.5004,-0.4881,-0.4617,-0.4617,-0.4617,-0.4617,-0.4617,-0.4617,-0.4619,-0.4617,-0.4617,-0.4619,-0.4609,-0.4702,-0.4888,-0.4831,-0.4966,-0.528,-0.5294,-0.537,-0.5498,-0.5525,-0.5616,-0.5844,-0.5727,-0.5614,-0.5472,-0.5389,-0.5356,-0.5345,-0.52,-0.5133,-0.5127,-0.4853,-0.4662,-0.4662,0.0,0.0,0.0,0.0,0.0,0.0,0.0,0.0,0.0,0.0,0.0,0.0,0.0,0.0,0.0,-0.427,0.0,-0.4027,-0.4014,0.0,0.0,0.0,-0.4277,-0.4344,-0.3532,-0.2978,-0.2978,0.0,0.0,-0.1575,-0.0634,-0.0335,-0.1369,-0.1488,-0.1426,-0.1426,-0.1369,-0.1572,-0.1385,-0.1601,-0.1682,-0.1663,-0.2568,-0.3299,-0.3261,-0.1644,-0.0434,-0.0334,-0.0305,0.0276,0.1006,0.0645,0.028,0.143,0.1539,0.1778,0.1643,0.1661,0.1722,0.1747,0.1755,0.1756,-0.5364,-0.534,-0.5408,-0.5349,-0.5168,-0.5116,-0.5078,-0.5051,-0.4933,-0.4874,-0.4775,-0.469,-0.4697,-0.4723,-0.4795,-0.4798,-0.4748,-0.4771,-0.4779,-0.4746,-0.4746,-0.4748,-0.4748,-0.4746,-0.4746,-0.4773,-0.4746,-0.4748,-0.4744,-0.4708,-0.4732,-0.481,-0.4763,-0.4971,-0.5422,-0.5255,-0.5301,-0.5576,-0.5576,-0.5587,-0.5586,-0.5476,-0.5342,-0.5212,-0.5027,-0.4912,-0.487,-0.4701,-0.4597,-0.4577,-0.4516,-0.4484,-0.4484,-0.4483,0.0,0.0,0.0,0.0,0.0,0.0,0.0,0.0,0.0,-0.4577,-0.4479,0.0,-0.4261,0.0,-0.416,-0.4209,-0.4228,-0.4214,0.0,0.0,-0.4006,-0.3793,-0.3913,-0.2739,-0.1897,-0.1897,-0.047,0.0227,-0.0536,0.0129,0.0312,-0.0655,0.0158,0.0899,0.0899,0.1074,0.114,0.0815,0.0219,-0.0166,-0.0553,-0.1438,-0.248,-0.3277,-0.2252,-0.1415,-0.137,-0.1368,-0.1254,-0.0951,-0.0364,0.0056,0.0448,0.1149,0.1763,0.1776,0.1773,0.1775,0.181,0.1812,0.1812,-0.5409,-0.5409,-0.5409,-0.53,-0.5142,-0.5142,-0.5118,-0.5104,-0.5053,-0.5004,-0.4929,-0.4882,-0.4836,-0.4777,-0.4775,-0.4755,-0.474,-0.474,-0.4765,-0.4782,-0.4782,-0.4782,-0.4782,-0.4782,-0.4782,-0.4782,-0.4782,-0.4782,-0.4782,-0.4763,-0.4763,-0.4782,-0.4763,-0.4889,-0.5158,-0.5035,-0.5061,-0.5236,-0.5363,-0.539,-0.5316,-0.531,-0.5254,-0.519,-0.4992,-0.4855,-0.4839,-0.4682,-0.4555,-0.4547,-0.4422,-0.4362,-0.4342,-0.4317,-0.4226,0.0,0.0,0.0,0.0,0.0,0.0,0.0,0.0,0.0,0.0,0.0,-0.4075,-0.384,-0.3674,-0.3611,-0.3696,-0.3707,-0.3724,-0.3767,-0.3542,-0.3412,-0.3469,-0.2772,-0.226,-0.2259,-0.1077,-0.0431,-0.093,0.0104,0.0712,0.0188,0.1274,0.1767,0.081,0.0737,0.0772,0.0607,0.0195,-0.0336,-0.0896,-0.154,-0.2316,-0.3128,-0.2197,-0.1288,-0.1681,-0.1345,-0.1457,-0.2858,-0.1233,0.0561,0.0617,0.143,0.2188,0.2188,0.2188,0.2103,0.1851,0.1795,0.1795,-0.5184,-0.5156,-0.5184,-0.5111,-0.4988,-0.4988,-0.504,-0.5108,-0.5028,-0.4949,-0.4869,-0.4856,-0.4837,-0.4791,-0.4779,-0.4706,-0.4611,-0.4583,-0.4583,-0.4583,-0.4609,-0.4611,-0.4609,-0.4609,-0.4583,-0.4583,-0.4659,-0.4659,-0.4609,-0.4659,-0.4711,-0.4686,-0.4686,-0.4734,-0.4782,-0.4782,-0.4782,-0.4782,-0.5012,-0.5126,-0.5065,-0.5161,-0.5223,-0.5202,-0.4997,-0.4896,-0.4857,-0.4742,-0.4652,-0.4608,-0.4392,-0.4273,-0.4239,-0.4116,-0.4044,0.0,-0.4044,0.0,0.0,0.0,0.0,0.0,0.0,0.0,0.0,-0.401,-0.3872,-0.3551,-0.3078,-0.2865,-0.2991,-0.3002,-0.298,-0.3012,-0.3011,-0.2996,-0.3004,-0.2998,-0.2978,-0.3004,-0.2197,-0.1577,-0.1348,0.0079,0.1288,0.142,0.2188,0.2169,0.033,-0.0028,-0.0028,-0.0419,-0.0699,-0.0979,-0.1847,-0.2268,-0.2631,-0.308,-0.2154,-0.1092,-0.1737,-0.1065,-0.1346,-0.3706,-0.1486,0.1093,0.1234,0.1991,0.2637,0.2637,0.2637,0.2496,0.2104,0.1963,0.1907,-0.3923,-0.3951,-0.3951,-0.3943,-0.3905,-0.3905,-0.4358,-0.5057,-0.4578,-0.4098,-0.3641,-0.3616,-0.3611,-0.3595,-0.3547,-0.3519,-0.3506,-0.3506,-0.3507,-0.3507,-0.3506,-0.3507,-0.3507,-0.3506,-0.3506,-0.3531,-0.3934,-0.3934,-0.3506,-0.3934,-0.4158,-0.4158,-0.4158,-0.4383,-0.4759,0.0,0.0,0.0,-0.486,-0.4876,-0.4858,-0.4824,-0.4793,-0.4735,-0.4485,0.0,-0.4193,-0.4101,-0.4045,-0.4052,-0.4149,0.0,0.0,0.0,0.0,0.0,0.0,0.0,0.0,0.0,0.0,0.0,-0.3368,-0.3315,-0.3706,-0.3375,-0.3116,-0.3049,-0.2992,-0.2976,-0.2999,-0.3002,-0.3022,-0.3044,-0.2716,-0.2466,-0.2503,-0.2167,-0.1894,-0.1869,-0.0588,0.0363,0.0448,0.1935,0.2979,0.2941,0.33,0.3246,0.2733,0.229,0.2212,0.1989,0.056,-0.0839,-0.2016,-0.2716,-0.2773,-0.2688,-0.2913,-0.266,-0.2155,-0.1932,-0.1735,-0.2799,-0.0728,0.1007,0.1007,0.1906,0.2718,0.2692,0.2692,0.2665,0.2553,0.2524,0.2524,-0.3587,0.0,-0.3587,-0.3587,0.0,-0.3587,-0.3884,-0.4342,-0.4041,-0.3697,-0.3392,-0.3413,-0.3386,-0.3358,-0.3328,-0.3274,-0.3247,-0.3271,-0.3232,-0.3206,-0.3235,-0.3247,-0.3246,-0.3247,-0.3271,-0.3244,-0.3495,-0.3457,-0.3205,-0.3457,-0.3607,-0.3607,-0.3607,-0.3732,-0.4008,-0.4284,-0.4533,-0.4782,-0.4782,-0.4782,-0.478,-0.4728,-0.4663,-0.4634,0.0,0.0,0.0,0.0,0.0,0.0,0.0,0.0,0.0,0.0,0.0,-0.3932,-0.3942,-0.3849,-0.3613,-0.339,-0.3261,-0.3304,-0.284,-0.277,-0.3332,-0.284,-0.2569,-0.2592,-0.2427,-0.2306,-0.2303,-0.2305,-0.2315,-0.2337,-0.2115,-0.1974,-0.1965,-0.1768,-0.1592,-0.1491,-0.0509,0.0412,0.0917,0.2028,0.2825,0.29,0.2899,0.2744,0.2382,0.2493,0.2464,0.1935,0.1457,0.0364,-0.0952,-0.1233,-0.1681,-0.1877,-0.2017,-0.201,-0.2023,-0.1616,-0.1311,-0.1209,0.0247,0.1518,0.1588,0.2365,0.3102,0.3105,0.3123,0.3128,0.3083,0.2873,0.2693,-0.3279,-0.3279,-0.3281,-0.3279,-0.3279,-0.3278,-0.3279,-0.3279,0.0,0.0,0.0,-0.3206,-0.3155,-0.3126,-0.3081,-0.3074,-0.3006,-0.3032,-0.2982,-0.2945,-0.2996,-0.3019,-0.3018,-0.3035,-0.303,-0.3029,-0.3054,-0.3004,-0.2928,-0.3004,-0.3054,-0.3055,-0.309,-0.3119,-0.3244,-0.3638,-0.4083,-0.4508,-0.4709,-0.4782,-0.478,-0.4728,-0.4708,-0.4708,-0.4507,-0.4377,-0.4326,-0.4322,-0.4283,-0.4204,-0.4227,-0.4203,-0.4169,-0.4111,-0.3895,-0.3535,-0.349,-0.3333,-0.2947,-0.2835,-0.2767,-0.2774,-0.2356,-0.2282,-0.2695,-0.2344,-0.2098,-0.218,-0.1822,-0.159,-0.1589,-0.1592,-0.1592,-0.1592,-0.1592,-0.1591,-0.1592,-0.1597,-0.1599,-0.1518,-0.0867,-0.0129,0.0547,0.1431,0.1966,0.1971,0.1967,0.1645,0.1005,0.1425,0.1709,0.1177,0.1173,0.1058,0.0056,-0.0222,-0.0139,-0.1302,-0.1054,-0.0912,-0.1232,-0.0909,-0.0466,-0.0564,0.0998,0.1945,0.2168,0.2804,0.3454,0.3481,0.3519,0.3545,0.3485,0.3143,0.2862,-0.2047,-0.2047,-0.2047,-0.2047,-0.2047,-0.2047,-0.2047,-0.2075,-0.2609,-0.2549,-0.2037,-0.2031,-0.2042,-0.2012,-0.1954,-0.1925,-0.1921,-0.1921,-0.1918,-0.1916,-0.1921,-0.1937,-0.1934,-0.1934,-0.1921,-0.1944,-0.2318,-0.2271,-0.1919,-0.2297,-0.2522,-0.2528,-0.2563,-0.2841,-0.3248,-0.3304,-0.3355,-0.343,-0.4332,-0.4782,-0.4782,-0.4728,-0.4708,-0.4702,-0.4485,-0.4384,-0.4395,-0.437,-0.4375,-0.4289,-0.407,-0.3889,-0.3713,-0.3392,-0.3141,-0.3094,-0.307,-0.3051,-0.2987,-0.2563,-0.2155,-0.1831,-0.1739,-0.1682,-0.1699,-0.1695,-0.1689,-0.1695,-0.1619,-0.1586,-0.1592,-0.1592,-0.1592,-0.1592,-0.1592,-0.1592,-0.1594,-0.1666,-0.1672,-0.1598,-0.0895,-0.0402,-0.0132,0.0564,0.1091,0.108,0.0991,0.074,0.0137,0.0528,0.098,0.0839,0.036,-0.0082,-0.0466,-0.0975,-0.0997,-0.0617,-0.1156,-0.1264,-0.0883,-0.0591,-0.0402,-0.0399,0.0959,0.1974,0.218,0.2828,0.3293,0.3401,0.3447,0.3459,0.3482,0.3359,0.3295,-0.1795,-0.1795,-0.1795,-0.1804,-0.1791,-0.1792,-0.1791,-0.1818,-0.2084,-0.2065,-0.1823,-0.1766,-0.1761,-0.1801,-0.1776,-0.1736,-0.1763,-0.1763,-0.1727,-0.1714,-0.1742,-0.1756,-0.1755,-0.1742,-0.1736,-0.1761,-0.194,-0.1888,-0.1695,-0.1914,-0.2018,-0.2028,-0.206,-0.233,-0.2826,-0.2832,-0.2962,-0.3245,-0.3718,-0.3934,-0.393,-0.3902,-0.3867,-0.385,-0.402,-0.3963,-0.3667,-0.3921,-0.3928,-0.3592,-0.3488,-0.3367,-0.3269,-0.3105,-0.2883,-0.2598,-0.2574,-0.2466,-0.2251,-0.203,-0.1804,-0.162,-0.1584,-0.1581,-0.1553,-0.1588,-0.1596,-0.1596,-0.1584,-0.1592,-0.1592,-0.1592,-0.1592,-0.1592,-0.1631,-0.1641,-0.1644,-0.1667,-0.1673,-0.165,-0.1362,-0.0924,-0.0441,0.0,0.0239,0.0161,-0.0161,-0.0646,-0.1024,-0.076,-0.0491,-0.0463,-0.0054,-0.0135,-0.0889,-0.0991,-0.1039,-0.1038,-0.1438,-0.1512,-0.1107,-0.0793,-0.0449,-0.0338,0.0651,0.1566,0.1946,0.2375,0.2817,0.3358,0.3441,0.3461,0.3451,0.3405,0.3399,-0.2685,-0.2647,-0.2648,-0.2668,-0.2642,-0.2642,-0.2642,-0.2637,-0.2652,-0.2613,-0.2552,-0.2005,-0.1738,-0.1813,-0.1807,-0.1804,-0.1804,-0.1804,-0.1763,-0.1719,-0.1773,-0.1787,-0.1814,-0.1808,-0.1804,-0.1801,-0.1746,-0.1719,-0.1703,-0.172,-0.1697,-0.1738,-0.1697,-0.1907,-0.2338,-0.2332,-0.253,-0.2922,-0.2902,-0.2983,-0.3224,-0.3213,-0.3182,-0.314,-0.3503,-0.3528,-0.3093,-0.345,-0.3466,-0.3046,-0.2926,-0.2854,-0.2829,-0.2734,-0.25,-0.2101,-0.2055,-0.1922,-0.1654,-0.1578,-0.1592,-0.1592,-0.1592,-0.1592,-0.1592,-0.1592,-0.1592,-0.1592,-0.1591,-0.1592,-0.1592,-0.1592,-0.1592,-0.1594,-0.1644,-0.1682,-0.1682,-0.1709,-0.169,-0.1687,-0.1689,-0.1402,-0.0871,-0.0643,-0.0623,-0.0782,-0.129,-0.1675,-0.1697,-0.1722,-0.172,-0.1424,-0.0475,-0.0265,-0.1456,-0.1185,-0.1051,-0.1605,-0.1682,-0.1645,-0.1504,-0.1044,-0.0756,-0.0663,-0.0026,0.0692,0.1318,0.1657,0.2095,0.2775,0.3013,0.3168,0.3318,0.3354,0.3354,-0.5298,-0.5264,-0.5136,-0.5235,-0.5155,-0.5157,-0.5127,-0.5146,-0.5094,-0.5053,-0.4731,-0.2789,-0.1842,-0.1787,-0.1818,-0.1806,-0.1806,-0.1804,-0.1804,-0.1776,-0.1804,-0.1791,-0.1814,-0.179,-0.1804,-0.1802,-0.1721,-0.1707,-0.1701,-0.1704,-0.1743,-0.1763,-0.1717,-0.1771,-0.187,-0.1824,-0.1812,-0.1864,-0.1832,-0.2313,-0.3229,-0.3232,-0.3202,-0.3198,-0.3222,-0.3245,-0.3106,-0.3239,-0.3187,-0.3064,-0.2664,-0.2445,-0.2324,-0.1982,-0.1727,-0.1655,-0.1657,-0.1636,-0.1587,-0.159,-0.1592,-0.1592,-0.1592,-0.1592,-0.1592,-0.1592,-0.1592,-0.1592,-0.1592,-0.1592,-0.1592,-0.1592,-0.1592,-0.1593,-0.1672,-0.1677,-0.1637,-0.1644,-0.1657,-0.1626,-0.1666,-0.1663,-0.1476,-0.1396,-0.1452,-0.1346,-0.144,-0.1582,-0.1618,-0.1614,-0.1606,-0.159,-0.139,-0.1404,-0.1638,-0.1616,-0.1456,-0.1605,-0.1602,-0.1602,-0.1553,-0.1551,-0.1469,-0.1168,-0.0835,-0.0228,0.0076,0.0379,0.119,0.1919,0.2234,0.2346,0.2988,0.3247,0.3322,-0.5536,-0.5503,-0.5472,-0.5477,-0.5465,-0.5498,-0.5498,-0.5459,-0.5428,-0.5389,-0.5306,-0.4331,-0.3553,-0.2827,-0.2143,-0.1804,-0.1804,-0.1804,-0.1804,-0.1805,-0.1789,-0.1795,-0.1793,-0.181,-0.1804,-0.1803,-0.1763,-0.1776,-0.176,-0.1785,-0.1765,-0.1804,-0.1755,-0.1783,-0.1806,-0.1783,-0.1757,-0.1757,-0.1767,-0.1994,-0.2351,-0.234,-0.2308,-0.2338,-0.2616,-0.2602,-0.2352,-0.2549,-0.2565,-0.2247,-0.2047,-0.1921,-0.1896,-0.1698,-0.1579,-0.159,-0.1592,-0.1592,-0.1592,-0.1592,-0.1592,-0.1592,-0.1592,-0.1592,-0.1592,-0.1592,-0.1592,-0.1592,-0.1592,-0.1592,-0.1592,-0.1592,-0.1592,-0.1598,-0.1658,-0.1701,-0.1675,-0.1722,-0.1736,-0.1656,-0.1664,-0.1617,-0.1437,-0.1252,-0.1175,-0.1176,-0.1158,-0.1185,-0.1176,-0.1175,-0.1146,-0.114,-0.1171,-0.1327,-0.1532,-0.1627,-0.1592,-0.1592,-0.1592,-0.1592,-0.1566,-0.1592,-0.1592,-0.1592,-0.1263,-0.0859,-0.0404,-0.0202,0.0354,0.1042,0.1358,0.1486,0.1794,0.2249,0.2518,-0.646,-0.6471,-0.6465,-0.6497,-0.651,-0.6544,-0.6537,-0.6498,-0.6454,-0.6419,-0.6311,-0.6031,-0.5391,-0.4474,-0.3302,-0.2633,-0.2325,-0.2298,-0.2102,-0.1851,-0.1795,-0.1795,-0.1795,-0.1795,-0.1795,-0.1795,-0.1793,-0.1811,-0.1792,-0.179,-0.179,-0.1794,-0.1812,-0.1812,-0.1794,-0.1814,-0.1795,-0.1793,-0.18,-0.179,-0.1814,-0.174,-0.1734,-0.1745,-0.2076,-0.2059,-0.1643,-0.1994,-0.1994,-0.1617,-0.1592,-0.1592,-0.1592,-0.1592,-0.1592,-0.1592,-0.1592,-0.1592,-0.1592,-0.1592,-0.1592,-0.1592,-0.1592,-0.1592,-0.1592,-0.1592,-0.1592,-0.1592,-0.1592,-0.1592,-0.1592,-0.1592,-0.1592,-0.162,-0.1663,-0.168,-0.1578,-0.1616,-0.1597,-0.1478,-0.139,-0.136,-0.1115,-0.0935,-0.0835,-0.0835,-0.0809,-0.0783,-0.0783,-0.0809,-0.0809,-0.0783,-0.0808,-0.096,-0.1313,-0.144,-0.144,-0.1415,-0.1389,-0.1465,-0.1491,-0.1465,-0.1566,-0.1541,-0.1566,-0.1491,-0.1061,-0.0733,-0.0405,0.0282,0.0696,0.0825,0.1076,0.1561,0.1843,-0.9161,-0.8997,-0.9149,-0.9045,-0.9197,-0.9199,-0.9248,-0.8919,-0.8935,-0.8835,-0.8445,-0.7521,-0.6988,-0.6818,-0.5738,-0.4613,-0.3636,-0.3525,-0.2995,-0.2074,-0.1907,-0.1823,-0.1795,-0.1795,-0.1795,-0.1795,-0.1795,-0.1794,-0.1793,-0.1791,-0.1793,-0.1793,-0.1796,-0.1795,-0.1791,-0.1795,-0.1795,-0.1795,-0.1791,-0.1791,-0.1791,-0.179,-0.1774,-0.1702,-0.1742,-0.173,-0.1624,-0.1618,-0.1618,-0.1592,-0.1594,-0.1593,-0.1592,-0.1618,-0.1594,-0.1619,-0.1618,-0.1592,-0.1594,-0.1592,-0.1592,-0.1592,-0.1592,-0.1592,-0.1592,-0.1592,-0.1592,-0.1592,-0.1592,-0.1592,-0.1592,-0.1592,-0.1592,-0.1594,-0.1645,-0.1548,-0.1269,-0.1317,-0.1161,-0.0967,-0.0913,-0.0887,-0.0809,-0.0808,-0.0732,-0.0732,-0.0758,-0.0758,-0.0707,-0.0758,-0.0732,-0.0732,-0.0732,-0.0808,-0.0859,-0.1061,-0.1086,-0.1061,-0.1136,-0.1212,-0.1212,-0.1237,-0.1364,-0.1465,-0.1465,-0.1465,-0.1516,-0.1339,-0.0985,-0.0407,0.0257,0.0488,0.0331,0.1435,0.1642,-0.9322,-0.9214,-0.924,-0.9292,-0.926,-0.9198,-0.9198,-0.925,-0.9079,-0.8963,-0.885,-0.8581,-0.8376,-0.8248,-0.808,-0.6776,-0.4868,-0.4749,-0.45,-0.4026,-0.3302,-0.294,-0.2884,-0.2214,-0.1795,-0.1795,-0.1795,-0.1805,-0.1792,-0.1805,-0.1806,-0.1794,-0.1796,-0.1786,-0.1802,-0.1814,-0.1787,-0.1797,-0.1795,-0.1795,-0.1795,-0.1795,-0.1797,-0.1776,-0.1772,-0.1731,-0.1674,-0.1647,-0.1665,-0.1647,-0.1646,-0.1662,-0.1622,-0.1635,-0.1671,-0.1672,-0.1672,-0.1672,-0.1669,-0.1628,-0.1592,-0.1592,-0.1592,-0.1592,-0.1592,-0.1592,-0.1592,-0.1592,-0.1592,-0.1592,-0.1592,-0.1592,-0.1592,-0.157,-0.1489,-0.1392,-0.1223,-0.1129,-0.098,-0.0812,-0.0682,-0.0556,-0.0505,-0.0404,-0.0303,-0.0303,0.0,0.0,0.0,0.0,0.0,0.0,-0.0303,-0.0278,-0.0303,-0.0682,-0.0884,-0.0859,-0.0909,-0.0934,-0.0934,-0.0934,-0.1035,-0.1111,-0.1162,-0.1187,-0.1162,-0.1237,-0.101,-0.081,-0.0153,-0.0153,-0.0506,0.0592,0.0669,-0.9352,-0.9271,-0.9308,-0.9328,-0.9322,-0.9217,-0.9252,-0.9322,-0.9198,-0.9075,-0.9045,-0.9141,-0.91,-0.8967,-0.9195,-0.8426,-0.6682,-0.628,-0.5868,-0.5367,-0.458,-0.4217,-0.4001,-0.2967,-0.2389,-0.2315,-0.195,-0.1788,-0.1796,-0.1787,-0.1787,-0.1796,-0.1806,-0.1797,-0.1804,-0.1787,-0.1814,-0.1798,-0.1795,-0.1795,-0.1795,-0.1795,-0.1813,-0.1795,-0.1792,-0.1772,-0.1707,-0.1704,-0.1718,-0.172,-0.1697,-0.1688,-0.1637,-0.1677,-0.1714,-0.1714,-0.1678,-0.1678,-0.1683,-0.1659,-0.1592,-0.1592,-0.1592,-0.1592,-0.1592,-0.1592,-0.1592,-0.1592,-0.1592,-0.1592,-0.1491,-0.1465,-0.1465,-0.1442,-0.1278,-0.1102,-0.0963,-0.0817,-0.069,-0.0532,-0.0379,-0.0278,0.0,-0.0101,0.0,0.0,0.0,0.0,0.0,0.0,0.0,0.0,0.0,0.0,0.0,0.0,0.0,0.0,0.0,-0.0657,-0.0657,-0.0657,-0.0707,-0.0758,-0.0783,-0.0783,-0.0859,-0.096,-0.0934,-0.0833,-0.0734,-0.0608,-0.0556,-0.0278,-0.0127,-0.942,-0.9427,-0.954,-0.9578,-0.9581,-0.9656,-0.9696,-0.9581,-0.9561,-0.9378,-0.9203,-0.9231,-0.9155,-0.8994,-0.9213,-0.9131,-0.8751,-0.7971,-0.6984,-0.5855,-0.5662,-0.5542,-0.539,-0.4217,-0.3537,-0.3404,-0.2383,-0.1853,-0.1805,-0.1795,-0.1796,-0.1808,-0.18,-0.1797,-0.1795,-0.1801,-0.18,-0.1795,-0.1795,-0.1795,-0.1795,-0.1795,-0.1793,-0.1792,-0.1789,-0.1762,-0.1709,-0.1709,-0.1726,-0.1702,-0.1715,-0.1715,-0.1686,-0.1712,-0.1714,-0.1685,-0.1636,-0.1636,-0.1681,-0.1635,-0.1592,-0.1592,-0.1592,-0.1592,-0.1592,-0.1592,-0.1592,-0.1592,-0.1566,-0.1491,-0.1263,-0.1187,-0.1162,-0.1187,-0.0963,-0.0709,-0.0531,-0.0429,-0.0303,0.0,0.0,0.0,0.0,0.0,0.0,0.0,0.0,0.0,0.0,0.0,0.0,0.0,0.0,0.0,0.0,0.0,0.0,0.0,0.0,-0.0404,-0.0404,-0.0404,-0.0455,-0.0505,-0.0556,-0.0556,-0.0556,-0.0657,-0.0707,-0.0657,-0.0758,-0.0783,-0.0581,-0.0354,-0.038,-0.9625,-0.9547,-0.9558,-0.9612,-0.9602,-0.9547,-0.9544,-0.9562,-0.9503,-0.9398,-0.9369,-0.9451,-0.9381,-0.9327,-0.9493,-0.9496,-0.9311,-0.9134,-0.875,-0.8069,-0.7316,-0.6965,-0.6702,-0.5662,-0.4642,-0.3825,-0.3398,-0.2665,-0.1946,-0.1835,-0.1806,-0.1802,-0.1806,-0.1796,-0.1798,-0.1814,-0.1789,-0.1797,-0.1795,-0.1795,-0.1795,-0.1795,-0.1795,-0.1793,-0.1803,-0.1781,-0.1765,-0.1755,-0.1778,-0.1775,-0.1711,-0.1682,-0.1645,-0.1677,-0.1714,-0.1714,-0.1681,-0.1677,-0.1682,-0.1635,-0.1592,-0.1592,-0.1592,-0.1592,-0.1592,-0.1592,-0.1592,-0.1566,-0.144,-0.1263,-0.1162,-0.0859,-0.0758,-0.0909,-0.0682,-0.0505,-0.0379,-0.0252,-0.0101,0.0,0.0,0.0,0.0,0.0,0.0,0.0,0.0,0.0,0.0,0.0,0.0,0.0,0.0,0.0,0.0,0.0,0.0,0.0,0.0,0.0,0.0,0.0,0.0,0.0,0.0,0.0,0.0,-0.0379,-0.0429,-0.0429,-0.0429,-0.0455,-0.048,-0.0456,-0.0382,-0.9605,-0.9527,-0.9527,-0.9557,-0.9558,-0.9475,-0.95,-0.9646,-0.953,-0.9466,-0.949,-0.9564,-0.9523,-0.9452,-0.9635,-0.9635,-0.9503,-0.9717,-0.969,-0.9492,-0.8798,-0.8318,-0.811,-0.7028,-0.576,-0.4672,-0.4457,-0.3775,-0.2508,-0.2434,-0.2234,-0.1883,-0.1806,-0.1797,-0.1799,-0.1812,-0.1812,-0.1797,-0.1795,-0.1795,-0.1792,-0.1812,-0.1806,-0.1802,-0.1776,-0.1761,-0.1762,-0.1752,-0.1748,-0.1747,-0.1724,-0.167,-0.1639,-0.1678,-0.1714,-0.1712,-0.1679,-0.1675,-0.1683,-0.1635,-0.1592,-0.1592,-0.1592,-0.1592,-0.1592,-0.1592,-0.1566,-0.144,-0.1313,-0.1111,-0.0884,-0.0631,-0.0455,-0.048,-0.0353,-0.0252,-0.0227,-0.0101,0.0,0.0,0.0,0.0,0.0,0.0,0.0,0.0,0.0,0.0,0.0,0.0,0.0,0.0,0.0,0.0,0.0,0.0,0.0,0.0,0.0,0.0,0.0,0.0,0.0,0.0,0.0,0.0,0.0,0.0,-0.0227,-0.0151,0.0,0.0,0.0,0.0,-0.0205,-0.9413,-0.941,-0.941,-0.9495,-0.9561,-0.9439,-0.953,-0.9717,-0.9656,-0.9605,-0.9618,-0.9635,-0.9564,-0.9473,-0.9608,-0.9646,-0.9646,-0.9744,-0.9781,-0.9758,-0.9523,-0.938,-0.9098,-0.8204,-0.7031,-0.5916,-0.5731,-0.4922,-0.3488,-0.3406,-0.2995,-0.1929,-0.1798,-0.1798,-0.1805,-0.1798,-0.1797,-0.1795,-0.1792,-0.1789,-0.1789,-0.1794,-0.1804,-0.1774,-0.1722,-0.1706,-0.1703,-0.1701,-0.169,-0.1693,-0.1719,-0.1688,-0.1684,-0.1712,-0.1709,-0.168,-0.1632,-0.1635,-0.1672,-0.1633,-0.1592,-0.1592,-0.1592,-0.1592,-0.1592,-0.1541,-0.144,-0.1263,-0.1136,-0.0934,-0.0556,-0.0379,-0.0278,0.0,0.0,0.0,0.0,0.0,0.0,0.0,0.0,0.0,0.0,0.0,0.0,0.0,0.0,0.0,0.0,0.0,0.0,0.0,0.0,0.0,0.0,0.0,0.0,0.0,0.0,0.0,0.0,0.0,0.0,0.0,0.0,0.0,0.0,0.0,0.0,0.0,0.0,0.0,0.0,0.0,0.0,-0.941,-0.941,-0.941,-0.9405,-0.9464,-0.9391,-0.9483,-0.9649,-0.9625,-0.9652,-0.971,-0.9737,-0.9704,-0.971,-0.9707,-0.9734,-0.9741,-0.9768,-0.9788,-0.9785,-0.9758,-0.9721,-0.9656,-0.9271,-0.8405,-0.7356,-0.7039,-0.5911,-0.3893,-0.3863,-0.3141,-0.1918,-0.185,-0.1788,-0.1794,-0.1806,-0.1795,-0.1791,-0.18,-0.1791,-0.1791,-0.1811,-0.1765,-0.1716,-0.1707,-0.1719,-0.17,-0.1651,-0.165,-0.1688,-0.1714,-0.1677,-0.1633,-0.163,-0.1632,-0.1629,-0.1624,-0.162,-0.1625,-0.1596,-0.1592,-0.1592,-0.1592,-0.1592,-0.1592,-0.1415,-0.1288,-0.1136,-0.0884,-0.0581,-0.0404,-0.0227,-0.0101,0.0,0.0,0.0,0.0,0.0,0.0,0.0,0.0,0.0,0.0,0.0,0.0,0.0,0.0,0.0,0.0,0.0,0.0,0.0,0.0,0.0,0.0,0.0,0.0,0.0,0.0,0.0,0.0,0.0,0.0,0.0,0.0,0.0,0.0,0.0,0.0,0.0,0.0,0.0,0.0,0.0,0.0,-0.9198,-0.9195,-0.9195,-0.926,-0.9301,-0.9222,-0.9317,-0.9486,-0.9517,-0.9595,-0.972,-0.9802,-0.9788,-0.9788,-0.9788,-0.9788,-0.9788,-0.9788,-0.9788,-0.9788,-0.9785,-0.9781,-0.9765,-0.9697,-0.9277,-0.865,-0.8468,-0.7287,-0.5563,-0.4853,-0.3869,-0.275,-0.2074,-0.1812,-0.1806,-0.1811,-0.1795,-0.1792,-0.1805,-0.1796,-0.1796,-0.181,-0.1769,-0.1746,-0.1703,-0.1699,-0.1646,-0.1638,-0.164,-0.1669,-0.1642,-0.1635,-0.162,-0.1592,-0.1592,-0.1592,-0.1592,-0.1592,-0.1592,-0.1592,-0.1592,-0.1592,-0.1592,-0.1516,-0.144,-0.1263,-0.1162,-0.0833,-0.0556,-0.0379,-0.0227,-0.0101,0.0,0.0,0.0,0.0,0.0,0.0,0.0,0.0,0.0,0.0,0.0,0.0,0.0,0.0,0.0,0.0,0.0,0.0,0.0,0.0,0.0,0.0,0.0,0.0,0.0,0.0,0.0,0.0,0.0,0.0,0.0,0.0,0.0,0.0,0.0,0.0,0.0,0.0,0.0,0.0,0.0,0.0,0.0,-0.8909,-0.8909,-0.8909,-0.9015,-0.9131,-0.9005,-0.9088,-0.9352,-0.9357,-0.9459,-0.9615,-0.9714,-0.9761,-0.9788,-0.9788,-0.9788,-0.9788,-0.9788,-0.9788,-0.9788,-0.9788,-0.9788,-0.9785,-0.9737,-0.9627,-0.9467,-0.9556,-0.8622,-0.7203,-0.6184,-0.5121,-0.3888,-0.2699,-0.2096,-0.2114,-0.1951,-0.1796,-0.1793,-0.1812,-0.1807,-0.1804,-0.1787,-0.1799,-0.1755,-0.1715,-0.1662,-0.1645,-0.1617,-0.1594,-0.1573,-0.1571,-0.1548,-0.1544,-0.1541,-0.1516,-0.1516,-0.1516,-0.1516,-0.1592,-0.1592,-0.1566,-0.1541,-0.1516,-0.144,-0.1212,-0.1086,-0.0884,-0.053,-0.0379,-0.0227,0.0,0.0,0.0,0.0,0.0,0.0,0.0,0.0,0.0,0.0,0.0,0.0,0.0,0.0,0.0,0.0,0.0,0.0,0.0,0.0,0.0,0.0,0.0,0.0,0.0,0.0,0.0,0.0,0.0,0.0,0.0,0.0,0.0,0.0,0.0,0.0,0.0,0.0,0.0,0.0,0.0,0.0,0.0,0.0,0.0,-0.8909,-0.8909,-0.8909,-0.8926,-0.895,-0.8926,-0.9039,-0.9226,-0.9262,-0.9383,-0.9564,-0.9642,-0.9687,-0.9785,-0.9785,-0.9788,-0.9788,-0.9788,-0.9788,-0.9788,-0.9788,-0.9788,-0.9758,-0.9707,-0.97,-0.9683,-0.9527,-0.8856,-0.787,-0.7196,-0.6438,-0.5213,-0.3942,-0.3189,-0.3112,-0.2459,-0.1823,-0.1819,-0.1829,-0.1875,-0.1793,-0.1813,-0.1769,-0.1746,-0.1711,-0.1702,-0.1622,-0.1415,-0.1329,-0.1364,-0.1368,-0.1338,-0.1268,-0.1113,-0.1113,-0.1238,-0.1314,-0.1391,-0.1542,-0.1569,-0.1517,-0.1344,-0.1294,-0.1162,-0.0909,-0.0708,-0.0556,-0.0354,-0.0227,0.0,0.0,0.0,0.0,0.0,0.0,0.0,0.0,0.0,0.0,0.0,0.0,0.0,0.0,0.0,0.0,0.0,0.0,0.0,0.0,0.0,0.0,0.0,0.0,0.0,0.0,0.0,0.0,0.0,0.0,0.0,0.0,0.0,0.0,0.0,0.0,0.0,0.0,0.0,0.0,0.0,0.0,0.0,0.0,0.0,0.0,-0.975,-0.9699,-0.9158,-0.8909,-0.8909,-0.8912,-0.8953,-0.9059,-0.9155,-0.9267,-0.9434,-0.9534,-0.9623,-0.9697,-0.9758,-0.9788,-0.9788,-0.9788,-0.9751,-0.9737,-0.9717,-0.9683,-0.9612,-0.9561,-0.9574,-0.9673,-0.9578,-0.9061,-0.85,-0.7814,-0.7062,-0.639,-0.5148,-0.4552,-0.4452,-0.3723,-0.3248,-0.277,-0.2639,-0.2433,-0.1909,-0.1798,-0.1784,-0.1731,-0.1737,-0.1733,-0.1672,-0.1586,-0.1419,-0.1317,-0.1191,-0.1098,-0.1019,-0.0866,-0.0892,-0.0987,-0.1147,-0.1253,-0.1408,-0.1434,-0.1362,-0.1243,-0.1114,-0.0882,-0.0672,-0.0463,-0.0358,-0.023,0.0,0.0,0.0,0.0,0.0,0.0,0.0,0.0,0.0,0.0,0.0,0.0,0.0,0.0,0.0,0.0,0.0,0.0,0.0,0.0,0.0,0.0,0.0,0.0,0.0,0.0,0.0,0.0,0.0,0.0,0.0,0.0,0.0,0.0,0.0,0.0,0.0,0.0,0.0,0.0,0.0,0.0,0.0,0.0,0.0,0.0,0.0,-1.0941,-1.0891,-0.9864,-0.943,-0.9403,-0.9289,-0.9237,-0.9234,-0.915,-0.9162,-0.923,-0.9485,-0.9574,-0.9639,-0.9764,-0.9785,-0.9781,-0.9744,-0.9713,-0.9646,-0.9585,-0.9523,-0.9468,-0.9425,-0.9432,-0.954,-0.9493,-0.9301,-0.8954,-0.8361,-0.7838,-0.7331,-0.636,-0.5797,-0.5675,-0.5378,-0.4749,-0.3967,-0.3852,-0.3543,-0.2823,-0.2599,-0.258,-0.2228,-0.2206,-0.1955,-0.1729,-0.1538,-0.1432,-0.1181,-0.092,-0.077,-0.0701,-0.0696,-0.0726,-0.074,-0.0955,-0.1115,-0.1171,-0.1197,-0.1227,-0.1198,-0.0906,-0.0639,-0.0424,-0.0315,-0.0234,0.0,0.0,0.0,0.0,0.0,0.0,0.0,0.0,0.0,0.0,0.0,0.0,0.0,0.0,0.0,0.0,0.0,0.0,0.0,0.0,0.0,0.0,0.0,0.0,0.0,0.0,0.0,0.0,0.0,0.0,0.0,0.0,0.0,0.0,0.0,0.0,0.0,0.0,0.0,0.0,0.0,0.0,0.0,0.0,0.0,0.0,0.0,0.0,-1.2114,-1.2087,-1.1901,-1.1819,-1.1655,-1.0813,-1.0402,-1.0213,-0.9435,-0.9073,-0.9256,-0.9373,-0.95,-0.9615,-0.9758,-0.9785,-0.9754,-0.97,-0.9618,-0.9554,-0.9476,-0.9407,-0.9344,-0.9349,-0.9342,-0.9271,-0.9274,-0.9284,-0.9239,-0.8911,-0.8599,-0.8458,-0.7536,-0.6878,-0.6588,-0.6012,-0.5603,-0.5222,-0.5094,-0.4862,-0.4538,-0.4388,-0.4049,-0.3387,-0.322,-0.2693,-0.1706,-0.1248,-0.0888,-0.0571,-0.0296,-0.0214,0.0,0.0,-0.0292,-0.0474,-0.0707,-0.0867,-0.09,-0.1076,-0.092,-0.0663,-0.0482,-0.0374,-0.016,0.0,0.0,0.0,0.0,0.0,0.0,0.0,0.0,0.0,0.0,0.0,0.0,0.0,0.0,0.0,0.0,0.0,0.0,0.0,0.0,0.0,0.0,0.0,0.0,0.0,0.0,0.0,0.0,0.0,0.0,0.0,0.0,0.0,0.0,0.0,0.0,0.0,0.0,0.0,0.0,0.0,0.0,0.0,0.0,0.0,0.0,0.0,0.0,0.0,0.0,-1.3317,-1.3295,-1.2667,-1.239,-1.2304,-1.1842,-1.1569,-1.1406,-1.0355,-0.9926,-0.9893,-0.9626,-0.9466,-0.9585,-0.9727,-0.9754,-0.9686,-0.9561,-0.9456,-0.9403,-0.9325,-0.9215,-0.9174,-0.9161,-0.9113,-0.9059,-0.9049,-0.9086,-0.9144,-0.9075,-0.9049,-0.8915,-0.8445,-0.8276,-0.813,-0.7756,-0.7017,-0.6691,-0.6348,-0.6035,-0.5589,-0.5508,-0.5031,-0.4682,-0.4332,-0.3833,-0.3255,-0.2187,-0.173,-0.1298,-0.0633,-0.0219,0.0,0.0,0.0,0.0,-0.0453,-0.0589,-0.0594,-0.0724,-0.0647,-0.0437,-0.0274,-0.0137,0.0,0.0,0.0,0.0,0.0,0.0,0.0,0.0,0.0,0.0,0.0,0.0,0.0,0.0,0.0,0.0,0.0,0.0,0.0,0.0,0.0,0.0,0.0,0.0,0.0,0.0,0.0,0.0,0.0,0.0,0.0,0.0,0.0,0.0,0.0,0.0,0.0,0.0,0.0,0.0,0.0,0.0,0.0,0.0,0.0,0.0,0.0,0.0,0.0,0.0,0.0,-1.4546,-1.446,-1.3506,-1.309,-1.3063,-1.2824,-1.277,-1.2526,-1.1519,-1.108,-1.1095,-1.048,-1.0055,-0.9873,-0.9748,-0.9659,-0.9554,-0.9432,-0.9349,-0.9233,-0.9231,-0.9089,-0.895,-0.8909,-0.8929,-0.895,-0.9011,-0.8953,-0.9039,-0.9052,-0.9059,-0.9088,-0.9283,-0.9339,-0.9097,-0.8882,-0.8564,-0.8191,-0.7712,-0.7084,-0.654,-0.6228,-0.5947,-0.5719,-0.5401,-0.5083,-0.4305,-0.3489,-0.2816,-0.2235,-0.1453,-0.0643,-0.0392,0.0,0.0,0.0,0.0,-0.0356,-0.033,-0.041,-0.0439,-0.0278,-0.0112,0.0,0.0,0.0,0.0,0.0,0.0,0.0,0.0,0.0,0.0,0.0,0.0,0.0,0.0,0.0,0.0,0.0,0.0,0.0,0.0,0.0,0.0,0.0,0.0,0.0,0.0,0.0,0.0,0.0,0.0,0.0,0.0,0.0,0.0,0.0,0.0,0.0,0.0,0.0,0.0,0.0,0.0,0.0,0.0,0.0,0.0,0.0,0.0,0.0,0.0,0.0,0.0,-1.5699,-1.5672,-1.5532,-1.5479,-1.5265,-1.4379,-1.4008,-1.3851,-1.2762,-1.2205,-1.2298,-1.2131,-1.1558,-1.0813,-0.9885,-0.9545,-0.9485,-0.94,-0.9311,-0.9196,-0.9179,-0.9114,-0.8936,-0.8909,-0.8933,-0.8963,-0.9107,-0.9148,-0.9162,-0.9069,-0.9123,-0.9259,-0.9274,-0.9267,-0.9386,-0.9379,-0.9332,-0.9171,-0.9084,-0.8948,-0.8756,-0.8556,-0.7842,-0.7043,-0.6478,-0.5868,-0.481,-0.414,-0.3749,-0.3386,-0.2323,-0.168,-0.1428,-0.0532,0.0,0.0,-0.0194,-0.0303,-0.0167,-0.0249,-0.0276,0.0,0.0,0.0,0.0,0.0,0.0,0.0,0.0,0.0,0.0,0.0,0.0,0.0,0.0,0.0,0.0,0.0,0.0,0.0,0.0,0.0,0.0,0.0,0.0,0.0,0.0,0.0,0.0,0.0,0.0,0.0,0.0,0.0,0.0,0.0,0.0,0.0,0.0,0.0,0.0,0.0,0.0,0.0,0.0,0.0,0.0,0.0,0.0,0.0,0.0,0.0,0.0,0.0,0.0,-1.5885,-1.5885,-1.5885,-1.5885,-1.5832,-1.5351,-1.525,-1.511,-1.4167,-1.369,-1.3608,-1.3025,-1.2508,-1.1853,-1.0958,-1.0413,-1.0149,-0.9631,-0.9282,-0.9199,-0.9179,-0.9148,-0.9079,-0.9087,-0.9087,-0.9086,-0.9208,-0.9344,-0.9323,-0.9279,-0.9279,-0.9361,-0.9434,-0.9452,-0.9507,-0.9507,-0.9561,-0.9555,-0.9521,-0.9466,-0.9367,-0.9213,-0.8782,-0.7953,-0.7578,-0.6829,-0.6068,-0.5118,-0.4784,-0.4419,-0.3469,-0.2853,-0.2742,-0.2295,0.0,0.0,-0.1142,-0.0835,-0.0168,-0.0195,0.0,0.0,0.0,0.0,0.0,0.0,0.0,0.0,0.0,0.0,0.0,0.0,0.0,0.0,0.0,0.0,0.0,0.0,0.0,0.0,0.0,0.0,0.0,0.0,0.0,0.0,0.0,0.0,0.0,0.0,0.0,0.0,0.0,0.0,0.0,0.0,0.0,0.0,0.0,0.0,0.0,0.0,0.0,0.0,0.0,0.0,0.0,0.0,0.0,0.0,0.0,0.0,0.0,0.0,0.0,-1.5885,-1.5885,-1.5885,-1.5885,-1.5897,-1.5985,-1.6097,-1.6156,-1.5384,-1.5055,-1.4808,-1.3941,-1.3283,-1.2988,-1.2083,-1.123,-1.0775,-1.0017,-0.9483,-0.9275,-0.9189,-0.9189,-0.9138,-0.9131,-0.9172,-0.9192,-0.9351,-0.9473,-0.953,-0.9537,-0.9496,-0.949,-0.9544,-0.9615,-0.9623,-0.9636,-0.9673,-0.9731,-0.967,-0.9562,-0.9449,-0.9242,-0.8926,-0.8505,-0.8161,-0.7771,-0.7382,-0.6571,-0.5873,-0.5648,-0.4697,-0.4083,-0.3999,-0.3525,-0.2994,-0.2378,-0.229,-0.1983,-0.1148,0.0,0.0,0.0,0.0,0.0,0.0,0.0,0.0,0.0,0.0,0.0,0.0,0.0,0.0,0.0,0.0,0.0,0.0,0.0,0.0,0.0,0.0,0.0,0.0,0.0,0.0,0.0,0.0,0.0,0.0,0.0,0.0,0.0,0.0,0.0,0.0,0.0,0.0,0.0,0.0,0.0,0.0,0.0,0.0,0.0,0.0,0.0,0.0,0.0,0.0,0.0,0.0,0.0,0.0,0.0,0.0,-1.5885,-1.5885,-1.5891,-1.5885,-1.5903,-1.6178,-1.6281,-1.6311,-1.6168,-1.6077,-1.5869,-1.4854,-1.4195,-1.3854,-1.2966,-1.1872,-1.0799,-1.0908,-1.0081,-0.9391,-0.9191,-0.9195,-0.9137,-0.9123,-0.9196,-0.9247,-0.9422,-0.9564,-0.9606,-0.9703,-0.9737,-0.9781,-0.9676,-0.9713,-0.9751,-0.9741,-0.9748,-0.9788,-0.9751,-0.9694,-0.9496,-0.9182,-0.8762,-0.8369,-0.7912,-0.7521,-0.724,-0.6985,-0.6846,-0.6793,-0.5871,-0.5314,-0.5146,-0.4585,-0.4026,-0.3608,-0.3495,-0.3216,-0.2629,-0.1232,0.0,0.0,0.0,0.0,0.0,0.0,0.0,0.0,0.0,0.0,0.0,0.0,0.0,0.0,0.0,0.0,0.0,0.0,0.0,0.0,0.0,0.0,0.0,0.0,0.0,0.0,0.0,0.0,0.0,0.0,0.0,0.0,0.0,0.0,0.0,0.0,0.0,0.0,0.0,0.0,0.0,0.0,0.0,0.0,0.0,0.0,0.0,0.0,0.0,0.0,0.0,0.0,0.0,0.0,0.0,-1.5988,-1.6142,-1.5958,-1.5885,-1.5897,-1.6,-1.616,-1.6299,-1.6284,-1.6284,-1.6238,-1.5734,-1.5389,-1.4985,-1.4206,-1.2996,-1.1804,-1.1219,-1.0269,-0.9532,-0.9267,-0.9318,-0.9225,-0.9213,-0.9233,-0.9349,-0.9513,-0.9612,-0.9625,-0.9754,-0.9775,-0.9761,-0.9721,-0.9744,-0.9781,-0.9788,-0.9788,-0.9788,-0.9788,-0.9751,-0.9643,-0.9265,-0.8828,-0.8429,-0.7982,-0.7564,-0.7282,-0.7213,-0.721,-0.7071,-0.668,-0.6485,-0.6376,-0.5813,-0.5314,-0.4815,-0.4733,-0.4428,-0.3642,-0.2129,-0.0868,0.0,0.0,0.0,0.0,0.0,0.0,0.0,0.0,0.0,0.0,0.0,0.0,0.0,0.0,0.0,0.0,0.0,0.0,0.0,0.0,0.0,0.0,0.0,0.0,0.0,0.0,0.0,0.0,0.0,0.0,0.0,0.0,0.0,0.0,0.0,0.0,0.0,0.0,0.0,0.0,0.0,0.0,0.0,0.0,0.0,0.0,0.0,0.0,0.0,0.0,0.0,0.0,0.0,0.0,-1.619,-1.6396,-1.6238,-1.6079,-1.6039,-1.6027,-1.6142,-1.6287,-1.6284,-1.6223,-1.6169,-1.6184,-1.6099,-1.574,-1.5281,-1.3879,-1.2576,-1.1737,-1.056,-0.9777,-0.9318,-0.9396,-0.9386,-0.9386,-0.9407,-0.9473,-0.9588,-0.968,-0.9693,-0.9748,-0.9781,-0.9788,-0.9788,-0.9788,-0.9788,-0.9788,-0.9788,-0.9788,-0.9788,-0.9754,-0.9687,-0.9228,-0.8795,-0.837,-0.7897,-0.7519,-0.7271,-0.721,-0.721,-0.721,-0.7127,-0.7154,-0.7182,-0.7076,-0.6725,-0.6268,-0.5861,-0.5503,-0.4669,-0.3203,-0.2045,0.0,0.0,0.0,-0.0504,0.0,0.0,0.0,0.0,0.0,0.0,0.0,0.0,0.0,0.0,0.0,0.0,0.0,0.0,0.0,0.0,0.0,0.0,0.0,0.0,0.0,0.0,0.0,0.0,0.0,0.0,0.0,0.0,0.0,0.0,0.0,0.0,0.0,0.0,0.0,0.0,0.0,0.0,0.0,0.0,0.0,0.0,0.0,0.0,0.0,0.0,0.0,0.0,0.0,0.0,-1.6462,-1.6682,-1.6658,-1.6495,-1.6305,-1.6293,-1.6287,-1.6269,-1.6241,-1.6127,-1.5979,-1.596,-1.5954,-1.5865,-1.5705,-1.4515,-1.3002,-1.2464,-1.1381,-0.9873,-0.9422,-0.9425,-0.9429,-0.9473,-0.949,-0.9615,-0.9686,-0.971,-0.9748,-0.9775,-0.9785,-0.9788,-0.9788,-0.9788,-0.9788,-0.9788,-0.9788,-0.9788,-0.9788,-0.9724,-0.951,-0.9045,-0.867,-0.8224,-0.7755,-0.7371,-0.7243,-0.7212,-0.7209,-0.7213,-0.7209,-0.7207,-0.7213,-0.7232,-0.7107,-0.7072,-0.7095,-0.7125,-0.709,-0.4892,-0.375,-0.3045,-0.218,-0.1862,-0.1545,0.0,0.0,0.0,0.0,0.0,0.0,0.0,0.0,0.0,0.0,0.0,0.0,0.0,0.0,0.0,0.0,0.0,0.0,0.0,0.0,0.0,0.0,0.0,0.0,0.0,0.0,0.0,0.0,0.0,0.0,0.0,0.0,0.0,0.0,0.0,0.0,0.0,0.0,0.0,0.0,0.0,0.0,0.0,0.0,0.0,0.0,0.0,0.0,0.0,0.0,-1.6561,-1.6923,-1.6573,-1.6477,-1.6519,-1.6384,-1.6214,-1.6042,-1.6018,-1.5976,-1.5936,-1.5885,-1.5885,-1.5885,-1.5779,-1.5024,-1.3715,-1.2658,-1.1561,-1.0416,-0.9803,-0.953,-0.9507,-0.9517,-0.9537,-0.9598,-0.9673,-0.9673,-0.9639,-0.9741,-0.9788,-0.9788,-0.9788,-0.9788,-0.9788,-0.9788,-0.9788,-0.9788,-0.9758,-0.9674,-0.9389,-0.9004,-0.8593,-0.8168,-0.7687,-0.7369,-0.7234,-0.7241,-0.7247,-0.7234,-0.7259,-0.7275,-0.7242,-0.725,-0.7296,-0.7335,-0.7368,-0.7441,-0.7447,-0.6351,-0.5407,-0.4391,-0.3514,-0.3155,-0.3023,-0.1987,0.0,-0.0973,-0.046,0.0,0.0,0.0,0.0,0.0,0.0,0.0,0.0,0.0,0.0,0.0,0.0,0.0,0.0,0.0,0.0,0.0,0.0,0.0,0.0,0.0,0.0,0.0,0.0,0.0,0.0,0.0,0.0,0.0,0.0,0.0,0.0,0.0,0.0,0.0,0.0,0.0,0.0,0.0,0.0,0.0,0.0,0.0,0.0,0.0,0.0,-1.67,-1.7061,-1.674,-1.6571,-1.6541,-1.6287,-1.6036,-1.5903,-1.5885,-1.5885,-1.5885,-1.5885,-1.5885,-1.5885,-1.5805,-1.5298,-1.4186,-1.3541,-1.2179,-1.1077,-1.0356,-0.9962,-0.9729,-0.9611,-0.9639,-0.9663,-0.968,-0.9696,-0.9683,-0.9781,-0.9785,-0.9788,-0.9788,-0.9788,-0.9788,-0.9788,-0.9788,-0.9788,-0.9788,-0.9697,-0.9447,-0.9118,-0.8678,-0.8254,-0.785,-0.7491,-0.7366,-0.7334,-0.7338,-0.7323,-0.7328,-0.7361,-0.7328,-0.7342,-0.7389,-0.7446,-0.7568,-0.7633,-0.759,-0.7592,-0.6592,-0.5697,-0.4911,-0.453,-0.4263,-0.3322,-0.2418,-0.1748,-0.1085,0.0,0.0,0.0,0.0,0.0,0.0,0.0,0.0,0.0,0.0,0.0,0.0,0.0,0.0,0.0,0.0,0.0,0.0,0.0,0.0,0.0,0.0,0.0,0.0,0.0,0.0,0.0,0.0,0.0,0.0,0.0,0.0,0.0,0.0,0.0,0.0,0.0,0.0,0.0,0.0,0.0,0.0,0.0,0.0,0.0,0.0,-1.6867,-1.7068,-1.7097,-1.6764,-1.6296,-1.606,-1.5954,-1.5918,-1.5885,-1.5885,-1.5885,-1.5885,-1.5885,-1.5885,-1.5885,-1.5378,-1.4515,-1.424,-1.3099,-1.1793,-1.1142,-1.0612,-1.0109,-0.9838,-0.971,-0.9731,-0.9791,-0.9774,-0.9812,-0.9785,-0.9788,-0.9788,-0.9788,-0.9788,-0.9788,-0.9788,-0.9788,-0.9788,-0.9788,-0.97,-0.9518,-0.9153,-0.8793,-0.8387,-0.7978,-0.7651,-0.7513,-0.7497,-0.7473,-0.7468,-0.7481,-0.7481,-0.7513,-0.7489,-0.76,-0.7693,-0.7799,-0.7848,-0.7856,-0.7845,-0.7793,-0.7019,-0.6368,-0.5968,-0.5444,-0.4693,-0.3755,-0.2838,-0.2075,-0.1184,0.0,0.0,0.0,0.0,0.0,0.0,0.0,0.0,0.0,0.0,0.0,0.0,0.0,0.0,0.0,0.0,0.0,0.0,0.0,0.0,0.0,0.0,0.0,0.0,0.0,0.0,0.0,0.0,0.0,0.0,0.0,0.0,0.0,0.0,0.0,0.0,0.0,0.0,0.0,0.0,0.0,0.0,0.0,0.0,0.0,-1.667,-1.7044,-1.6676,-1.6416,-1.6311,-1.6226,-1.6066,-1.593,-1.5885,-1.5885,-1.5885,-1.5885,-1.5885,-1.5885,-1.5885,-1.5672,-1.5281,-1.4789,-1.4373,-1.3357,-1.2131,-1.1424,-1.0758,-1.0192,-0.9826,-0.9717,-0.9761,-0.9788,-0.9788,-0.9788,-0.9788,-0.9788,-0.9788,-0.9788,-0.9788,-0.9788,-0.9788,-0.9788,-0.9788,-0.967,-0.9457,-0.9095,-0.8739,-0.8348,-0.7986,-0.7684,-0.7589,-0.7622,-0.7611,-0.7519,-0.7584,-0.7622,-0.7519,-0.76,-0.7701,-0.7804,-0.7886,-0.7897,-0.7903,-0.7903,-0.7903,-0.7903,-0.7389,-0.7308,-0.6826,-0.6039,-0.5058,-0.4145,-0.3128,-0.2229,-0.1387,0.0,0.0,0.0,0.0,0.0,0.0,0.0,0.0,0.0,0.0,0.0,0.0,0.0,0.0,0.0,0.0,0.0,0.0,0.0,0.0,0.0,0.0,0.0,0.0,0.0,0.0,0.0,0.0,0.0,0.0,0.0,0.0,0.0,0.0,0.0,0.0,0.0,0.0,0.0,0.0,0.0,0.0,0.0,0.0,-1.6477,-1.6734,-1.645,-1.6251,-1.6178,-1.6263,-1.616,-1.5934,-1.5994,-1.6,-1.5891,-1.5885,-1.5885,-1.5885,-1.5885,-1.5865,-1.5809,-1.552,-1.5083,-1.4223,-1.3274,-1.2333,-1.1526,-1.0725,-1.0163,-0.9906,-0.9758,-0.9788,-0.9788,-0.9788,-0.9788,-0.9788,-0.9788,-0.9788,-0.9788,-0.9788,-0.9788,-0.9788,-0.9761,-0.9609,-0.9339,-0.9034,-0.8675,-0.8331,-0.798,-0.7744,-0.7668,-0.7772,-0.7712,-0.7665,-0.7752,-0.7739,-0.7668,-0.7739,-0.778,-0.7892,-0.7897,-0.7903,-0.7903,-0.7903,-0.7903,-0.7903,-0.79,-0.7801,-0.7597,-0.7011,-0.6274,-0.5477,-0.4377,-0.3351,-0.2493,0.0,0.0,0.0,0.0,0.0,0.0,0.0,0.0,0.0,0.0,0.0,0.0,0.0,0.0,0.0,0.0,0.0,0.0,0.0,0.0,0.0,0.0,0.0,0.0,0.0,0.0,0.0,0.0,0.0,0.0,0.0,0.0,0.0,0.0,0.0,0.0,0.0,0.0,0.0,0.0,0.0,0.0,0.0,0.0,-1.6284,-1.6302,-1.626,-1.6157,-1.6012,-1.6269,-1.6223,-1.6018,-1.6241,-1.6151,-1.596,-1.5885,-1.5885,-1.5885,-1.5885,-1.5954,-1.6042,-1.6041,-1.583,-1.4953,-1.4535,-1.3572,-1.2263,-1.1375,-1.048,-1.0001,-0.9785,-0.9788,-0.9788,-0.9788,-0.9788,-0.9788,-0.9788,-0.9788,-0.9788,-0.9788,-0.9788,-0.9788,-0.9761,-0.967,-0.94,-0.9065,-0.8763,-0.8452,-0.8138,-0.7881,-0.7883,-0.7897,-0.7903,-0.79,-0.7894,-0.7883,-0.7878,-0.7875,-0.7892,-0.7897,-0.7903,-0.7903,-0.7903,-0.7903,-0.7903,-0.7903,-0.79,-0.7892,-0.7734,-0.767,-0.7015,-0.6461,-0.5441,-0.4706,-0.3908,-0.2465,-0.1628,-0.1135,0.0,0.0,0.0,0.0,0.0,0.0,0.0,0.0,0.0,0.0,0.0,0.0,0.0,0.0,0.0,0.0,0.0,0.0,0.0,0.0,0.0,0.0,0.0,0.0,0.0,0.0,0.0,0.0,0.0,0.0,0.0,0.0,0.0,0.0,0.0,0.0,0.0,0.0,0.0,0.0,0.0,-1.6109,-1.6281,-1.6066,-1.6196,-1.6489,-1.6573,-1.6676,-1.6807,-1.6646,-1.632,-1.5952,-1.5885,-1.5885,-1.5885,-1.5891,-1.5964,-1.6226,-1.6416,-1.6528,-1.6045,-1.5569,-1.4508,-1.2944,-1.1912,-1.0814,-1.0007,-0.9714,-0.9788,-0.9788,-0.9788,-0.9788,-0.9788,-0.9788,-0.9788,-0.9788,-0.9788,-0.9788,-0.9788,-0.9792,-0.9761,-0.9609,-0.9186,-0.8827,-0.858,-0.8302,-0.7964,-0.7933,-0.7903,-0.7903,-0.79,-0.79,-0.79,-0.79,-0.7903,-0.7903,-0.7903,-0.7903,-0.7903,-0.7903,-0.7903,-0.7903,-0.7903,-0.7903,-0.7903,-0.79,-0.7903,-0.7686,-0.7164,-0.6641,-0.5965,-0.5075,-0.3448,-0.2065,-0.1541,0.0,0.0,0.0,0.0,0.0,0.0,0.0,0.0,0.0,0.0,0.0,0.0,0.0,0.0,0.0,0.0,0.0,0.0,0.0,0.0,0.0,0.0,0.0,0.0,0.0,0.0,0.0,0.0,0.0,0.0,0.0,0.0,0.0,0.0,0.0,0.0,0.0,0.0,0.0,0.0,0.0,-1.6003,-1.6079,-1.5952,-1.6081,-1.635,-1.6592,-1.6658,-1.6579,-1.6652,-1.6398,-1.594,-1.5885,-1.5885,-1.5885,-1.5891,-1.6048,-1.6308,-1.6573,-1.6758,-1.6611,-1.6205,-1.5403,-1.4064,-1.2623,-1.1669,-1.0744,-0.9999,-0.9788,-0.9788,-0.9788,-0.9788,-0.9788,-0.9788,-0.9788,-0.9788,-0.9788,-0.9788,-0.9788,-0.9788,-0.9788,-0.9758,-0.9369,-0.8885,-0.8638,-0.8366,-0.8058,-0.7933,-0.7903,-0.7903,-0.7903,-0.7903,-0.7903,-0.7903,-0.7903,-0.7903,-0.7903,-0.7903,-0.7903,-0.7903,-0.7903,-0.7903,-0.7903,-0.7903,-0.7903,-0.7903,-0.7903,-0.7903,-0.7472,-0.7408,-0.6855,-0.6149,-0.4768,-0.3539,-0.2771,0.0,0.0,0.0,0.0,0.0,0.0,0.0,0.0,0.0,0.0,0.0,0.0,0.0,0.0,0.0,0.0,0.0,0.0,0.0,0.0,0.0,0.0,0.0,0.0,0.0,0.0,0.0,0.0,0.0,0.0,0.0,0.0,0.0,0.0,0.0,0.0,0.0,0.0,0.0,0.0,0.0,-1.5891,-1.5885,-1.5891,-1.5946,-1.606,-1.6495,-1.6519,-1.6266,-1.6519,-1.6453,-1.6054,-1.5966,-1.5918,-1.5885,-1.5897,-1.6109,-1.6308,-1.6489,-1.6767,-1.7008,-1.6776,-1.5931,-1.4911,-1.3723,-1.2267,-1.1092,-1.0195,-0.991,-0.9788,-0.9788,-0.9788,-0.9788,-0.9788,-0.9788,-0.9788,-0.9788,-0.9788,-0.9788,-0.9788,-0.9788,-0.967,-0.9488,-0.9065,-0.8702,-0.843,-0.8244,-0.8058,-0.7933,-0.7933,-0.7903,-0.7903,-0.7903,-0.7903,-0.7903,-0.7903,-0.7903,-0.7903,-0.7903,-0.7903,-0.7903,-0.7903,-0.7903,-0.7903,-0.7903,-0.7903,-0.7903,-0.7903,-0.7869,-0.7808,-0.7561,-0.6855,-0.5994,-0.4797,0.0,0.0,0.0,0.0,0.0,0.0,0.0,0.0,0.0,0.0,0.0,0.0,0.0,0.0,0.0,0.0,0.0,0.0,0.0,0.0,0.0,0.0,0.0,0.0,0.0,0.0,0.0,0.0,0.0,0.0,0.0,0.0,0.0,0.0,0.0,0.0,0.0,0.0,0.0,0.0,0.0,0.0,-1.5885,-1.5885,-1.5885,-1.6127,-1.6513,-1.6658,-1.6869,-1.7115,-1.6785,-1.6622,-1.6386,-1.6048,-1.5885,-1.5885,-1.5885,-1.6091,-1.6435,-1.6495,-1.6881,-1.7296,-1.6881,-1.6264,-1.5375,-1.4079,-1.212,-1.0895,-1.0122,-0.9879,-0.9788,-0.9788,-0.9788,-0.9788,-0.9788,-0.9788,-0.9788,-0.9788,-0.9788,-0.9788,-0.9788,-0.9788,-0.9731,-0.9548,-0.9339,-0.8976,-0.8644,-0.8461,-0.8244,-0.8058,-0.7964,-0.7903,-0.7903,-0.7903,-0.7903,-0.7903,-0.7903,-0.7903,-0.7903,-0.7903,-0.7903,-0.7903,-0.7903,-0.7903,-0.7903,-0.7903,-0.7903,-0.7903,-0.7903,-0.7903,-0.7869,-0.7869,-0.7255,-0.6305,-0.5197,-0.4185,0.0,0.0,0.0,0.0,0.0,0.0,0.0,0.0,0.0,0.0,0.0,0.0,0.0,0.0,0.0,0.0,0.0,0.0,0.0,0.0,0.0,0.0,0.0,0.0,0.0,0.0,0.0,0.0,0.0,0.0,0.0,0.0,0.0,0.0,0.0,0.0,0.0,0.0,0.0,0.0,0.0]},{"header":{"parameterUnit":"m.s-1","parameterCategory":1,"la1":31.0,"la2":29.5877,"lo1":-88.7671,"lo2":-86.6584,"dy":0.0162,"dx":0.0185,"nx":115,"ny":88,"refTime":"2023-10-25T06:00:00:Z","depth":0,"parameterNumber":3,"parameterNumberName":"V-component_of_WINDS"},"data":[0.0,0.0,0.0,0.0,0.0,0.0,0.0,0.0,0.0,0.0,0.0,0.0,0.0,0.0,0.0,0.0,0.0,0.0,0.0,0.0,0.0,0.0,0.0,0.0,0.0,0.0,0.0,0.0,0.0,0.0,0.0,0.0,0.0,0.0,0.0,0.0,0.0,0.0,0.0,0.0,0.0,0.0,0.0,0.0,0.0,0.0,0.0,0.0,0.0,0.0,0.0,0.0,0.0,0.0,0.0,0.0,0.0,0.0,0.0,0.0,0.0,0.0,0.0,0.0,0.0,0.0,0.0,0.0,0.0,0.0,0.0,0.0,0.0,0.0,0.0,0.0,0.0,0.0,0.0,0.0,0.0,0.0,0.0,0.0,0.0,0.0,0.0,0.0,0.0,0.0,0.0,0.0,0.0,0.0,0.0,0.0,0.0,0.0,0.0,0.0,0.0,0.0,0.0,0.0,0.0,0.0,0.0,0.0,0.0,0.0,0.0,0.0,0.0,0.0,0.0,0.0,0.0,0.0,0.0,0.0,0.0,0.0,0.0,0.0,0.0,0.0,0.0,0.0,0.0,0.0,0.0,0.0,0.0,0.0,0.0,0.0,0.0,0.0,0.0,0.0,0.0,0.0,0.0,0.0,0.0,0.0,0.0,0.0,0.0,0.0,0.0,0.0,0.0,0.0,0.0,0.0,0.0,0.0,0.0,0.0,0.0,0.0,0.0,0.0,0.0,0.0,0.0,0.0,0.0,0.0,0.0,0.0,0.0,0.0,0.0,0.0,0.0,0.0,0.0,0.0,0.0,0.0,0.0,0.0,0.0,0.0,0.0,0.0,0.0,0.0,0.0,0.0,0.0,0.0,0.0,0.0,0.0,0.0,0.0,0.0,0.0,0.0,0.0,0.0,0.0,0.0,0.0,0.0,0.0,0.0,0.0,0.0,0.0,0.0,0.0,0.0,0.0,0.0,0.0,0.0,0.0,0.0,0.0,0.0,0.0,0.0,0.0,0.0,0.0,0.0,0.0,0.0,0.0,0.0,0.0,0.0,0.0,0.0,0.0,0.0,0.0,0.0,0.0,0.0,0.0,0.0,0.0,0.0,0.0,0.0,0.0,0.0,0.0,0.0,0.0,0.0,0.0,0.0,0.0,0.0,0.0,0.0,0.0,0.0,0.0,0.0,0.0,0.0,0.0,0.0,0.0,0.0,0.0,0.0,0.0,0.0,0.0,0.0,0.0,0.0,0.0,0.0,0.0,0.0,0.0,0.0,0.0,0.0,0.0,0.0,0.0,0.0,0.0,0.0,0.0,0.0,0.0,0.0,0.0,0.0,0.0,0.0,0.0,0.0,0.0,0.0,0.0,0.0,0.0,0.0,0.0,0.0,0.0,0.0,0.0,0.0,0.0,0.0,0.0,0.0,0.0,0.0,0.0,0.0,0.0,0.0,0.0,0.0,0.0,0.0,0.0,0.0,0.0,0.0,0.0,0.0,0.0,0.0,0.0,0.0,0.0,0.0,0.0,0.0,0.0,0.0,0.0,0.0,0.0,0.0,0.0,0.0,0.0,0.0,0.0,0.0,0.0,0.0,0.0,0.0,0.0,0.0,0.0,0.0,0.0,0.0,0.0,0.0,0.0,0.0,0.0,0.0,0.0,0.0,0.0,0.0,0.0,0.0,0.0,0.0,0.0,0.0,0.0,0.0,0.0,0.0,0.0,0.0,0.0,0.0,0.0,0.0,0.0,0.0,0.0,0.0,0.0,0.0,0.0,0.0,0.0,0.0,0.0,0.0,0.0,0.0,0.0,0.0,0.0,0.0,0.0,0.0,0.0,0.0,0.0,0.0,0.0,0.0,0.0,0.0,0.0,0.0,0.0,0.0,0.0,0.0,0.0,0.0,0.0,0.0,0.0,0.0,0.0,0.0,0.0,0.0,0.0,0.0,0.0,0.0,0.0,0.0,0.0,0.0,0.0,0.0,0.0,0.0,0.0,0.0,0.0,0.0,0.0,0.0,0.0,0.0,0.0,0.0,0.0,0.0,0.0,0.0,0.0,0.0,0.0,0.0,0.0,0.0,0.0,0.0,0.0,0.0,0.0,0.0,0.0,0.0,0.0,0.0,0.0,0.0,0.0,0.0,0.0,0.0,0.0,0.0,0.0,0.0,0.0,0.0,0.0,0.0,0.0,0.0,0.0,0.0,0.0,0.0,0.0,0.0,0.0,0.0,0.0,0.0,0.0,0.0,0.0,0.0,0.0,0.0,0.0,0.0,0.0,0.0,0.0,0.0,0.0,0.0,0.0,0.0,0.0,0.0,0.0,0.0,0.0,0.0,0.0,0.0,0.0,0.0,0.0,0.0,0.0,0.0,0.0,0.0,0.0,0.0,0.0,0.0,0.0,0.0,0.0,0.0,0.0,0.0,0.0,0.0,0.0,0.0,0.0,0.0,0.0,0.0,0.0,0.0,0.0,0.0,0.0,0.0,0.0,0.0,0.0,0.0,0.0,0.0,0.0,0.0,0.0,0.0,0.0,0.0,0.0,0.0,0.0,0.0,0.0,0.0,0.0,0.0,0.0,0.0,0.0,0.0,0.0,0.0,0.0,0.0,0.0,0.0,0.0,0.0,0.0,0.0,0.0,0.0,0.0,0.0,0.0,0.0,0.0,0.0,0.0,0.0,0.0,0.0,0.0,0.0,0.0,0.0,0.0,0.0,0.0,0.0,0.0,0.0,0.0,0.0,0.0,0.0,0.0,0.0,0.0,0.0,0.0,0.0,0.0,0.0,0.0,0.0,0.0,0.0,0.0,0.0,0.0,0.0,0.0,0.0,0.0,0.0,0.0,0.0,0.0,0.0,0.0,0.0,0.0,0.0,0.0,0.0,0.0,0.0,0.0,0.0,0.0,0.0,0.0,0.0,0.0,0.0,0.0,0.0,0.0,0.0,0.0,0.0,0.0,0.0,0.0,0.0,0.0,0.0,0.0,0.0,0.0,0.0,0.0,0.0,0.0,0.0,0.0,0.0,0.0,0.0,0.0,0.0,0.0,0.0,0.0,0.0,0.0,0.0,0.0,0.0,0.0,0.0,0.0,0.0,0.0,0.0,0.0,0.0,0.0,0.0,0.0,0.0,0.0,0.0,0.0,0.0,0.0,0.0,0.0,0.0,0.0,0.0,0.0,0.0,0.0,0.0,0.0,0.0,0.0,0.0,0.0,0.0,0.0,0.0,0.0,0.0,0.0,0.0,0.0,0.0,0.0,0.0,0.0,0.0,0.0,0.0,0.0,0.0,0.0,0.0,0.0,0.0,0.0,0.0,0.0,0.0,0.0,0.0,0.0,0.0,0.0,0.0,0.0,0.0,0.0,0.0,0.0,0.0,0.0,0.0,0.0,0.0,0.0,0.0,0.0,0.0,0.0,0.0,0.0,0.0,0.0,0.0,0.0,0.0,0.0,0.0,0.0,0.0,0.0,0.0,0.0,0.0,0.0,0.0,0.0,0.0,0.0,0.0,0.0,0.0,0.0,0.0,0.0,0.0,0.0,0.0,0.0,0.0,0.0,0.0,0.0,0.0,0.0,0.0,0.0,0.0,0.0,0.0,0.0,0.0,0.0,0.0,0.0,0.0,0.0,0.0,0.0,0.0,0.0,0.0,0.0,0.0,0.0,0.0,0.0,0.0,0.0,0.0,0.0,0.0,0.0,0.0,0.0,0.0,0.0,0.0,0.0,0.0,0.0,0.0,0.0,0.0,0.0,0.0,0.0,0.0,0.0,0.0,0.0,0.0,0.0,0.0,0.0,0.0,0.0,0.0,0.0,0.0,0.0,0.0,0.0,0.0,0.0,0.0,0.0,0.0,0.0,0.0,0.0,0.0,0.0,0.0,0.0,0.0,0.0,0.0,0.0,0.0,0.0,0.0,0.0,0.0,0.0,0.0,0.0,0.0,0.0,0.0,0.0,0.0,0.0,0.0,0.0,0.0,0.0,0.0,0.0,0.0,0.0,0.0,0.0,0.0,0.0,0.0,0.0,0.0,0.0,0.0,0.0,0.0,0.0,0.0,0.0,0.0,0.0,0.0,0.0,0.0,0.0,0.0,0.0,0.0,0.0,0.0,0.0,0.0,0.0,0.0,0.0,0.0,0.0,0.0,0.0,0.0,0.0,0.0,0.0,0.0,0.0,0.0,0.0,0.0,0.0,0.0,0.0,0.0,0.0,0.0,0.0,0.0,0.0,0.0,0.0,0.0,0.0,0.0,0.0,0.0,0.0,0.0,0.0,0.0,2.4447,0.0,0.0,0.0,0.0,0.0,0.0,0.0,0.0,0.0,0.0,0.0,0.0,0.0,0.0,0.0,0.0,0.0,0.0,0.0,0.0,0.0,0.0,0.0,0.0,0.0,0.0,0.0,0.0,0.0,0.0,0.0,0.0,0.0,0.0,0.0,0.0,0.0,0.0,0.0,0.0,0.0,0.0,0.0,0.0,0.0,0.0,0.0,0.0,0.0,0.0,0.0,0.0,0.0,0.0,0.0,0.0,0.0,0.0,0.0,0.0,0.0,0.0,0.0,0.0,0.0,0.0,0.0,0.0,0.0,0.0,0.0,0.0,0.0,0.0,0.0,0.0,0.0,0.0,0.0,0.0,0.0,0.0,0.0,0.0,0.0,0.0,0.0,0.0,0.0,0.0,0.0,0.0,0.0,0.0,0.0,0.0,0.0,0.0,0.0,0.0,0.0,0.0,0.0,0.0,0.0,0.0,0.0,0.0,0.0,0.0,2.8002,2.7273,2.6833,2.6043,2.4915,0.0,0.0,0.0,0.0,0.0,0.0,0.0,0.0,0.0,0.0,0.0,0.0,0.0,0.0,0.0,0.0,0.0,0.0,0.0,0.0,0.0,0.0,0.0,0.0,0.0,0.0,0.0,0.0,0.0,0.0,0.0,0.0,0.0,0.0,0.0,0.0,0.0,0.0,0.0,0.0,0.0,0.0,0.0,0.0,0.0,0.0,0.0,0.0,0.0,0.0,0.0,0.0,0.0,0.0,0.0,0.0,0.0,0.0,0.0,0.0,0.0,0.0,0.0,0.0,0.0,0.0,0.0,0.0,0.0,0.0,0.0,0.0,0.0,0.0,0.0,0.0,0.0,0.0,0.0,0.0,0.0,0.0,0.0,0.0,0.0,0.0,0.0,0.0,0.0,0.0,0.0,0.0,0.0,0.0,0.0,0.0,0.0,0.0,0.0,0.0,0.0,0.0,0.0,0.0,0.0,0.0,0.0,0.0,0.0,0.0,0.0,0.0,2.7257,2.6686,2.5705,0.0,0.0,0.0,0.0,0.0,0.0,0.0,0.0,0.0,0.0,0.0,0.0,0.0,0.0,0.0,0.0,0.0,0.0,0.0,0.0,0.0,0.0,0.0,0.0,0.0,0.0,0.0,0.0,0.0,0.0,0.0,0.0,0.0,0.0,0.0,0.0,0.0,0.0,0.0,0.0,0.0,0.0,0.0,0.0,0.0,0.0,0.0,0.0,0.0,0.0,0.0,0.0,0.0,0.0,0.0,0.0,0.0,0.0,0.0,0.0,0.0,0.0,0.0,0.0,0.0,0.0,0.0,0.0,0.0,0.0,0.0,0.0,0.0,0.0,0.0,0.0,0.0,0.0,0.0,0.0,0.0,0.0,0.0,0.0,0.0,0.0,0.0,0.0,0.0,0.0,0.0,0.0,0.0,0.0,0.0,0.0,0.0,0.0,0.0,0.0,0.0,0.0,0.0,0.0,0.0,0.0,0.0,0.0,0.0,0.0,2.7394,2.6582,2.7969,0.0,2.6534,0.0,0.0,0.0,0.0,0.0,0.0,0.0,0.0,0.0,0.0,0.0,0.0,0.0,0.0,0.0,0.0,0.0,0.0,0.0,0.0,0.0,0.0,0.0,0.0,0.0,0.0,0.0,0.0,0.0,0.0,0.0,0.0,0.0,0.0,0.0,0.0,0.0,0.0,0.0,0.0,0.0,0.0,0.0,0.0,0.0,0.0,0.0,0.0,0.0,0.0,0.0,0.0,0.0,0.0,0.0,0.0,0.0,0.0,0.0,0.0,0.0,0.0,0.0,0.0,0.0,0.0,0.0,0.0,0.0,0.0,0.0,0.0,0.0,0.0,0.0,0.0,0.0,0.0,0.0,0.0,0.0,0.0,0.0,0.0,0.0,0.0,0.0,0.0,0.0,0.0,0.0,0.0,0.0,0.0,0.0,0.0,0.0,0.0,0.0,0.0,0.0,0.0,0.0,0.0,0.0,0.0,0.0,0.0,0.0,0.0,2.7057,2.7101,2.7382,2.6768,0.0,0.0,0.0,0.0,0.0,0.0,0.0,0.0,0.0,0.0,0.0,0.0,0.0,0.0,0.0,0.0,0.0,0.0,0.0,0.0,0.0,0.0,0.0,0.0,0.0,0.0,0.0,0.0,0.0,0.0,0.0,0.0,0.0,0.0,0.0,0.0,0.0,0.0,0.0,0.0,0.0,0.0,0.0,0.0,0.0,0.0,0.0,0.0,0.0,0.0,0.0,0.0,0.0,0.0,0.0,0.0,0.0,0.0,0.0,0.0,0.0,0.0,0.0,0.0,0.0,0.0,0.0,0.0,0.0,0.0,0.0,0.0,0.0,0.0,0.0,0.0,0.0,0.0,0.0,0.0,0.0,0.0,0.0,0.0,0.0,0.0,0.0,0.0,0.0,0.0,0.0,0.0,0.0,0.0,0.0,0.0,0.0,0.0,0.0,0.0,0.0,0.0,0.0,0.0,0.0,0.0,0.0,0.0,0.0,0.0,2.7218,2.7159,2.7813,2.654,2.5476,2.4771,0.0,0.0,0.0,0.0,0.0,0.0,0.0,0.0,0.0,0.0,0.0,0.0,0.0,0.0,0.0,0.0,0.0,0.0,0.0,0.0,0.0,0.0,0.0,0.0,0.0,0.0,0.0,0.0,0.0,0.0,0.0,0.0,0.0,0.0,0.0,0.0,0.0,0.0,0.0,0.0,0.0,0.0,0.0,0.0,0.0,0.0,0.0,0.0,0.0,0.0,0.0,0.0,0.0,0.0,0.0,0.0,0.0,0.0,0.0,0.0,0.0,0.0,0.0,0.0,0.0,0.0,0.0,0.0,0.0,0.0,0.0,0.0,0.0,0.0,0.0,0.0,0.0,0.0,0.0,0.0,0.0,0.0,0.0,0.0,0.0,0.0,0.0,0.0,0.0,0.0,0.0,0.0,0.0,0.0,0.0,0.0,0.0,0.0,0.0,0.0,0.0,0.0,0.0,0.0,0.0,0.0,0.0,0.0,2.8676,2.7947,2.7922,2.8579,2.5739,2.4829,0.0,0.0,0.0,0.0,0.0,0.0,0.0,0.0,0.0,0.0,0.0,0.0,0.0,0.0,0.0,0.0,0.0,0.0,0.0,0.0,0.0,0.0,0.0,0.0,0.0,0.0,0.0,0.0,0.0,0.0,0.0,0.0,0.0,0.0,0.0,0.0,0.0,0.0,0.0,0.0,0.0,0.0,0.0,0.0,0.0,0.0,0.0,0.0,0.0,0.0,0.0,0.0,0.0,0.0,0.0,0.0,0.0,0.0,0.0,0.0,0.0,0.0,0.0,0.0,0.0,0.0,0.0,0.0,0.0,0.0,0.0,0.0,0.0,0.0,0.0,0.0,0.0,0.0,0.0,0.0,0.0,0.0,0.0,0.0,0.0,0.0,0.0,0.0,0.0,0.0,0.0,0.0,0.0,0.0,0.0,0.0,0.0,0.0,0.0,0.0,0.0,0.0,0.0,0.0,0.0,0.0,0.0,0.0,0.0,2.802,2.8173,2.7882,2.7168,2.6531,2.605,0.0,0.0,0.0,0.0,0.0,0.0,0.0,0.0,0.0,0.0,0.0,0.0,0.0,0.0,0.0,0.0,0.0,0.0,0.0,0.0,0.0,0.0,0.0,0.0,0.0,0.0,0.0,0.0,0.0,0.0,0.0,0.0,0.0,0.0,0.0,0.0,0.0,0.0,0.0,0.0,0.0,0.0,0.0,0.0,0.0,0.0,0.0,0.0,0.0,0.0,0.0,0.0,0.0,0.0,0.0,0.0,0.0,0.0,0.0,0.0,0.0,0.0,0.0,0.0,0.0,0.0,0.0,0.0,0.0,0.0,0.0,0.0,0.0,0.0,0.0,0.0,0.0,0.0,0.0,0.0,0.0,0.0,0.0,0.0,0.0,0.0,0.0,0.0,0.0,0.0,0.0,0.0,0.0,0.0,0.0,0.0,0.0,0.0,0.0,0.0,0.0,0.0,0.0,0.0,0.0,0.0,0.0,0.0,0.0,2.7542,0.0,2.7302,2.6258,2.6274,2.5835,0.0,0.0,0.0,0.0,0.0,0.0,0.0,0.0,0.0,0.0,0.0,0.0,0.0,0.0,0.0,0.0,0.0,0.0,0.0,0.0,0.0,0.0,0.0,0.0,0.0,0.0,0.0,0.0,0.0,0.0,0.0,0.0,0.0,0.0,0.0,0.0,0.0,0.0,0.0,0.0,0.0,0.0,0.0,0.0,0.0,0.0,0.0,0.0,0.0,0.0,0.0,0.0,0.0,0.0,0.0,0.0,0.0,0.0,0.0,0.0,0.0,0.0,0.0,0.0,0.0,0.0,0.0,0.0,0.0,0.0,0.0,0.0,0.0,0.0,0.0,0.0,0.0,0.0,0.0,0.0,0.0,0.0,0.0,0.0,0.0,0.0,0.0,0.0,0.0,0.0,0.0,0.0,0.0,0.0,0.0,0.0,0.0,0.0,0.0,0.0,0.0,0.0,0.0,0.0,0.0,0.0,0.0,0.0,2.7542,2.7345,2.6721,2.6436,2.618,2.4869,2.4005,0.0,0.0,0.0,0.0,0.0,0.0,0.0,0.0,0.0,0.0,0.0,0.0,0.0,0.0,0.0,0.0,0.0,0.0,0.0,0.0,0.0,0.0,0.0,0.0,0.0,0.0,0.0,0.0,0.0,0.0,0.0,0.0,0.0,0.0,0.0,0.0,0.0,0.0,0.0,0.0,0.0,0.0,0.0,0.0,0.0,0.0,0.0,0.0,0.0,0.0,0.0,0.0,0.0,0.0,0.0,0.0,0.0,0.0,0.0,0.0,0.0,0.0,0.0,0.0,0.0,0.0,0.0,0.0,0.0,0.0,0.0,0.0,0.0,0.0,0.0,0.0,0.0,0.0,0.0,0.0,0.0,0.0,0.0,0.0,0.0,0.0,0.0,0.0,0.0,0.0,0.0,0.0,0.0,0.0,0.0,0.0,0.0,0.0,0.0,0.0,0.0,0.0,0.0,0.0,0.0,0.0,0.0,0.0,0.0,2.5829,2.7139,2.761,2.7013,2.6034,2.5484,0.0,0.0,0.0,0.0,0.0,0.0,0.0,0.0,0.0,0.0,0.0,0.0,0.0,0.0,0.0,0.0,0.0,0.0,0.0,0.0,0.0,0.0,0.0,0.0,0.0,0.0,0.0,0.0,0.0,0.0,0.0,0.0,0.0,0.0,0.0,0.0,0.0,0.0,0.0,0.0,0.0,0.0,0.0,0.0,0.0,0.0,0.0,0.0,0.0,0.0,0.0,0.0,0.0,0.0,0.0,0.0,0.0,0.0,0.0,0.0,0.0,0.0,0.0,0.0,0.0,0.0,0.0,0.0,0.0,0.0,0.0,0.0,0.0,0.0,0.0,0.0,0.0,0.0,0.0,0.0,0.0,0.0,0.0,0.0,0.0,0.0,0.0,0.0,0.0,0.0,0.0,0.0,0.0,0.0,0.0,0.0,0.0,0.0,0.0,0.0,0.0,0.0,0.0,0.0,0.0,0.0,0.0,0.0,0.0,2.5645,2.7248,2.7804,2.6971,2.6186,2.5769,2.5727,0.0,0.0,0.0,0.0,0.0,0.0,0.0,0.0,0.0,0.0,0.0,0.0,0.0,0.0,0.0,0.0,0.0,0.0,0.0,0.0,0.0,0.0,0.0,0.0,0.0,0.0,0.0,0.0,0.0,0.0,0.0,0.0,0.0,0.0,0.0,0.0,0.0,0.0,0.0,0.0,0.0,0.0,0.0,0.0,0.0,0.0,0.0,0.0,0.0,0.0,0.0,0.0,0.0,0.0,0.0,0.0,0.0,0.0,0.0,0.0,0.0,0.0,0.0,0.0,0.0,0.0,0.0,0.0,0.0,0.0,0.0,0.0,0.0,0.0,0.0,0.0,0.0,0.0,0.0,0.0,0.0,0.0,0.0,0.0,0.0,0.0,0.0,0.0,0.0,0.0,0.0,0.0,0.0,0.0,0.0,0.0,0.0,0.0,0.0,0.0,0.0,0.0,0.0,0.0,0.0,0.0,0.0,0.0,2.6385,2.7191,2.7193,2.624,2.5479,2.5045,0.0,0.0,0.0,0.0,0.0,0.0,0.0,0.0,0.0,0.0,0.0,0.0,0.0,0.0,0.0,0.0,0.0,0.0,0.0,0.0,0.0,0.0,0.0,0.0,0.0,0.0,0.0,0.0,0.0,0.0,0.0,0.0,0.0,0.0,0.0,0.0,0.0,0.0,0.0,0.0,0.0,0.0,0.0,0.0,0.0,0.0,0.0,0.0,0.0,0.0,0.0,0.0,0.0,0.0,0.0,0.0,0.0,0.0,0.0,0.0,0.0,0.0,0.0,0.0,0.0,0.0,0.0,0.0,0.0,0.0,0.0,0.0,0.0,0.0,0.0,0.0,0.0,0.0,0.0,0.0,0.0,0.0,0.0,0.0,0.0,0.0,0.0,0.0,0.0,0.0,0.0,0.0,0.0,0.0,0.0,0.0,0.0,0.0,0.0,0.0,0.0,0.0,0.0,0.0,0.0,0.0,0.0,0.0,0.0,2.7236,2.8481,2.8245,2.6288,2.6005,2.5601,0.0,0.0,0.0,0.0,0.0,0.0,0.0,0.0,0.0,0.0,0.0,0.0,0.0,0.0,0.0,0.0,0.0,0.0,0.0,0.0,0.0,0.0,0.0,0.0,0.0,0.0,0.0,0.0,0.0,0.0,0.0,0.0,0.0,0.0,0.0,0.0,0.0,0.0,0.0,0.0,0.0,0.0,0.0,0.0,0.0,0.0,0.0,0.0,0.0,0.0,0.0,0.0,0.0,0.0,0.0,0.0,0.0,0.0,0.0,0.0,0.0,0.0,0.0,0.0,0.0,0.0,0.0,0.0,0.0,0.0,0.0,0.0,0.0,0.0,0.0,0.0,0.0,0.0,0.0,0.0,0.0,0.0,0.0,0.0,0.0,0.0,0.0,0.0,0.0,0.0,0.0,0.0,0.0,0.0,0.0,0.0,0.0,0.0,0.0,0.0,0.0,0.0,0.0,0.0,0.0,0.0,0.0,0.0,2.9375,2.8512,2.9339,2.8963,2.7242,2.6868,2.6162,0.0,0.0,0.0,0.0,0.0,0.0,0.0,0.0,0.0,0.0,0.0,0.0,0.0,0.0,0.0,0.0,0.0,0.0,0.0,0.0,0.0,0.0,0.0,0.0,0.0,0.0,0.0,0.0,0.0,0.0,0.0,0.0,0.0,0.0,0.0,0.0,0.0,0.0,0.0,0.0,0.0,0.0,0.0,0.0,0.0,0.0,0.0,0.0,0.0,0.0,0.0,0.0,0.0,0.0,0.0,0.0,0.0,0.0,0.0,0.0,0.0,0.0,0.0,0.0,0.0,0.0,0.0,0.0,0.0,0.0,0.0,0.0,0.0,0.0,0.0,0.0,0.0,0.0,0.0,0.0,0.0,0.0,0.0,0.0,0.0,0.0,0.0,0.0,0.0,0.0,0.0,0.0,0.0,0.0,0.0,0.0,0.0,0.0,0.0,0.0,0.0,0.0,0.0,0.0,0.0,0.0,0.0,0.0,3.0024,3.0206,3.0115,2.9633,2.8726,2.7785,2.659,0.0,0.0,0.0,0.0,0.0,0.0,0.0,0.0,0.0,0.0,0.0,0.0,0.0,0.0,0.0,0.0,0.0,0.0,0.0,0.0,0.0,0.0,0.0,0.0,0.0,0.0,0.0,0.0,0.0,0.0,0.0,0.0,0.0,0.0,0.0,0.0,0.0,0.0,0.0,0.0,0.0,0.0,0.0,0.0,0.0,0.0,0.0,0.0,0.0,0.0,0.0,0.0,0.0,0.0,0.0,0.0,0.0,0.0,0.0,0.0,0.0,0.0,0.0,0.0,0.0,0.0,0.0,0.0,0.0,0.0,0.0,0.0,0.0,0.0,0.0,0.0,0.0,0.0,0.0,0.0,0.0,0.0,0.0,0.0,0.0,0.0,0.0,0.0,0.0,0.0,0.0,0.0,0.0,0.0,0.0,0.0,0.0,0.0,0.0,0.0,0.0,0.0,0.0,0.0,0.0,0.0,0.0,0.0,3.1118,3.1703,3.1694,3.1009,2.9579,2.7538,2.6288,0.0,0.0,0.0,0.0,0.0,0.0,0.0,0.0,0.0,0.0,0.0,0.0,0.0,0.0,0.0,0.0,0.0,0.0,0.0,0.0,0.0,0.0,0.0,0.0,0.0,0.0,0.0,0.0,0.0,0.0,0.0,0.0,0.0,0.0,0.0,0.0,0.0,0.0,0.0,0.0,0.0,0.0,0.0,0.0,0.0,0.0,0.0,0.0,3.124,0.0,0.0,0.0,0.0,0.0,0.0,0.0,0.0,0.0,0.0,0.0,0.0,0.0,0.0,0.0,0.0,0.0,0.0,0.0,0.0,0.0,0.0,0.0,0.0,0.0,0.0,0.0,0.0,0.0,0.0,0.0,0.0,0.0,0.0,0.0,0.0,0.0,0.0,0.0,0.0,0.0,0.0,0.0,0.0,0.0,0.0,0.0,0.0,0.0,0.0,0.0,0.0,0.0,0.0,0.0,0.0,0.0,0.0,0.0,3.149,3.2253,3.2233,3.1607,3.0357,2.8389,2.6795,0.0,0.0,0.0,0.0,0.0,0.0,0.0,0.0,0.0,0.0,0.0,0.0,0.0,0.0,0.0,0.0,0.0,0.0,0.0,0.0,0.0,0.0,0.0,0.0,0.0,0.0,0.0,0.0,0.0,0.0,0.0,0.0,0.0,0.0,0.0,0.0,0.0,0.0,0.0,0.0,0.0,0.0,0.0,0.0,0.0,0.0,0.0,0.0,0.0,0.0,0.0,0.0,0.0,0.0,0.0,0.0,0.0,0.0,0.0,0.0,0.0,0.0,0.0,0.0,0.0,0.0,0.0,0.0,0.0,0.0,0.0,0.0,0.0,0.0,0.0,0.0,0.0,0.0,0.0,0.0,0.0,0.0,0.0,0.0,0.0,0.0,0.0,0.0,0.0,0.0,0.0,0.0,0.0,0.0,0.0,0.0,0.0,0.0,0.0,0.0,0.0,0.0,0.0,0.0,0.0,0.0,0.0,3.0886,3.1579,3.2525,3.245,3.1944,3.1009,2.9814,2.7948,2.5516,0.0,0.0,0.0,0.0,0.0,0.0,0.0,0.0,0.0,0.0,0.0,0.0,0.0,0.0,0.0,0.0,0.0,0.0,0.0,0.0,0.0,0.0,0.0,0.0,0.0,0.0,0.0,0.0,0.0,0.0,0.0,0.0,0.0,0.0,0.0,0.0,0.0,0.0,3.0679,3.2142,0.0,0.0,0.0,0.0,0.0,0.0,0.0,0.0,3.2516,0.0,0.0,0.0,0.0,0.0,0.0,0.0,0.0,0.0,0.0,0.0,0.0,0.0,0.0,0.0,0.0,0.0,0.0,0.0,0.0,0.0,0.0,0.0,0.0,0.0,0.0,0.0,0.0,0.0,0.0,0.0,0.0,0.0,0.0,0.0,0.0,0.0,0.0,0.0,0.0,0.0,0.0,0.0,0.0,0.0,0.0,0.0,0.0,0.0,0.0,0.0,0.0,0.0,0.0,0.0,0.0,3.2075,3.1444,3.1813,3.3269,3.3238,3.2506,3.1082,3.1452,3.0218,2.7236,0.0,0.0,0.0,0.0,0.0,0.0,0.0,0.0,0.0,0.0,0.0,0.0,0.0,0.0,0.0,0.0,0.0,0.0,0.0,0.0,0.0,0.0,0.0,0.0,0.0,0.0,0.0,0.0,0.0,0.0,0.0,0.0,0.0,0.0,0.0,0.0,0.0,0.0,0.0,3.3915,3.5031,0.0,0.0,0.0,0.0,0.0,0.0,0.0,0.0,3.3831,0.0,0.0,0.0,0.0,0.0,0.0,0.0,0.0,0.0,0.0,0.0,0.0,0.0,0.0,0.0,0.0,0.0,0.0,0.0,0.0,0.0,0.0,0.0,0.0,0.0,0.0,0.0,0.0,0.0,0.0,0.0,0.0,0.0,0.0,0.0,0.0,0.0,0.0,0.0,0.0,0.0,0.0,0.0,0.0,0.0,0.0,0.0,0.0,0.0,0.0,0.0,0.0,0.0,0.0,0.0,3.1784,3.1983,3.2549,3.3557,3.3553,3.2728,3.1183,3.1515,3.0392,0.0,0.0,0.0,0.0,0.0,0.0,0.0,0.0,0.0,0.0,0.0,0.0,0.0,0.0,0.0,0.0,0.0,0.0,0.0,0.0,0.0,0.0,0.0,0.0,0.0,0.0,0.0,0.0,0.0,0.0,0.0,0.0,0.0,0.0,0.0,0.0,0.0,0.0,0.0,0.0,3.3973,3.4883,3.5284,0.0,0.0,0.0,0.0,0.0,0.0,3.4059,3.4208,0.0,0.0,0.0,0.0,0.0,0.0,0.0,0.0,0.0,0.0,0.0,0.0,0.0,0.0,0.0,0.0,0.0,0.0,0.0,0.0,0.0,0.0,0.0,0.0,0.0,0.0,0.0,0.0,0.0,0.0,0.0,0.0,0.0,0.0,0.0,0.0,0.0,0.0,0.0,0.0,0.0,0.0,0.0,0.0,0.0,0.0,0.0,0.0,0.0,0.0,0.0,0.0,0.0,0.0,0.0,3.1483,3.2439,3.3223,3.3738,3.3719,3.2903,3.1331,3.1395,3.0317,0.0,0.0,0.0,0.0,0.0,0.0,0.0,0.0,0.0,0.0,0.0,0.0,0.0,0.0,0.0,0.0,0.0,0.0,0.0,0.0,0.0,0.0,0.0,0.0,0.0,0.0,0.0,0.0,0.0,0.0,0.0,0.0,0.0,0.0,0.0,0.0,0.0,0.0,0.0,0.0,0.0,3.5269,3.5624,3.6343,0.0,0.0,0.0,0.0,3.4825,3.4661,0.0,0.0,0.0,0.0,0.0,0.0,0.0,0.0,0.0,0.0,0.0,0.0,0.0,0.0,0.0,0.0,0.0,0.0,0.0,0.0,0.0,0.0,0.0,0.0,0.0,0.0,0.0,0.0,0.0,0.0,0.0,0.0,0.0,0.0,0.0,0.0,0.0,0.0,0.0,0.0,0.0,0.0,0.0,0.0,0.0,0.0,0.0,0.0,0.0,0.0,0.0,0.0,0.0,0.0,0.0,0.0,3.1999,3.2713,3.3387,3.4012,3.3973,3.3172,3.1531,3.2025,3.1261,0.0,0.0,0.0,0.0,0.0,0.0,0.0,0.0,0.0,0.0,0.0,0.0,0.0,0.0,0.0,0.0,0.0,0.0,0.0,0.0,0.0,0.0,0.0,0.0,0.0,0.0,0.0,0.0,0.0,0.0,0.0,0.0,0.0,0.0,0.0,0.0,0.0,0.0,0.0,0.0,0.0,3.8185,3.6741,3.7252,3.7682,0.0,0.0,3.5893,3.7249,3.6848,0.0,0.0,0.0,0.0,0.0,0.0,0.0,0.0,0.0,0.0,0.0,0.0,0.0,0.0,0.0,0.0,0.0,0.0,0.0,0.0,0.0,0.0,0.0,0.0,0.0,0.0,0.0,0.0,0.0,0.0,0.0,0.0,0.0,0.0,0.0,0.0,0.0,0.0,0.0,0.0,0.0,0.0,0.0,0.0,0.0,0.0,0.0,0.0,0.0,0.0,0.0,0.0,0.0,0.0,0.0,3.2095,3.2801,3.4144,3.494,3.507,3.5035,3.3998,3.1904,3.2119,3.1297,0.0,0.0,0.0,0.0,0.0,0.0,0.0,0.0,0.0,0.0,0.0,0.0,0.0,0.0,0.0,0.0,0.0,0.0,0.0,0.0,0.0,0.0,0.0,0.0,0.0,0.0,0.0,0.0,0.0,0.0,0.0,0.0,0.0,0.0,0.0,0.0,0.0,0.0,0.0,0.0,0.0,0.0,3.7462,3.812,0.0,0.0,0.0,3.7079,3.779,0.0,0.0,0.0,0.0,0.0,0.0,0.0,0.0,0.0,0.0,0.0,0.0,0.0,0.0,0.0,0.0,0.0,0.0,0.0,0.0,0.0,0.0,0.0,0.0,0.0,0.0,0.0,0.0,0.0,0.0,0.0,0.0,0.0,0.0,0.0,0.0,0.0,0.0,0.0,0.0,0.0,0.0,0.0,0.0,0.0,0.0,0.0,0.0,0.0,0.0,0.0,0.0,0.0,0.0,0.0,0.0,0.0,3.3512,3.5134,3.5946,3.591,3.5719,3.4507,3.2293,3.215,0.0,0.0,0.0,0.0,0.0,0.0,0.0,0.0,0.0,0.0,0.0,0.0,0.0,0.0,0.0,0.0,0.0,0.0,0.0,0.0,0.0,0.0,0.0,0.0,0.0,0.0,0.0,3.2337,0.0,0.0,0.0,0.0,0.0,0.0,0.0,0.0,0.0,0.0,0.0,0.0,0.0,0.0,3.7906,3.8561,3.935,3.9715,0.0,0.0,3.8401,3.883,3.8677,3.8201,0.0,0.0,0.0,0.0,0.0,0.0,0.0,0.0,0.0,0.0,0.0,0.0,0.0,0.0,0.0,0.0,0.0,0.0,0.0,0.0,0.0,0.0,0.0,0.0,0.0,0.0,0.0,0.0,0.0,0.0,0.0,0.0,0.0,0.0,0.0,0.0,0.0,0.0,0.0,0.0,0.0,0.0,0.0,0.0,0.0,0.0,0.0,0.0,0.0,0.0,0.0,0.0,0.0,0.0,0.0,3.4036,3.4902,3.5684,3.623,3.5465,3.422,3.253,3.2287,3.1457,0.0,0.0,0.0,0.0,0.0,0.0,0.0,0.0,0.0,0.0,0.0,0.0,0.0,0.0,0.0,0.0,0.0,0.0,0.0,0.0,0.0,0.0,0.0,0.0,0.0,0.0,0.0,0.0,0.0,0.0,0.0,0.0,0.0,0.0,0.0,0.0,0.0,0.0,0.0,0.0,0.0,4.0345,4.0411,4.1162,4.1956,0.0,0.0,3.9738,4.1288,4.0831,3.9777,3.8177,0.0,0.0,0.0,0.0,0.0,0.0,0.0,0.0,0.0,0.0,0.0,0.0,0.0,0.0,0.0,0.0,0.0,0.0,0.0,0.0,0.0,0.0,0.0,0.0,0.0,0.0,0.0,0.0,0.0,0.0,0.0,0.0,0.0,0.0,0.0,0.0,0.0,0.0,0.0,0.0,0.0,0.0,0.0,0.0,0.0,0.0,0.0,0.0,0.0,0.0,0.0,0.0,0.0,3.377,3.563,3.6485,3.7029,3.7258,3.6963,3.5735,3.3536,3.2882,3.1988,0.0,0.0,0.0,0.0,0.0,0.0,0.0,0.0,0.0,0.0,0.0,0.0,0.0,0.0,0.0,0.0,0.0,0.0,0.0,0.0,0.0,0.0,0.0,0.0,0.0,0.0,0.0,0.0,3.4475,3.4574,3.5093,0.0,0.0,0.0,0.0,0.0,0.0,0.0,0.0,0.0,0.0,4.0419,4.1978,4.2498,0.0,0.0,4.2341,4.1728,4.1859,4.1131,4.0169,3.8987,3.8368,0.0,0.0,0.0,0.0,0.0,0.0,0.0,0.0,0.0,0.0,0.0,0.0,0.0,0.0,0.0,0.0,0.0,0.0,0.0,0.0,0.0,0.0,0.0,0.0,0.0,0.0,0.0,0.0,0.0,0.0,0.0,0.0,0.0,0.0,0.0,0.0,0.0,0.0,0.0,0.0,0.0,0.0,0.0,0.0,0.0,0.0,0.0,0.0,0.0,0.0,0.0,0.0,3.4649,3.6619,3.7487,3.8063,3.8308,3.7801,3.6573,3.4585,3.3411,3.2384,0.0,0.0,0.0,0.0,0.0,0.0,0.0,0.0,0.0,0.0,0.0,0.0,0.0,0.0,0.0,0.0,0.0,0.0,0.0,0.0,0.0,0.0,0.0,0.0,0.0,0.0,0.0,0.0,3.5146,3.5029,3.5648,0.0,0.0,0.0,0.0,0.0,0.0,0.0,0.0,0.0,0.0,4.1288,4.3288,4.36,4.3677,4.3894,4.3527,4.2968,4.2389,4.1769,4.0922,3.9546,0.0,0.0,0.0,0.0,0.0,0.0,0.0,0.0,0.0,0.0,0.0,0.0,0.0,0.0,0.0,0.0,0.0,0.0,0.0,0.0,0.0,0.0,0.0,0.0,0.0,0.0,0.0,0.0,0.0,0.0,3.5028,0.0,0.0,0.0,0.0,0.0,0.0,0.0,0.0,0.0,0.0,0.0,0.0,0.0,0.0,0.0,0.0,0.0,0.0,0.0,0.0,0.0,0.0,3.5846,3.6712,3.76,3.8411,3.9184,3.7619,3.6365,3.5481,3.3811,3.2491,3.1655,0.0,0.0,0.0,0.0,0.0,0.0,0.0,0.0,0.0,0.0,0.0,0.0,0.0,0.0,0.0,0.0,0.0,0.0,0.0,0.0,0.0,0.0,0.0,0.0,0.0,0.0,3.5726,3.5687,3.5687,0.0,0.0,0.0,0.0,0.0,0.0,0.0,0.0,0.0,0.0,4.214,4.3512,4.4351,4.449,4.4764,4.5488,4.4264,4.3219,4.3222,4.3142,4.2308,0.0,0.0,0.0,0.0,0.0,0.0,0.0,0.0,0.0,0.0,0.0,0.0,0.0,0.0,0.0,0.0,0.0,0.0,0.0,0.0,0.0,0.0,0.0,0.0,0.0,0.0,0.0,3.6991,3.6984,0.0,0.0,0.0,0.0,0.0,0.0,0.0,0.0,0.0,0.0,0.0,3.9912,3.9675,0.0,0.0,0.0,0.0,0.0,0.0,0.0,0.0,0.0,0.0,0.0,0.0,3.6774,3.7622,3.847,3.9091,3.9322,3.8223,3.7237,3.6366,3.4731,3.3437,3.2564,0.0,0.0,0.0,0.0,0.0,0.0,0.0,0.0,0.0,0.0,0.0,0.0,0.0,0.0,0.0,0.0,0.0,0.0,0.0,0.0,0.0,0.0,0.0,0.0,0.0,3.5919,0.0,0.0,0.0,0.0,0.0,0.0,0.0,0.0,0.0,0.0,0.0,4.0274,4.2239,4.3031,4.3943,4.5315,4.5519,4.5645,0.0,0.0,0.0,0.0,0.0,0.0,0.0,0.0,0.0,0.0,0.0,0.0,0.0,0.0,4.512,4.392,4.304,4.2236,4.1369,0.0,0.0,0.0,0.0,0.0,0.0,0.0,0.0,0.0,0.0,0.0,0.0,0.0,0.0,3.8321,0.0,3.7475,0.0,0.0,0.0,0.0,0.0,0.0,0.0,0.0,3.981,4.0264,4.0768,4.0267,4.0286,0.0,3.9682,3.8418,0.0,0.0,0.0,0.0,0.0,0.0,0.0,0.0,3.8122,3.8971,3.982,4.0267,4.0209,3.9144,3.8125,3.7254,3.5327,3.39,3.3031,3.2797,3.2781,0.0,0.0,0.0,0.0,0.0,0.0,0.0,0.0,0.0,0.0,0.0,0.0,0.0,0.0,0.0,0.0,0.0,0.0,0.0,0.0,0.0,0.0,0.0,3.6024,0.0,0.0,0.0,0.0,0.0,0.0,0.0,0.0,0.0,4.0063,4.0839,4.2019,4.3667,4.4193,4.4799,4.5887,0.0,0.0,0.0,0.0,0.0,0.0,0.0,4.3213,4.4026,4.3947,4.4145,4.5318,4.6709,4.778,4.8064,0.0,0.0,4.5819,4.4652,4.381,4.3557,4.3539,4.3303,4.2481,4.2839,4.3165,0.0,0.0,0.0,0.0,0.0,0.0,0.0,0.0,3.9867,4.0034,0.0,3.911,0.0,0.0,0.0,0.0,0.0,4.0023,0.0,0.0,4.0577,4.0887,4.0909,4.0909,4.0909,4.0868,4.089,4.0483,3.961,3.7143,0.0,0.0,0.0,0.0,0.0,0.0,3.9865,4.0617,4.1486,4.191,4.1833,4.0289,3.9016,3.807,3.5658,3.3999,3.3205,3.3886,3.3922,3.315,3.3903,0.0,0.0,0.0,0.0,0.0,0.0,0.0,0.0,0.0,0.0,0.0,0.0,0.0,0.0,0.0,0.0,0.0,0.0,0.0,0.0,3.5769,0.0,0.0,0.0,0.0,0.0,0.0,0.0,0.0,0.0,0.0,4.1104,4.3171,4.481,4.4829,0.0,0.0,0.0,0.0,4.6154,4.6151,4.5472,4.4986,4.5041,4.4851,4.4514,4.3902,0.0,0.0,4.75,4.8167,4.8465,4.7694,4.8199,4.8896,4.9564,4.7083,4.5315,4.5938,4.4971,4.4117,4.4708,4.5085,4.5388,4.3536,0.0,0.0,0.0,0.0,4.3127,4.3563,4.437,4.3511,4.2954,4.2554,4.0848,0.0,0.0,0.0,0.0,0.0,0.0,4.1336,4.2299,4.2549,4.2673,4.2708,4.2728,4.273,4.2728,4.2728,4.2586,4.2241,4.0348,3.9015,3.8283,0.0,0.0,0.0,0.0,4.1426,4.1635,4.2463,4.2598,4.1963,4.0942,3.9702,3.8211,3.6316,3.545,3.5759,3.4889,3.4544,3.4911,3.5179,0.0,0.0,0.0,0.0,0.0,0.0,0.0,0.0,0.0,0.0,0.0,0.0,0.0,0.0,0.0,0.0,0.0,0.0,0.0,3.7501,3.7565,3.7907,0.0,0.0,0.0,0.0,0.0,0.0,0.0,0.0,0.0,4.3695,4.4371,4.5104,0.0,0.0,4.6181,4.6181,4.6756,4.7147,4.7115,4.7368,0.0,0.0,4.6865,4.6177,4.7804,4.8676,4.9372,5.0011,5.0299,5.0379,5.0128,4.9857,4.9751,4.9847,4.8734,4.7721,4.7897,4.8044,4.8066,4.7812,4.8163,4.8494,4.6723,4.5404,4.4718,4.4535,4.4696,4.4704,4.4804,4.4943,4.445,4.4123,4.389,4.2471,4.2039,4.23,4.1297,0.0,0.0,0.0,4.2743,4.3426,4.3429,4.3456,4.3486,4.3486,4.3486,4.3486,4.3486,4.3481,4.3429,4.2422,4.1392,4.0322,0.0,0.0,4.1049,4.2087,4.2784,4.306,4.3599,4.3592,4.3037,4.1574,4.0136,3.874,3.7406,3.6922,3.7364,3.611,3.5629,3.6149,3.5869,3.5703,0.0,0.0,0.0,0.0,0.0,0.0,0.0,0.0,0.0,0.0,0.0,3.6636,0.0,0.0,0.0,0.0,3.6515,3.74,3.8241,3.8338,0.0,0.0,0.0,0.0,0.0,0.0,0.0,4.2663,4.4004,4.489,4.4852,4.5471,4.6003,4.6185,4.6468,4.6691,4.669,0.0,4.8006,4.7974,4.8383,4.8865,4.9328,4.8126,4.7724,4.958,4.9644,4.9936,5.1049,5.1015,5.0885,5.1128,5.0917,5.0625,5.0621,5.0134,4.9511,4.8905,4.9174,4.9478,4.9359,4.9769,4.9945,4.9512,4.8671,4.7086,4.5882,4.5034,4.5015,4.458,4.3809,4.383,4.4207,4.4812,4.3974,4.3978,4.4594,4.4605,0.0,4.3554,4.4347,4.4341,4.3702,4.3702,4.3702,4.3702,4.3702,4.3702,4.3721,4.3702,4.3702,4.3721,4.3624,4.3595,4.3535,4.1202,4.1186,4.3391,4.3507,4.3931,4.4781,4.4797,4.4727,4.4579,4.225,4.059,3.9722,3.8807,3.826,3.8182,3.7295,3.6812,3.6773,3.6101,3.5713,3.5713,0.0,0.0,0.0,0.0,0.0,0.0,0.0,0.0,0.0,0.0,0.0,0.0,0.0,0.0,0.0,3.6764,0.0,3.852,3.86,0.0,0.0,0.0,4.1342,4.2218,4.3078,4.3609,4.3609,0.0,0.0,4.5109,4.6499,4.7225,4.6484,4.7027,4.7518,4.7518,4.8262,4.8822,4.8828,4.8899,4.8936,4.9171,4.8995,4.9108,4.9756,4.9387,4.9705,5.0995,5.08,5.0605,5.124,5.1383,5.1366,5.1386,5.1305,5.0906,4.9367,4.9093,4.9325,5.0028,5.0243,5.0282,5.0772,5.0539,5.0139,4.9084,4.767,4.7675,4.7562,4.7309,4.6693,4.613,4.5669,4.4853,4.4224,4.3789,4.3781,4.4036,4.4474,4.4687,4.5001,4.5397,4.5397,4.5416,4.5416,4.5397,4.5397,4.5414,4.5397,4.5416,4.5378,4.4792,4.479,4.5292,4.4158,4.384,4.4357,4.4397,4.4785,4.5617,4.5617,4.5301,4.4691,4.3425,4.236,4.151,4.0037,3.8949,3.8285,3.6791,3.5977,3.5979,3.581,3.5716,3.5716,3.6346,0.0,0.0,0.0,0.0,0.0,0.0,0.0,0.0,0.0,3.96,3.8746,0.0,3.8908,0.0,3.8565,3.9424,4.0228,4.0308,0.0,0.0,4.184,4.2291,4.3104,4.3997,4.4569,4.4569,4.5388,4.6191,4.6813,4.7246,4.7655,4.8042,4.83,4.8468,4.8488,4.9207,4.9772,4.9817,5.0253,5.0703,5.0661,5.0702,5.0486,4.999,5.0321,5.0859,5.1251,5.1173,5.1098,5.128,5.1366,5.1387,5.1385,5.1393,5.1278,5.0867,5.077,5.0828,5.1042,5.1081,5.1081,5.1199,5.1199,5.1199,5.0425,4.9185,4.9185,4.8952,4.8561,4.8075,4.7609,4.7145,4.6698,4.6016,4.5217,4.5198,4.5239,4.5339,4.5339,4.5572,4.5982,4.5982,4.5982,4.5982,4.5982,4.5982,4.5982,4.5982,4.5982,4.5982,4.5552,4.5552,4.5982,4.5552,4.5323,4.5273,4.5287,4.552,4.5953,4.5958,4.5541,4.4704,4.384,4.3178,4.2654,4.1025,3.9901,3.9411,3.8132,3.7262,3.6869,3.6845,3.6852,3.6854,3.7349,3.7635,0.0,0.0,0.0,0.0,0.0,0.0,0.0,0.0,0.0,0.0,0.0,3.9811,4.0109,4.0223,4.0758,4.1986,4.2103,4.2297,4.2784,4.3195,4.3656,4.4082,4.4914,4.5491,4.5471,4.5905,4.6521,4.7335,4.7793,4.8334,4.916,4.9671,4.9812,4.9485,5.0053,5.058,5.0621,5.0957,5.1268,5.134,5.1324,5.1119,5.0685,5.0949,5.1312,5.134,5.1349,5.1346,5.1327,5.1372,5.1384,5.1402,5.1386,5.1399,5.1399,5.1399,5.1383,5.1392,5.1394,5.1394,5.1203,5.1206,5.1203,5.0759,5.0084,5.0084,4.951,4.8599,4.8608,4.8616,4.8624,4.8488,4.8038,4.7317,4.72,4.6736,4.6039,4.6022,4.6022,4.6022,4.602,4.6039,4.602,4.602,4.6022,4.6022,4.6015,4.6015,4.602,4.6015,4.6029,4.6032,4.6032,4.6007,4.5982,4.5982,4.5982,4.5982,4.5997,4.5651,4.4891,4.4015,4.3516,4.3341,4.1635,4.0604,4.0471,3.9698,3.8942,3.8219,3.8363,3.8435,3.8321,3.855,3.8676,0.0,3.8676,0.0,0.0,0.0,0.0,0.0,0.0,0.0,0.0,3.9602,4.0675,4.2175,4.1722,4.1953,4.3452,4.3608,4.3648,4.3764,4.4449,4.4959,4.5076,4.5742,4.6213,4.6211,4.6256,4.6614,4.75,4.834,4.9202,5.0038,5.0754,5.095,5.0409,5.0742,5.1172,5.1229,5.1226,5.126,5.1295,5.1297,5.128,5.1275,5.1263,5.1316,5.1357,5.1395,5.1389,5.139,5.1385,5.1375,5.1391,5.1387,5.1397,5.1397,5.1397,5.1385,5.1402,5.1388,5.139,5.1276,5.1274,5.1274,5.1176,5.1042,5.1042,5.0123,4.8624,4.8652,4.8675,4.8633,4.795,4.7539,4.7325,4.6701,4.6331,4.6156,4.6156,4.6175,4.6175,4.6156,4.6175,4.6175,4.6156,4.6156,4.6154,4.6122,4.6122,4.6156,4.6122,4.6082,4.6082,4.6082,4.6042,4.6004,0.0,0.0,0.0,4.5994,4.5914,4.5739,4.4957,4.4213,4.3454,4.1163,0.0,3.8876,3.8022,3.7497,3.7379,3.8665,0.0,0.0,0.0,0.0,0.0,0.0,0.0,0.0,0.0,0.0,0.0,4.1916,4.1548,4.1573,4.1719,4.1935,4.2273,4.2786,4.3237,4.3569,4.3608,4.39,4.4584,4.48,4.5167,4.585,4.616,4.627,4.629,4.6832,4.7538,4.8357,4.9259,5.0048,5.0813,5.1202,5.1245,5.1079,5.116,5.13,5.1348,5.1305,5.1282,5.1308,5.1295,5.1312,5.1297,5.1304,5.1298,5.1283,5.1311,5.1299,5.1271,5.1303,5.1279,5.1279,5.1371,5.1334,5.1375,5.1375,5.1396,5.1401,5.1383,5.1383,5.13,0.0,5.13,5.13,0.0,5.13,5.0769,4.9948,4.9954,4.9746,4.9278,4.8434,4.8045,4.8027,4.7599,4.7191,4.6801,4.678,4.6587,4.6217,4.6626,4.6801,4.6782,4.6801,4.678,4.6762,4.6353,4.6179,4.6197,4.6179,4.6148,4.6148,4.6148,4.6138,4.6096,4.6071,4.6027,4.5982,4.5982,4.5982,4.5963,4.5222,4.4601,4.4093,0.0,0.0,0.0,0.0,0.0,0.0,0.0,0.0,0.0,0.0,0.0,4.0375,4.0708,4.1148,4.1562,4.162,4.2022,4.2881,4.2973,4.2977,4.2937,4.2973,4.3166,4.3556,4.4015,4.4471,4.4882,4.4921,4.5116,4.5545,4.5595,4.5778,4.6169,4.6275,4.6301,4.6324,4.6657,4.7225,4.8038,4.8903,4.9744,5.0581,5.105,5.1294,5.1351,5.1326,5.1308,5.1389,5.1346,5.1307,5.1339,5.1352,5.134,5.1352,5.1347,5.1152,5.078,5.1068,5.1116,5.0376,5.039,5.0602,5.019,5.0394,5.0725,5.0764,5.1057,5.1135,5.0864,5.1091,5.1394,5.1321,5.1321,5.134,5.1321,5.1321,5.1301,5.1321,5.1321,0.0,0.0,0.0,4.9329,4.8961,4.8924,4.8633,4.8105,4.7444,4.7442,4.7073,4.6489,4.7288,4.7658,4.7639,4.7501,4.7423,4.7403,4.6599,4.6211,4.6216,4.6211,4.6208,4.6227,4.6362,4.6419,4.6391,4.6224,4.6089,4.603,4.601,4.5982,4.5963,4.5222,4.4792,4.4792,4.3105,4.1862,4.116,4.1121,4.0752,3.9994,4.0856,4.129,4.1176,4.128,4.1399,4.1451,4.1455,4.1762,4.2476,4.2542,4.2938,4.3779,4.4038,4.4003,4.3667,4.3804,4.4188,4.4869,4.5119,4.5519,4.6223,4.6301,4.6301,4.6301,4.6301,4.6281,4.6301,4.6457,4.6515,4.6381,4.6769,4.7148,4.7751,4.8573,4.9355,5.0176,5.0782,5.1106,5.1181,5.123,5.1339,5.1393,5.1178,5.1063,5.1113,5.0917,5.0976,5.0784,5.0848,5.0675,5.02,5.048,5.031,4.9196,4.9443,4.9512,4.9034,4.9373,4.9783,4.9781,5.0326,5.0696,5.0231,5.0488,5.0896,5.1385,5.1385,5.1385,5.1385,5.1385,5.1385,5.1385,5.1384,5.1399,5.1323,5.1131,5.0291,4.99,4.9823,4.8398,4.7676,4.7578,4.7578,4.75,4.7442,4.8223,4.8614,4.8555,4.7891,4.7559,4.7499,4.6661,4.6233,4.6269,4.6251,4.6201,4.6298,4.6942,4.7297,4.7193,4.6523,4.6167,4.6162,4.6047,4.5982,4.5982,4.5222,4.4792,4.4734,4.3127,4.2155,4.2036,4.2019,4.1626,4.081,4.2265,4.2832,4.2181,4.2795,4.3226,4.3229,4.3231,4.3291,4.3393,4.346,4.3873,4.4748,4.5514,4.532,4.3854,4.4382,4.4851,4.5007,4.5655,4.6145,4.6301,4.6301,4.6301,4.6301,4.6301,4.6301,4.6359,4.6982,4.7138,4.6476,4.8273,4.91,4.8535,4.9196,4.9988,5.077,5.0478,5.0268,5.039,5.0935,5.1338,5.1282,5.0741,5.0351,5.0232,4.9639,4.9404,4.9156,4.9283,4.93,4.9035,4.9215,4.9178,4.8807,4.8858,4.8886,4.8701,4.8863,4.901,4.9023,4.9294,4.9469,4.98,4.9593,4.9441,5.1394,5.1394,5.1394,5.1668,5.2098,5.2118,5.2098,5.2058,5.1598,5.113,5.0612,4.9793,4.9656,5.0007,4.9304,4.8953,4.8953,4.8953,4.87,4.8329,4.9129,4.95,4.948,4.9129,4.8953,4.8894,4.8047,4.7404,4.7059,4.7403,4.7398,4.7046,4.7788,4.7971,4.7474,4.7572,4.7584,4.7526,4.659,4.6122,4.6083,4.5752,4.5343,4.4854,4.4016,4.3393,4.2988,4.2927,4.2749,4.2387,4.3121,4.3385,4.304,4.3385,4.3616,4.3653,4.3655,4.3856,4.4337,4.4817,4.5276,4.5674,4.6066,4.5988,4.5188,4.546,4.5695,4.5714,4.6086,4.6301,4.6301,4.6301,4.6301,4.6301,4.671,4.7002,4.7081,4.7744,4.79,4.7256,4.8008,4.839,4.7556,4.8164,4.8788,4.9238,4.9218,4.9371,4.9403,4.974,4.9997,4.9959,4.9648,4.9433,4.9367,4.9091,4.8817,4.8797,4.8807,4.8609,4.8327,4.8431,4.8377,4.7674,4.7769,4.7845,4.7558,4.7812,4.8218,4.8791,4.9216,4.9488,4.9352,4.869,4.8612,5.1766,5.1592,5.1612,5.2002,5.2609,5.2609,5.2609,5.2512,5.169,5.0929,5.0267,4.9647,4.9774,5.0338,5.0182,5.0104,5.0104,5.0104,4.9715,4.9228,4.9988,5.0398,5.0358,5.0202,5.0104,5.0007,4.9227,4.8466,4.8017,4.8505,4.8603,4.825,4.8603,4.8537,4.8127,4.8557,4.8782,4.8643,4.745,4.6682,4.647,4.6314,4.5866,4.5262,4.5138,4.4822,4.4228,4.4143,4.4043,4.3898,4.3906,4.3911,4.3893,4.3919,4.4031,4.4247,4.4288,4.4568,4.5243,4.591,4.6301,4.6301,4.6301,4.6301,4.6301,4.6301,4.6301,4.6301,4.6281,4.6301,4.6301,4.6301,4.6301,4.6359,4.7081,4.7411,4.7411,4.8192,4.8388,4.7568,4.7626,4.7596,4.6945,4.7144,4.7593,4.7767,4.8264,4.8721,4.8603,4.8544,4.8505,4.8338,4.8396,4.8515,4.8513,4.8267,4.8172,4.8235,4.8174,4.7843,4.7535,4.784,4.7787,4.6733,4.6836,4.6967,4.6446,4.6728,4.7395,4.7947,4.8402,4.8745,4.8206,4.8341,4.8341,5.2899,5.2275,5.215,5.2277,5.2344,5.2364,5.2347,5.2247,5.1428,5.102,5.0874,5.1076,5.1139,5.116,5.0475,5.0143,5.0143,5.0104,5.0085,5.0086,5.0866,5.1277,5.1159,5.0476,5.0104,5.0026,4.9286,4.8876,4.872,4.8798,4.9149,4.9695,4.9169,4.9187,4.9672,4.9165,4.8833,4.8792,4.8657,4.8147,4.7292,4.6587,4.6158,4.61,4.6079,4.6038,4.5852,4.596,4.5572,4.4876,4.4764,4.4777,4.4803,4.4839,4.5221,4.5947,4.6005,4.6123,4.6164,4.6262,4.6301,4.6301,4.6301,4.6301,4.6301,4.6301,4.6301,4.6301,4.6301,4.6301,4.6301,4.6301,4.6301,4.634,4.7138,4.7294,4.6866,4.7823,4.8194,4.6573,4.7705,4.837,4.7477,4.7401,4.7517,4.7442,4.8006,4.8314,4.7824,4.7707,4.7473,4.7004,4.7186,4.7655,4.7648,4.7023,4.6833,4.6691,4.6593,4.6613,4.6654,4.6595,4.6422,4.6548,4.636,4.6425,4.6367,4.6366,4.641,4.6894,4.7037,4.6718,4.676,4.7937,4.9048,5.1854,5.1543,5.1526,5.184,5.2274,5.2309,5.2309,5.2215,5.1374,5.1005,5.1014,5.1106,5.1205,5.127,5.099,5.0866,5.0866,5.0866,5.0866,5.0886,5.1238,5.1394,5.1355,5.1042,5.0866,5.0847,5.0496,5.0066,4.9637,4.9577,4.9754,5.0085,5.0243,5.0281,5.0143,5.0261,5.0321,5.0321,4.9832,4.9374,4.8947,4.8166,4.7502,4.7071,4.6978,4.6724,4.6327,4.6219,4.6061,4.5746,4.5735,4.5721,4.5722,4.575,4.593,4.6262,4.6301,4.6301,4.6301,4.6301,4.6301,4.6301,4.6301,4.6301,4.6301,4.6301,4.6301,4.6301,4.6301,4.6301,4.6301,4.6301,4.6301,4.6476,4.749,4.7958,4.7216,4.8544,4.8934,4.7412,4.7647,4.7785,4.7048,4.6839,4.6841,4.686,4.7173,4.7212,4.688,4.6841,4.6685,4.6451,4.6645,4.6778,4.6811,4.6593,4.632,4.6301,4.6301,4.6301,4.6302,4.6301,4.6301,4.6301,4.6291,4.6301,4.6307,4.6328,4.6366,4.6609,4.6953,4.6969,4.6958,4.7368,4.755,5.1451,5.1312,5.149,5.1978,5.2547,5.2819,5.2761,5.245,5.1629,5.1122,5.0939,5.0953,5.1024,5.1133,5.1241,5.1319,5.1334,5.1355,5.1363,5.1392,5.1394,5.1394,5.1394,5.1394,5.1394,5.1394,5.1355,5.1062,5.0515,5.0456,5.0456,5.0574,5.1101,5.1081,5.0593,5.114,5.1394,5.1336,5.0749,5.0456,5.0358,4.9833,4.8895,4.7741,4.7552,4.7162,4.6338,4.6246,4.6246,4.63,4.6301,4.6301,4.6301,4.6301,4.6301,4.6301,4.6301,4.6301,4.6301,4.6301,4.6301,4.6301,4.6301,4.6301,4.6301,4.6301,4.6301,4.6301,4.6301,4.6301,4.6301,4.6301,4.6301,4.6397,4.7627,4.8115,4.7415,4.8567,4.8782,4.7516,4.7186,4.7051,4.6471,4.6338,4.636,4.6379,4.634,4.6302,4.6302,4.634,4.6321,4.6302,4.6301,4.6318,4.629,4.6306,4.6306,4.6306,4.6288,4.6305,4.6304,4.6305,4.6302,4.6302,4.6302,4.6304,4.6296,4.6342,4.6385,4.6952,4.726,4.7278,4.696,4.6888,4.6917,5.2626,5.2021,5.2728,5.2983,5.3175,5.3888,5.382,5.2945,5.217,5.1414,5.0807,5.0892,5.0929,5.0932,5.1105,5.112,5.1199,5.1207,5.126,5.1364,5.139,5.1393,5.1394,5.1394,5.1394,5.1394,5.1394,5.1375,5.1336,5.1297,5.1336,5.1355,5.1433,5.1394,5.1297,5.1394,5.1414,5.1394,5.1297,5.1297,5.1297,5.1258,5.0027,4.7997,4.7644,4.7312,4.6515,4.6339,4.6339,4.632,4.6359,4.634,4.6301,4.6319,4.6359,4.6358,4.6339,4.632,4.6359,4.632,4.6301,4.6301,4.6301,4.6301,4.6301,4.6301,4.6301,4.6301,4.6301,4.6301,4.6301,4.6301,4.6301,4.6359,4.712,4.7279,4.6506,4.7345,4.729,4.6631,4.6475,4.6456,4.6321,4.6301,4.6303,4.6303,4.6302,4.6302,4.6303,4.6302,4.6303,4.6303,4.6303,4.6301,4.6301,4.6296,4.6296,4.6296,4.6295,4.6293,4.6293,4.6292,4.6288,4.6305,4.6305,4.6305,4.6303,4.6309,4.6318,4.6639,4.705,4.7068,4.6698,4.781,4.7765,5.2697,5.1923,5.2236,5.2365,5.2351,5.2164,5.2164,5.2294,5.1491,5.0996,5.0837,5.1279,5.1254,5.0819,5.1934,5.1903,5.1136,5.1069,5.1111,5.115,5.1241,5.1283,5.1286,5.1358,5.1394,5.1394,5.1394,5.1687,5.2118,5.1687,5.1707,5.2176,5.2235,5.1961,5.159,5.196,5.1981,5.1453,5.1394,5.1394,5.1394,5.1394,5.0671,4.9323,4.9206,4.8797,4.7939,4.7901,4.7666,4.7178,4.7139,4.6865,4.6436,4.6827,4.7119,4.7138,4.7138,4.7138,4.706,4.6612,4.6301,4.6301,4.6301,4.6301,4.6301,4.6301,4.6301,4.6301,4.6301,4.6301,4.6301,4.6301,4.6301,4.6419,4.7047,4.7245,4.6722,4.7037,4.7255,4.6516,4.6303,4.6305,4.6306,4.6287,4.6288,4.6288,4.6289,4.6289,4.6289,4.6289,4.6289,4.6289,4.6288,4.6288,4.6288,4.6303,4.63,4.6301,4.63,4.6299,4.6299,4.6299,4.6297,4.6295,4.6294,4.6293,4.6294,4.6292,4.6297,4.638,4.6777,4.6738,4.6345,4.7164,4.7202,5.287,5.2409,5.262,5.2736,5.2697,5.2438,5.2472,5.2697,5.2164,5.163,5.1298,5.1678,5.1447,5.1015,5.2145,5.2274,5.1403,5.1611,5.1503,5.1066,5.1378,5.1429,5.1191,5.1262,5.1487,5.1725,5.1799,5.202,5.2235,5.1981,5.2,5.2235,5.2527,5.2274,5.1648,5.2,5.196,5.1492,5.1394,5.1394,5.1394,5.1394,5.112,5.0613,5.0535,4.9949,4.8876,4.8798,4.8426,4.7762,4.7841,4.7587,4.6885,4.7275,4.7606,4.7586,4.7314,4.7314,4.7451,4.6787,4.6301,4.6301,4.6301,4.6301,4.6301,4.6301,4.6301,4.6301,4.6301,4.6301,4.6304,4.6305,4.6305,4.6364,4.6838,4.696,4.6435,4.6829,4.685,4.6442,4.6287,4.6288,4.6289,4.6289,4.6289,4.6289,4.6289,4.6289,4.6289,4.6289,4.6289,4.6289,4.6289,4.6289,4.6289,4.6289,4.6289,4.6289,4.6289,4.6304,4.6304,4.6304,4.6303,4.6302,4.6302,4.6302,4.6301,4.6299,4.6299,4.6301,4.6381,4.6461,4.6305,4.6308,4.6504,5.3255,5.3294,5.4107,5.4318,5.4337,5.4761,5.4991,5.4337,5.4222,5.3183,5.2024,5.2019,5.1755,5.1169,5.2082,5.2116,5.2122,5.2938,5.2605,5.1386,5.1958,5.1912,5.128,5.1429,5.1793,5.237,5.2602,5.2252,5.1687,5.2215,5.2254,5.1785,5.2371,5.2274,5.1394,5.157,5.1531,5.1414,5.1394,5.1394,5.1394,5.1394,5.1355,5.1316,5.1238,5.0457,4.8935,4.8935,4.8661,4.7978,4.8368,4.8368,4.7548,4.7528,4.7606,4.7509,4.6846,4.6846,4.7392,4.6807,4.6301,4.6301,4.6301,4.6301,4.6301,4.6301,4.6301,4.6301,4.6302,4.6304,4.6291,4.6293,4.6294,4.6293,4.6435,4.6401,4.6345,4.6306,4.6307,4.6289,4.6289,4.6289,4.6289,4.6289,4.6289,4.6289,4.6289,4.6289,4.6289,4.6289,4.6289,4.6289,4.6289,4.6289,4.6289,4.6289,4.6289,4.6289,4.6289,4.6287,4.6287,4.6287,4.6306,4.6306,4.6305,4.6305,4.6305,4.6304,4.6303,4.6304,4.6302,4.6302,4.6305,4.6327,4.6444,5.4587,5.4145,5.4381,5.4511,5.4453,5.4145,5.4126,5.44,5.3895,5.3299,5.2967,5.3428,5.3203,5.2895,5.3837,5.3857,5.2977,5.4216,5.4101,5.2805,5.2895,5.2903,5.2681,5.2763,5.2726,5.2635,5.3173,5.3058,5.2444,5.2546,5.2527,5.241,5.2527,5.2235,5.1492,5.1941,5.2039,5.1453,5.1394,5.1394,5.1394,5.1394,5.1394,5.1336,5.0827,5.0203,4.9773,5.0262,5.0144,4.9284,4.8993,4.8174,4.712,4.7275,4.7586,4.7586,4.7392,4.7275,4.7411,4.6807,4.6301,4.6301,4.6301,4.6301,4.6301,4.6301,4.6301,4.6302,4.6306,4.6291,4.6294,4.6301,4.6302,4.63,4.6303,4.6306,4.6287,4.6288,4.6289,4.6289,4.6289,4.6289,4.6289,4.6289,4.6289,4.6289,4.6289,4.6289,4.6289,4.6289,4.6289,4.6289,4.6289,4.6289,4.6289,4.6289,4.6289,4.6289,4.6289,4.6289,4.6289,4.6289,4.6289,4.6289,4.6289,4.6289,4.6289,4.6287,4.6306,4.6306,4.6306,4.6306,4.6306,4.6423,4.6639,5.4472,5.403,5.403,5.4203,5.4381,5.3563,5.3876,5.4703,5.4049,5.3683,5.3818,5.4241,5.401,5.3606,5.4645,5.4645,5.3895,5.5107,5.5131,5.4175,5.3837,5.3656,5.347,5.384,5.3401,5.2743,5.329,5.3147,5.2205,5.2463,5.2491,5.229,5.2527,5.2274,5.1511,5.1882,5.1902,5.1453,5.1394,5.1394,5.1316,5.1081,5.0925,5.0808,5.0086,4.9656,4.9676,5.0165,5.0048,4.9266,4.8622,4.7822,4.6924,4.7314,4.7606,4.7547,4.7333,4.7236,4.7451,4.6807,4.6301,4.6301,4.6301,4.6301,4.6301,4.6301,4.6302,4.6306,4.629,4.6295,4.63,4.6304,4.6306,4.6306,4.6288,4.6288,4.6288,4.6289,4.6289,4.6289,4.6289,4.6289,4.6289,4.6289,4.6289,4.6289,4.6289,4.6289,4.6289,4.6289,4.6289,4.6289,4.6289,4.6289,4.6289,4.6289,4.6289,4.6289,4.6289,4.6289,4.6289,4.6289,4.6289,4.6289,4.6289,4.6289,4.6289,4.6289,4.6288,4.6289,4.6289,4.6289,4.6348,4.6797,4.6972,5.3217,5.3197,5.3197,5.3678,5.4222,5.353,5.4049,5.5285,5.4761,5.4472,5.4549,5.4645,5.4241,5.3722,5.4491,5.4703,5.4703,5.5261,5.5651,5.5338,5.4883,5.4234,5.3826,5.4286,5.3859,5.2952,5.3404,5.2936,5.1914,5.2409,5.2238,5.1995,5.2313,5.2293,5.1687,5.1492,5.1472,5.1414,5.1316,5.1238,5.1219,5.0574,5.0085,5.0027,4.9325,4.8857,4.8779,4.8701,4.8388,4.7743,4.7742,4.7607,4.747,4.7528,4.745,4.7372,4.6729,4.6827,4.7138,4.6749,4.6301,4.6301,4.6301,4.6301,4.6301,4.6302,4.6306,4.6291,4.6295,4.6299,4.6305,4.6287,4.6288,4.6289,4.6289,4.6289,4.6289,4.6289,4.6289,4.6289,4.6289,4.6289,4.6289,4.6289,4.6289,4.6289,4.6289,4.6289,4.6289,4.6289,4.6289,4.6289,4.6289,4.6289,4.6289,4.6289,4.6289,4.6289,4.6289,4.6289,4.6289,4.6289,4.6289,4.6289,4.6289,4.6289,4.6289,4.6289,4.6289,4.6289,4.6289,4.6289,4.6484,4.6816,4.7148,5.3197,5.3197,5.3197,5.3337,5.3505,5.326,5.378,5.4722,5.4587,5.4741,5.5247,5.5401,5.5208,5.5068,5.5228,5.5381,5.542,5.5574,5.5689,5.567,5.5516,5.5304,5.4939,5.4669,5.4413,5.4052,5.4154,5.3974,5.3178,5.316,5.3267,5.3266,5.2174,5.202,5.2196,5.1707,5.1414,5.1297,5.0749,5.0495,5.0495,5.028,4.9773,4.915,4.8896,4.8466,4.7919,4.7276,4.7237,4.7607,4.7606,4.7275,4.6768,4.669,4.6729,4.6651,4.6495,4.6378,4.6534,4.6437,4.6301,4.6301,4.6301,4.6301,4.6301,4.6306,4.6291,4.6295,4.63,4.6305,4.6287,4.6288,4.6289,4.6289,4.6289,4.6289,4.6289,4.6289,4.6289,4.6289,4.6289,4.6289,4.6289,4.6289,4.6289,4.6289,4.6289,4.6289,4.6289,4.6289,4.6289,4.6289,4.6289,4.6289,4.6289,4.6289,4.6289,4.6289,4.6289,4.6289,4.6289,4.6289,4.6289,4.6289,4.6289,4.6289,4.6289,4.6289,4.6289,4.6289,4.6289,4.6308,4.6328,4.6562,4.7051,5.2164,5.2145,5.2145,5.2351,5.2582,5.2299,5.2837,5.3799,5.3972,5.4414,5.5126,5.5588,5.5689,5.5689,5.5689,5.5689,5.5689,5.5689,5.5689,5.5689,5.567,5.5651,5.5555,5.517,5.4885,5.4612,5.4621,5.3983,5.3206,5.3138,5.3238,5.3034,5.2068,5.1882,5.2547,5.1863,5.1394,5.1316,5.0886,5.0652,5.0652,5.026,4.989,4.9227,4.8759,4.7899,4.7139,4.6905,4.6963,4.706,4.7022,4.6807,4.6378,4.6301,4.6301,4.6301,4.6301,4.6301,4.6301,4.6301,4.6301,4.6301,4.6301,4.6303,4.6306,4.6291,4.6294,4.6301,4.6305,4.6287,4.6288,4.6289,4.6289,4.6289,4.6289,4.6308,4.6308,4.6289,4.6289,4.6289,4.6289,4.6289,4.6289,4.6289,4.6289,4.6289,4.6289,4.6289,4.6289,4.6289,4.6289,4.6289,4.6289,4.6289,4.6289,4.6289,4.6289,4.6289,4.6289,4.6289,4.6289,4.6289,4.6289,4.6289,4.6289,4.6289,4.6289,4.6289,4.6289,4.6289,4.6289,4.6445,4.6562,4.6797,4.7226,5.0688,5.0688,5.0688,5.1125,5.162,5.1068,5.1707,5.287,5.3068,5.3645,5.453,5.5266,5.5535,5.5689,5.5689,5.5689,5.5689,5.5689,5.5689,5.5689,5.5689,5.5689,5.567,5.5401,5.5123,5.4734,5.454,5.3865,5.3147,5.2744,5.2583,5.2708,5.2039,5.1911,5.234,5.1819,5.1433,5.1355,5.1101,5.0944,5.0866,5.0398,4.9967,4.948,4.8368,4.7588,4.712,4.7042,4.7121,4.6497,4.6438,4.6498,4.64,4.6302,4.6303,4.6303,4.6303,4.6303,4.6301,4.6301,4.6302,4.6302,4.6303,4.6306,4.6293,4.6296,4.63,4.6305,4.6287,4.6288,4.6289,4.6289,4.6406,4.6465,4.6465,4.6328,4.6406,4.6367,4.6289,4.6289,4.6289,4.6289,4.6289,4.6289,4.6289,4.6289,4.6289,4.6289,4.6289,4.6289,4.6289,4.6289,4.6289,4.6289,4.6289,4.6289,4.6289,4.6289,4.6289,4.6289,4.6289,4.6289,4.6289,4.6289,4.6289,4.6289,4.6289,4.6289,4.6289,4.6289,4.6289,4.6699,4.7109,4.7441,4.7832,5.0688,5.0688,5.0688,5.0784,5.0919,5.0784,5.126,5.2159,5.2192,5.3044,5.4241,5.4684,5.5112,5.567,5.567,5.5689,5.5689,5.5689,5.5689,5.5689,5.5689,5.5689,5.5516,5.5049,5.5011,5.4914,5.403,5.4005,5.4276,5.3089,5.291,5.383,5.2273,5.1679,5.229,5.1777,5.1393,5.1276,5.0787,5.0532,5.0554,5.0338,4.9871,4.9227,4.8251,4.7978,4.7941,4.7166,4.6837,4.7168,4.7324,4.7149,4.6467,4.6354,4.6354,4.6311,4.6329,4.6346,4.6322,4.638,4.6342,4.6465,4.6525,4.6294,4.63,4.6362,4.6344,4.6307,4.6288,4.6289,4.6289,4.6289,4.6543,4.6836,4.666,4.6543,4.6992,4.668,4.6348,4.6289,4.6289,4.6289,4.6289,4.6289,4.6289,4.6289,4.6289,4.6289,4.6289,4.6289,4.6289,4.6289,4.6289,4.6289,4.6289,4.6289,4.6289,4.6289,4.6289,4.6289,4.6289,4.6289,4.6289,4.6289,4.6289,4.6289,4.6289,4.6289,4.6289,4.6289,4.6328,4.6641,4.7051,4.7656,4.8047,5.0453,5.0483,5.0643,5.0688,5.0688,5.0707,5.0938,5.1375,5.1755,5.239,5.3332,5.4068,5.4747,5.517,5.5516,5.5689,5.5689,5.5689,5.5478,5.5222,5.5107,5.4914,5.4511,5.4222,5.4299,5.4857,5.4318,5.4149,5.3667,5.3278,5.2969,5.3487,5.2267,5.2028,5.2193,5.1624,5.1264,5.1253,5.0889,5.0645,5.0706,5.0691,5.03,4.956,4.8973,4.8875,4.8643,4.845,4.8163,4.8283,4.8501,4.7937,4.6708,4.6672,4.671,4.6396,4.6744,4.6878,4.6932,4.6951,4.7109,4.7464,4.7506,4.7531,4.7378,4.7185,4.6913,4.6816,4.6582,4.6289,4.6289,4.6289,4.6621,4.6758,4.6601,4.6543,4.6797,4.6562,4.6289,4.6289,4.6289,4.6289,4.6289,4.6289,4.6289,4.6289,4.6289,4.6289,4.6289,4.6289,4.6289,4.6289,4.6289,4.6289,4.6289,4.6289,4.6289,4.6289,4.6289,4.6289,4.6289,4.6289,4.6289,4.6289,4.6289,4.6289,4.6289,4.6289,4.6289,4.6289,4.6367,4.6543,4.6894,4.7539,4.7773,5.0128,5.0159,5.0451,5.0573,5.0579,5.058,5.0609,5.0749,5.1399,5.1793,5.2178,5.3621,5.4299,5.4664,5.5376,5.567,5.5651,5.5439,5.5088,5.4703,5.4357,5.401,5.3524,5.3453,5.3491,5.4107,5.3837,5.3256,5.2801,5.2601,5.2445,5.2163,5.2034,5.1884,5.1819,5.1438,5.1069,5.1116,5.1085,5.1069,5.1192,5.1203,5.0813,5.04,4.9912,4.9747,4.9501,4.9449,4.953,4.9185,4.962,4.8685,4.7573,4.7241,4.7533,4.6791,4.7314,4.7545,4.77,4.77,4.7855,4.8794,4.8839,4.8824,4.8611,4.8163,4.7753,4.7363,4.7012,4.6523,4.6348,4.6816,4.6738,4.666,4.6562,4.6504,4.6465,4.6406,4.6289,4.6289,4.6289,4.6289,4.6289,4.6289,4.6289,4.6289,4.6289,4.6289,4.6289,4.6289,4.6289,4.6289,4.6289,4.6289,4.6289,4.6289,4.6289,4.6289,4.6289,4.6289,4.6289,4.6289,4.6289,4.6289,4.6289,4.6289,4.6289,4.6289,4.6289,4.6289,4.6348,4.6445,4.6894,4.7441,4.7539,4.9858,4.9865,4.9929,4.9949,4.9987,5.0196,5.0283,5.0341,5.0751,5.1293,5.1995,5.2986,5.3876,5.453,5.5338,5.567,5.5497,5.5011,5.4549,5.4184,5.3741,5.3178,5.2991,5.2851,5.2813,5.2409,5.2428,5.2486,5.2395,5.1857,5.1731,5.1755,5.1581,5.1377,5.1337,5.1034,5.1159,5.1297,5.1153,5.1078,5.1225,5.112,5.109,5.0825,5.0385,5.0338,5.044,4.975,4.9347,4.984,4.9394,4.8964,4.8633,4.8672,4.8593,4.8259,4.8002,4.8156,4.8527,4.8113,4.8175,4.8648,4.906,4.9041,4.8964,4.8769,4.8418,4.7832,4.7519,4.7148,4.6426,4.7461,4.791,4.7656,4.7402,4.7383,4.7266,4.6953,4.6582,4.668,4.6543,4.6289,4.6289,4.6289,4.6289,4.6289,4.6289,4.6289,4.6289,4.6289,4.6289,4.6289,4.6289,4.6289,4.6289,4.6289,4.6289,4.6289,4.6289,4.6289,4.6289,4.6289,4.6289,4.6289,4.6289,4.6289,4.6289,4.6289,4.6289,4.6289,4.6328,4.6348,4.668,4.7051,4.7344,4.9591,4.9617,4.9761,4.981,4.9811,4.9923,4.9987,5.0025,5.0333,5.0916,5.1798,5.2742,5.3683,5.4535,5.5343,5.5497,5.4934,5.4222,5.3626,5.3159,5.2717,5.226,5.2029,5.1952,5.1683,5.1375,5.1318,5.1529,5.1856,5.163,5.1318,5.1381,5.1678,5.1883,5.1511,5.1509,5.1773,5.1914,5.1465,5.1228,5.1553,5.1326,5.1081,5.0957,5.0792,5.0832,5.0931,5.0734,5.0341,5.0628,5.0426,5.0234,5.0156,5.0058,4.9785,4.9121,4.8904,4.9059,4.9489,4.9174,4.9429,5.0076,5.0155,5.0195,5.0058,4.9824,4.916,4.8535,4.8262,4.8125,4.7773,4.8496,4.8574,4.8398,4.8281,4.8262,4.8164,4.7832,4.7617,4.7344,4.6875,4.6562,4.6289,4.6289,4.6289,4.6289,4.6328,4.6308,4.6328,4.6289,4.6289,4.6289,4.6289,4.6289,4.6289,4.6289,4.6289,4.6289,4.6289,4.6289,4.6289,4.6289,4.6289,4.6289,4.6289,4.6289,4.6289,4.6289,4.6289,4.6289,4.6308,4.6348,4.6406,4.6601,4.6914,4.9305,4.931,4.9539,4.9611,4.9618,4.97,4.9714,4.9776,5.0019,5.0498,5.1234,5.224,5.3119,5.3928,5.4586,5.478,5.4184,5.3491,5.2851,5.2197,5.2019,5.1548,5.0919,5.0688,5.0803,5.0919,5.1106,5.0938,5.126,5.1337,5.1375,5.1707,5.2645,5.2794,5.2261,5.2199,5.2766,5.2648,5.2187,5.1842,5.2091,5.1657,5.1199,5.1185,5.1122,5.1036,5.1128,5.1092,5.1075,5.1182,5.121,5.1285,5.1366,5.1387,5.0762,4.9785,4.998,5.0194,5.0389,5.0154,5.0271,5.1015,5.1289,5.1348,5.1133,5.0469,4.9844,4.9316,4.916,4.9004,4.8769,4.9219,4.918,4.8926,4.8984,4.9082,4.8848,4.8633,4.8574,4.8105,4.7344,4.7168,4.7226,4.7148,4.7344,4.6894,4.6894,4.6484,4.6465,4.6328,4.6289,4.6289,4.6289,4.6289,4.6289,4.6289,4.6289,4.6289,4.6289,4.6289,4.6289,4.6289,4.6289,4.6289,4.6289,4.6289,4.6289,4.6289,4.6289,4.6289,4.6289,4.6308,4.6367,4.6367,4.6543,4.895,4.8959,4.8983,4.9,4.9067,4.9334,4.9461,4.9525,4.9797,4.9876,5.0376,5.1019,5.1732,5.2272,5.3171,5.3451,5.3283,5.314,5.264,5.1986,5.189,5.1524,5.0842,5.0688,5.0822,5.0996,5.1486,5.1717,5.1793,5.1433,5.1741,5.251,5.2428,5.239,5.3063,5.3024,5.3092,5.32,5.3036,5.294,5.2854,5.2174,5.1891,5.1749,5.137,5.1011,5.1122,5.118,5.121,5.1236,5.1275,5.132,5.1328,5.1364,5.1367,5.0976,5.0703,5.0507,5.0937,5.0702,5.0605,5.125,5.1387,5.1387,5.123,5.0801,5.0254,5.0117,5.0039,4.9785,4.959,5.0273,5.0117,4.9863,4.9707,4.957,4.9316,4.959,4.9512,4.9375,4.8769,4.8691,4.8691,4.8555,4.8398,4.7871,4.7363,4.6973,4.6601,4.6465,4.6308,4.6289,4.6289,4.6289,4.6289,4.6289,4.6289,4.6289,4.6289,4.6289,4.6289,4.6289,4.6289,4.6289,4.6289,4.6289,4.6289,4.6289,4.6289,4.6289,4.6289,4.6289,4.6308,4.6289,4.6289,4.889,4.889,4.889,4.889,4.8907,4.9061,4.9399,4.9809,5.0126,5.0542,5.1009,5.1523,5.1852,5.1986,5.2681,5.2652,5.2365,5.2443,5.2308,5.2005,5.189,5.1717,5.1491,5.137,5.137,5.1529,5.2222,5.2991,5.2876,5.2626,5.2626,5.3087,5.3332,5.3606,5.3914,5.3914,5.4222,5.4362,5.417,5.3683,5.3126,5.2419,5.1958,5.2052,5.1279,5.101,5.1027,5.1111,5.1144,5.1157,5.1211,5.1229,5.1255,5.1277,5.1289,5.1289,5.1042,5.1028,5.1269,5.1035,5.1113,5.125,5.1387,5.1387,5.1328,5.1113,5.084,5.0859,5.0879,5.0625,5.0371,5.0976,5.0879,5.0683,5.0508,5.0469,5.0312,5.041,5.0488,5.0371,5.0234,5.0058,4.9785,4.9355,4.9043,4.8574,4.8008,4.7519,4.7031,4.6621,4.6445,4.6289,4.6289,4.6289,4.6289,4.6289,4.6289,4.6289,4.6289,4.6289,4.6289,4.6289,4.6289,4.6289,4.6289,4.6289,4.6289,4.6289,4.6289,4.6289,4.6289,4.6289,4.6289,4.6289,4.6367,4.889,4.889,4.889,4.889,4.8927,4.9104,4.954,5.0096,5.0318,5.0825,5.1324,5.1466,5.1478,5.1613,5.1692,5.1585,5.1243,5.1834,5.1795,5.1773,5.1947,5.1947,5.1659,5.162,5.1851,5.1967,5.3029,5.3722,5.4049,5.4087,5.3857,5.3818,5.4126,5.453,5.4747,5.4824,5.5035,5.5362,5.5016,5.44,5.3587,5.2751,5.229,5.1866,5.1348,5.0855,5.0913,5.0984,5.105,5.1056,5.1113,5.1165,5.1172,5.1207,5.1241,5.1253,5.116,5.1192,5.1335,5.1289,5.1387,5.1387,5.1387,5.1387,5.1387,5.1387,5.1387,5.1289,5.1308,5.1328,5.1387,5.1367,5.1269,5.123,5.125,5.1348,5.1348,5.1133,5.1016,5.0937,5.0879,5.1055,5.0683,5.0078,4.9648,4.9258,4.8711,4.8125,4.7558,4.7031,4.668,4.6504,4.6348,4.6328,4.6289,4.6289,4.6289,4.6328,4.6348,4.6308,4.6308,4.6308,4.6289,4.6289,4.6289,4.6289,4.6289,4.6289,4.6289,4.6289,4.6289,4.6289,4.6289,4.6308,4.6387,4.889,4.889,4.8909,4.889,4.8946,4.9699,5.0014,5.0107,5.0133,5.0224,5.0331,4.9947,4.9915,4.9849,5.0249,5.0418,5.0399,5.2013,5.1861,5.1772,5.2125,5.2145,5.1818,5.1741,5.1986,5.2274,5.3433,5.4241,5.465,5.503,5.5222,5.5472,5.4876,5.5088,5.5299,5.542,5.5458,5.5689,5.5478,5.5151,5.4372,5.3614,5.2892,5.2105,5.1406,5.0892,5.0913,5.091,5.0929,5.0955,5.103,5.1092,5.1109,5.1123,5.115,5.1201,5.1189,5.1208,5.1241,5.1333,5.1387,5.1387,5.1387,5.1387,5.1387,5.1387,5.1387,5.1387,5.1387,5.1387,5.1387,5.1387,5.1387,5.1387,5.1387,5.1387,5.1387,5.1367,5.1289,5.1367,5.1387,5.1387,5.1387,5.0742,5.0449,5.0098,4.9609,4.9023,4.8164,4.7598,4.709,4.6777,4.6504,4.6387,4.6308,4.6289,4.6289,4.6426,4.6523,4.6406,4.6328,4.6328,4.6582,4.6289,4.6289,4.6289,4.6289,4.6289,4.6289,4.6289,4.6289,4.6289,4.6406,4.6523,4.6504,4.9206,4.9587,4.9113,4.889,4.8927,4.9243,4.9643,5.007,5.0116,5.0116,5.0069,4.9902,4.956,4.9398,4.9953,5.014,5.0253,5.1947,5.1924,5.2064,5.239,5.2678,5.2318,5.2082,5.2197,5.2851,5.3953,5.4511,5.4587,5.5318,5.5612,5.5535,5.5304,5.5439,5.5651,5.5689,5.5689,5.5689,5.5689,5.5478,5.5219,5.4452,5.3653,5.2847,5.2048,5.138,5.1006,5.0917,5.0898,5.0917,5.0951,5.0976,5.1009,5.1017,5.1092,5.118,5.1207,5.1254,5.1277,5.1342,5.136,5.1387,5.1387,5.1387,5.1387,5.1387,5.1387,5.1387,5.1387,5.1387,5.1387,5.1387,5.1387,5.1387,5.1387,5.1387,5.1387,5.1387,5.1387,5.1387,5.1387,5.1387,5.1387,5.1328,5.1133,5.0937,5.043,4.9863,4.8984,4.832,4.7871,4.7441,4.7187,4.6699,4.6582,4.6465,4.6328,4.6465,4.6641,4.6621,4.6582,4.7012,4.7129,4.6719,4.6308,4.6289,4.6289,4.6289,4.6289,4.6289,4.6289,4.6289,4.6465,4.6758,4.6973,4.9736,5.0367,4.9884,4.9485,4.9271,4.9234,4.9587,5.0033,5.0116,4.993,4.9763,4.9717,4.9457,4.9265,4.9594,5.0045,5.0207,5.1351,5.1905,5.2277,5.2678,5.3121,5.3063,5.3063,5.3178,5.3722,5.4376,5.4895,5.4972,5.5458,5.5651,5.5689,5.5689,5.5689,5.5689,5.5689,5.5689,5.5689,5.5689,5.5497,5.5291,5.4775,5.3817,5.3035,5.2258,5.1663,5.1126,5.0898,5.0898,5.0898,5.091,5.0906,5.0902,5.0956,5.1083,5.1278,5.1444,5.1543,5.1743,5.1443,5.1346,5.1308,5.1348,5.1348,5.1365,5.1387,5.1387,5.1387,5.1387,5.1426,5.1445,5.1387,5.1387,5.1387,5.1387,5.1387,5.1387,5.1387,5.1387,5.1387,5.1387,5.1387,5.1387,5.1387,5.1328,5.1211,5.1016,5.043,4.9707,4.9141,4.8848,4.8418,4.8027,4.7461,4.6914,4.6914,4.6816,4.6328,4.6543,4.6836,4.6992,4.7422,4.7558,4.7129,4.6738,4.6426,4.6328,4.6367,4.6328,4.6289,4.6504,4.6836,4.707,4.7422,4.7812,5.0572,5.1342,5.1268,5.0766,5.0089,5.0052,5.0033,4.9977,4.9986,4.9633,4.9086,4.903,4.9011,4.8917,4.9154,4.9396,4.9937,5.0818,5.1471,5.2001,5.2759,5.3115,5.3472,5.3722,5.3818,5.453,5.4934,5.5247,5.5458,5.5612,5.567,5.5689,5.5689,5.5689,5.5689,5.5689,5.5689,5.5689,5.5689,5.5324,5.4984,5.4786,5.3976,5.286,5.2477,5.2039,5.113,5.1115,5.1095,5.0917,5.1095,5.1076,5.0917,5.1053,5.1386,5.1962,5.2136,5.2566,5.3182,5.1997,5.1602,5.1629,5.1868,5.1705,5.15,5.1484,5.1601,5.1777,5.1719,5.166,5.1543,5.1543,5.1699,5.1582,5.1621,5.1641,5.168,5.1406,5.1406,5.1621,5.1504,5.1387,5.1387,5.1387,5.1387,5.1367,5.1387,5.0976,5.0312,5.0019,4.9766,4.9277,4.8848,4.8359,4.7832,4.7558,4.7285,4.6699,4.668,4.7246,4.748,4.7715,4.7695,4.748,4.7363,4.7207,4.6797,4.6445,4.6777,4.7187,4.7383,4.7656,4.7851,4.8144,4.8613,5.0971,5.2085,5.1008,5.0711,5.0841,5.033,4.981,4.9373,4.9299,4.9169,4.8956,4.889,4.889,4.889,4.8925,4.9141,4.9664,5.0649,5.1351,5.1775,5.2729,5.3533,5.3914,5.3972,5.4087,5.4434,5.4857,5.5035,5.4843,5.542,5.5689,5.5689,5.5689,5.5689,5.5689,5.5689,5.5689,5.5689,5.5695,5.557,5.5362,5.5287,5.4641,5.3066,5.302,5.2434,5.1269,5.1525,5.1563,5.1269,5.1443,5.1559,5.1327,5.1385,5.1912,5.2399,5.2631,5.3153,5.3409,5.2921,5.2829,5.2845,5.2734,5.2522,5.2237,5.2775,5.2676,5.2471,5.2654,5.2812,5.3164,5.3144,5.3086,5.2461,5.2344,5.2344,5.2246,5.168,5.1484,5.1875,5.1973,5.1641,5.1504,5.1601,5.1621,5.1426,5.1387,5.1387,5.0898,5.0859,5.0703,5.0137,4.9668,4.9219,4.8789,4.8418,4.8203,4.7832,4.7891,4.8301,4.8398,4.8301,4.8418,4.8496,4.8262,4.8008,4.7773,4.7637,4.7949,4.8262,4.8437,4.8281,4.8144,4.8769,4.9609,5.1398,5.241,5.1426,5.0906,5.0813,5.0033,4.9355,4.8946,4.889,4.889,4.889,4.889,4.889,4.889,4.8916,4.9077,4.9471,5.0097,5.1469,5.1837,5.2663,5.3752,5.4311,5.4332,5.4664,5.4799,5.4895,5.4991,5.5093,5.5472,5.567,5.5689,5.5689,5.5689,5.5689,5.5689,5.5689,5.5689,5.5689,5.5705,5.5708,5.5605,5.5181,5.4219,5.3726,5.3304,5.2414,5.2182,5.2418,5.2105,5.2144,5.2376,5.2144,5.224,5.2786,5.3192,5.3846,5.431,5.4434,5.4454,5.4426,5.4488,5.4094,5.3461,5.3052,5.3354,5.3383,5.3389,5.3739,5.3887,5.4043,5.4082,5.3867,5.3223,5.3144,5.3144,5.2969,5.2441,5.2051,5.2402,5.2441,5.207,5.1777,5.1816,5.1894,5.1641,5.1387,5.1426,5.1445,5.1348,5.1289,5.084,5.043,5.0058,4.9609,4.918,4.8984,4.8906,4.8965,4.9043,4.918,4.9062,4.9277,4.9375,4.8945,4.8691,4.8848,4.8945,4.9023,4.9238,4.9512,4.918,4.8594,4.9316,5.041,5.1816,5.2531,5.2522,5.15,5.0153,4.9429,4.9011,4.89,4.889,4.889,4.889,4.889,4.889,4.889,4.889,4.9052,4.9396,4.9557,5.088,5.212,5.2702,5.3966,5.4877,5.5264,5.5068,5.5362,5.553,5.5434,5.5645,5.567,5.5689,5.5689,5.5689,5.5689,5.5689,5.5689,5.5689,5.5689,5.5689,5.5724,5.5756,5.5817,5.5321,5.4693,5.4398,5.4011,5.3459,5.3343,5.3386,5.3347,5.3444,5.3444,5.3459,5.3502,5.4078,5.4735,5.549,5.5621,5.5679,5.5601,5.5668,5.5416,5.4571,5.3948,5.3768,5.3976,5.4128,5.4144,5.4316,5.4284,5.4297,5.4336,5.4355,5.4141,5.4062,5.3984,5.3867,5.3496,5.3027,5.2969,5.293,5.2695,5.2461,5.2402,5.2344,5.2031,5.1836,5.1797,5.1758,5.1426,5.1387,5.1328,5.1016,5.0898,5.0449,4.9883,4.9824,4.9766,4.9375,4.9375,4.957,4.9883,5.0039,4.998,4.9473,4.9375,4.9726,4.9863,4.9863,5.0117,5.0371,5.0078,4.9512,5.0215,5.1094,5.1305,5.2457,5.1323,5.0525,5.0107,4.9847,4.9447,4.8937,4.889,4.889,4.889,4.889,4.889,4.889,4.889,4.8959,4.9307,4.9926,5.0961,5.1882,5.2544,5.3461,5.4236,5.4822,5.4849,5.5107,5.5357,5.5689,5.5689,5.5689,5.5689,5.5689,5.5689,5.5689,5.5689,5.5689,5.5689,5.5689,5.5689,5.573,5.5766,5.5846,5.5369,5.5034,5.4871,5.446,5.4,5.4233,5.4155,5.3714,5.4179,5.4233,5.3498,5.4078,5.4793,5.5528,5.5892,5.5969,5.6008,5.6008,5.6008,5.6008,5.5427,5.5044,5.485,5.4864,5.5041,5.4961,5.5087,5.5209,5.5275,5.5312,5.5176,5.5,5.4922,5.4883,5.4707,5.4258,5.3867,5.3945,5.3887,5.3476,5.3223,5.3008,5.2891,5.2519,5.2305,5.2285,5.2109,5.1816,5.1445,5.1426,5.1348,5.1152,5.0957,5.0469,5.0566,5.0566,5.0176,5.0019,5.0469,5.0742,5.082,5.0664,5.0312,5.043,5.0781,5.0781,5.0566,5.082,5.1035,5.0742,5.0644,5.1094,5.1387,5.0711,5.1407,5.0534,4.9921,4.9699,4.9959,4.9643,4.9039,4.9224,4.9243,4.8909,4.889,4.889,4.889,4.889,4.8917,4.9018,4.9887,5.0918,5.1834,5.2266,5.3419,5.4078,5.4382,5.4669,5.4954,5.5338,5.5689,5.5689,5.5689,5.5689,5.5689,5.5689,5.5689,5.5689,5.5689,5.5689,5.5689,5.5714,5.574,5.5806,5.5856,5.5557,5.5333,5.5247,5.4886,5.4561,5.5079,5.4871,5.4542,5.5161,5.5064,5.4561,5.5064,5.5354,5.593,5.5969,5.6008,5.6008,5.6008,5.6008,5.6008,5.5988,5.5726,5.5596,5.5595,5.5604,5.561,5.6001,5.6306,5.639,5.6426,5.6113,5.582,5.582,5.5801,5.541,5.4961,5.4941,5.5078,5.4805,5.4355,5.4023,5.3769,5.3535,5.332,5.3086,5.2891,5.2656,5.2305,5.1797,5.1465,5.1426,5.1328,5.1191,5.1172,5.1113,5.1113,5.0918,5.0918,5.1367,5.1348,5.1152,5.1211,5.1269,5.1328,5.1308,5.1289,5.1211,5.1484,5.1582,5.125,5.1055,5.1172,5.1387,5.0116,5.0172,5.0042,4.9726,4.928,4.9977,4.993,4.9299,4.9986,4.9707,4.903,4.889,4.889,4.889,4.889,4.9011,4.9373,5.0112,5.108,5.1933,5.197,5.2956,5.4056,5.439,5.439,5.5135,5.567,5.5689,5.5689,5.5689,5.5689,5.5689,5.5689,5.5689,5.5689,5.5689,5.5689,5.5689,5.5714,5.573,5.5796,5.5851,5.5919,5.5927,5.5915,5.5853,5.5872,5.5969,5.6008,5.5988,5.595,5.5872,5.5834,5.5814,5.593,5.5969,5.6008,5.6008,5.6008,5.6008,5.6008,5.6008,5.5988,5.593,5.5913,5.5902,5.587,5.5897,5.6182,5.6268,5.6329,5.645,5.6304,5.6219,5.6211,5.623,5.6055,5.5703,5.5605,5.5703,5.5625,5.5176,5.4765,5.4512,5.4375,5.418,5.4023,5.375,5.3496,5.3125,5.248,5.1894,5.1797,5.1894,5.2051,5.1953,5.166,5.1543,5.1465,5.1289,5.1367,5.1387,5.1387,5.1387,5.1406,5.1543,5.1582,5.1543,5.168,5.207,5.207,5.1738,5.1641,5.1777,5.1504,4.9577,5.0014,4.9447,4.9754,5.0748,5.1008,5.1323,5.163,5.1231,5.0228,4.9094,4.889,4.889,4.889,4.8909,4.9132,4.9847,5.0525,5.1536,5.1974,5.2037,5.2647,5.3656,5.3594,5.3906,5.4658,5.5266,5.5689,5.5689,5.5689,5.5689,5.5689,5.5689,5.5689,5.5689,5.5689,5.5689,5.5689,5.5708,5.5714,5.574,5.5831,5.5929,5.5947,5.5969,5.5999,5.6003,5.6008,5.6008,5.5988,5.5988,5.5988,5.5988,5.6008,5.6008,5.6008,5.6008,5.6008,5.6008,5.6008,5.6008,5.6008,5.6008,5.6008,5.5988,5.6008,5.6018,5.6068,5.6112,5.6168,5.6236,5.6379,5.6486,5.6502,5.6562,5.6582,5.6621,5.6426,5.623,5.6211,5.623,5.5937,5.5527,5.5312,5.5176,5.5078,5.5019,5.4863,5.4746,5.4414,5.3613,5.3027,5.2558,5.2578,5.2773,5.2773,5.248,5.2187,5.207,5.1797,5.1504,5.1582,5.1699,5.1465,5.1426,5.1719,5.1875,5.1719,5.1933,5.2578,5.2754,5.2519,5.2851,5.3086,5.2383,4.916,4.9485,4.9094,4.9401,5.032,5.1063,5.1268,5.1026,5.1249,5.0469,4.9057,4.889,4.889,4.889,4.8909,4.9392,5.019,5.1008,5.1769,5.2186,5.219,5.2738,5.2949,5.309,5.3888,5.4637,5.5295,5.5689,5.5689,5.5689,5.5689,5.5689,5.5689,5.5689,5.5689,5.5689,5.5689,5.5689,5.5689,5.5689,5.5695,5.5801,5.59,5.5919,5.598,5.6005,5.6003,5.6008,5.6008,5.6008,5.6008,5.6008,5.6008,5.6008,5.6008,5.6008,5.6008,5.6008,5.6008,5.6008,5.6008,5.6008,5.6008,5.6008,5.6008,5.6008,5.6008,5.6047,5.6036,5.6086,5.6149,5.6263,5.6354,5.6397,5.6523,5.6601,5.6621,5.6543,5.6445,5.6445,5.6445,5.6367,5.6055,5.6035,5.5937,5.5937,5.5879,5.5508,5.5469,5.5469,5.4726,5.418,5.373,5.3398,5.3457,5.3457,5.332,5.3027,5.2754,5.2519,5.2324,5.2129,5.1992,5.1855,5.1875,5.2168,5.2226,5.2324,5.2715,5.3398,5.3476,5.3379,5.3828,5.4199,5.3574,4.8909,4.889,4.8909,4.9076,4.9429,5.0766,5.0841,5.006,5.0841,5.0636,4.941,4.9049,4.89,4.889,4.8927,4.9577,5.019,5.0748,5.1602,5.2345,5.1825,5.2724,5.3204,5.3301,5.4075,5.4827,5.5517,5.5668,5.5689,5.5689,5.5689,5.5689,5.5689,5.5689,5.5689,5.5689,5.5689,5.5689,5.5689,5.5689,5.573,5.5761,5.5851,5.5929,5.599,5.5998,5.6005,5.6003,5.6003,5.6008,5.6008,5.6008,5.6008,5.6008,5.6008,5.6008,5.6008,5.6008,5.6008,5.6008,5.6008,5.6008,5.6008,5.6008,5.6008,5.6008,5.6008,5.5993,5.6001,5.6015,5.6086,5.6146,5.6241,5.6328,5.6465,5.6601,5.6601,5.6601,5.6621,5.6621,5.6582,5.6562,5.6562,5.6562,5.6582,5.6601,5.6445,5.6074,5.582,5.5859,5.5547,5.5234,5.4961,5.4668,5.4512,5.4219,5.416,5.3945,5.3691,5.3418,5.3164,5.2969,5.2695,5.2344,5.2441,5.291,5.3223,5.3418,5.3867,5.4336,5.4258,5.4297,5.4746,5.5,5.4707,4.889,4.889,4.889,4.9633,5.0822,5.1268,5.1918,5.2577,5.1658,5.1156,5.0432,4.9392,4.889,4.889,4.889,4.9522,5.058,5.0766,5.1955,5.3134,5.1955,5.2785,5.362,5.3713,5.4388,5.5085,5.5629,5.5673,5.5689,5.5689,5.5689,5.5689,5.5689,5.5689,5.5689,5.5689,5.5689,5.5689,5.5689,5.5689,5.5719,5.5751,5.5806,5.5885,5.5957,5.5985,5.5998,5.6005,5.5999,5.6008,5.6008,5.6008,5.6008,5.6008,5.6008,5.6008,5.6008,5.6008,5.6008,5.6008,5.6008,5.6008,5.6008,5.6008,5.6008,5.6008,5.6008,5.6008,5.5993,5.5993,5.6056,5.6151,5.6225,5.6309,5.6426,5.6543,5.6582,5.6601,5.6621,5.6621,5.6601,5.6601,5.6601,5.6601,5.6601,5.6621,5.6621,5.6289,5.6269,5.6269,5.623,5.6094,5.5918,5.6191,5.6113,5.5254,5.5,5.4824,5.4609,5.4277,5.4023,5.3828,5.3535,5.3086,5.3398,5.3945,5.4219,5.4394,5.4941,5.5312,5.5156,5.5234,5.5664,5.582,5.5527]}]]